     2              OBSERVATION DATA    GPS                 RINEX VERSION / TYPE
teqc 1998Mar9 19981006 18:15:02UTC                          PGM / RUN BY / DATE
                                                            COMMENT
Original Marker Name: DASH                                  COMMENT
Campaign Name: HPGN 1998                                    COMMENT
4-Character Station Name: DASH                              COMMENT
6-Character Antenna Code: TRMCMP                            COMMENT
Vertical Measurement Point: BPA                             COMMENT
Vertical Offset to Rinex Ref. Point: 0.0000                 COMMENT
Radial Measurement Point: RRP                               COMMENT
Radial Offset to Rinex Ref. Point: 0.0000                   COMMENT
Antenna Height from Field Measurement: 2.0000 m             COMMENT
Original XYZ: -2420588.4159 -4733047.2236 3513117.2339      COMMENT
New XYZ position is based on association with SCEC monument COMMENT
E1D0F9J4+0011. Position of that monument is believed to be  COMMENT
valid to within 1 m horizontally; vertical accuracy         COMMENT
should be no worse than 3-times this value.                 COMMENT
                                                            COMMENT
Revised Rinex header created by UCSD GPS archive for        COMMENT
GSAC on 12-Apr-1999 (1999:102) 04:38:27 GMT                 COMMENT
For assistance contact dagnew@ucsd.edu or hjohnson@ucsd.edu COMMENT
                                                            COMMENT
DASH                                                        MARKER NAME
unknown CALIF DEPT TRANSPORTATION                           OBSERVER / AGENCY
11526 TRIMBLE 4000 SSE NP 7.25; SP 3.07                     REC # / TYPE / VERS
30426 TR GEOD L1/L2 GP                                      ANT # / TYPE
 -2420587.0000 -4733049.0000  3513111.0000                  APPROX POSITION XYZ
        2.0000        0.0000        0.0000                  ANTENNA: DELTA H/E/N
     1     1     0                                          WAVELENGTH FACT L1/2
     7    L1    L2    C1    P2    P1    D1    D2            # / TYPES OF OBSERV
     0                                                      INTERVAL
  1998     6    17    15    35   15.000000                  TIME OF FIRST OBS
  1998     6    17    21     7   15.000000                  TIME OF LAST OBS
                                                            END OF HEADER
 98  6 17 15 35 15.0000000  0  7G 2G 4G 5G 7G 8G 9G24
    249565.91055    150419.59255  23508518.9924   23508521.3954
     -3433.3754      -2675.3574
     49135.86657     18892.82757  20708232.0234   20708232.0824
      -789.3124       -615.0494
   -124599.97356    -66267.12855  23064969.6884   23064970.4024
      1631.2034       1271.0674
    217303.23156     80290.58555  22577481.1954   22577482.9884
     -3242.0784      -2526.2954
   -130983.37655    -77947.32055  23033498.9454   23033501.5234
      1705.3284       1328.8274
     40067.78857     31221.92657  21450266.5474   21450267.0744
      -613.7504       -478.2474
    -97883.86157    -35091.63856  21370168.6484   21370170.3954
      1378.0004       1073.7664
 98  6 17 15 35 30.0000000  0  7G 2G 4G 5G 7G 8G 9G24
    301233.84345    190680.30245  23518351.4454   23518354.4574
     -3455.6564      -2692.7194
     61180.21447     28278.05447  20710524.1414   20710524.1994
      -816.6094       -636.3194
   -148924.24445    -85221.13545  23060340.9304   23060341.6914
      1612.0944       1256.1774
    266071.10046    118291.50745  22586761.5864   22586764.4924
     -3260.2504      -2540.4554
   -156384.53045    -97740.41345  23028665.8054   23028667.8674
      1681.5004       1310.2604
     49478.96647     38555.32047  21452057.3204   21452058.0944
      -641.0944       -499.5544
   -118364.21647    -51050.32446  21366271.3674   21366273.2664
      1352.6724       1054.0304
 98  6 17 15 35 45.0000000  0  7G 2G 4G 5G 7G 8G 9G24
    353231.08245    231197.57645  23528245.4534   23528249.1094
     -3476.9694      -2709.3264
     73632.09447     37980.82947  20712893.5634   20712893.7274
      -843.4064       -657.2004
   -172966.60345   -103955.39545  23055764.4304   23055767.5124
      1593.8594       1241.9684
    315107.66946    156501.81445  22596092.5554   22596094.5824
     -3277.7034      -2554.0544
   -181431.68245   -117257.67445  23023899.0864   23023899.4494
      1658.2974       1292.1794
     59297.58547     46206.19447  21453925.7344   21453926.4494
      -667.7974       -520.3614
   -138466.96547    -66714.77446  21362445.9614   21362447.8244
      1327.9224       1034.7444
 98  6 17 15 36  0.0000000  0  7G 2G 4G 5G 7G 8G 9G24
    405539.39245    271957.26145  23538198.9384   23538203.0634
     -3497.3594      -2725.2154
     86479.29947     47991.65147  20715338.2344   20715338.5044
      -869.4374       -677.4844
   -196743.77645   -122482.96445  23051240.8754   23051243.3954
      1576.6094       1228.5274
    364400.58046    194911.86745  22605472.8364   22605474.5354
     -3294.5944      -2567.2164
   -206136.41445   -136508.11744  23019197.9774   23019198.6564
      1635.7344       1274.5984
     69509.79147     54163.76547  21455868.9614   21455869.4184
      -693.7034       -540.5484
   -158205.79947    -82095.65646  21358689.7114   21358691.2704
      1304.0474       1016.1404
 98  6 17 15 36 15.0000000  0  7G 2G 4G 5G 7G 8G 9G24
    458145.32045    312948.83345  23548210.8524   23548213.7234
     -3516.9064      -2740.4464
     99711.32747     58302.33247  20717856.2114   20717856.4804
      -895.0784       -697.4634
   -220270.55846   -140815.55045  23046764.3674   23046764.5904
      1560.0944       1215.6574
    413939.54846    233513.63945  22614900.0474   22614902.8484
     -3310.7504      -2579.8054
   -230507.47945   -155498.55444  23014559.6254   23014561.3594
      1613.5474       1257.3094
     80103.98747     62418.98147  21457884.7194   21457885.4454
      -719.0004       -560.2604
   -177594.12647    -97203.41946  21355000.3984   21355001.8754
      1280.8914        998.0974
 98  6 17 15 36 30.0000000  0  7G 2G 4G 5G 7G 8G 9G24
    511035.49245    354161.95645  23558275.0704   23558276.5824
     -3535.3284      -2754.8014
    113323.34547     68909.10747  20720446.7344   20720446.8054
      -920.1094       -716.9684
   -243555.11945   -158959.40545  23042332.5234   23042332.9574
      1544.2974       1203.3484
    463714.17846    272299.06245  22624371.5084   22624373.8284
     -3326.0944      -2591.7614
   -254551.93945   -174234.43645  23009984.5944   23009986.7154
      1592.1884       1240.6664
     91068.39247     70962.67447  21459971.5634   21459972.1724
      -743.1414       -579.0714
   -196643.30847   -112046.90946  21351375.5864   21351377.3324
      1258.7814        980.8694
 98  6 17 15 36 45.0000000  0  7G 2G 4G 5G 7G 8G 9G24
    564202.23145    395590.56445  23568392.7194   23568395.1564
     -3553.5784      -2769.0224
    127311.64547     79809.08947  20723108.7424   20723108.9774
      -944.9694       -736.3394
   -266603.27945   -176918.92945  23037946.3204   23037949.3914
      1528.8284       1191.2954
    513719.03146    311263.86245  22633887.5704   22633889.8324
     -3341.2504      -2603.5714
   -278275.75845   -192720.50045  23005470.3284   23005472.4844
      1571.0314       1224.1804
    102394.53847     79788.24547  21462126.6954   21462127.2584
      -766.9844       -597.6504
   -215360.30547   -126631.55646  21347813.8284   21347815.5514
      1236.8754        963.7994
 98  6 17 15 37  0.0000000  0  7G 2G 4G 5G 7G 8G 9G24
    617634.51845    437226.04745  23578559.6174   23578563.7194
     -3570.6254      -2782.3054
    141664.75547     90993.34547  20725839.8524   20725839.9924
      -968.6564       -754.7974
   -289429.70346   -194705.68545  23033603.5314   23033605.1374
      1514.8754       1180.4224
    563944.41546    350400.52545  22643444.7814   22643446.7384
     -3355.3284      -2614.5414
   -301690.35146   -210965.61745  23001015.1564   23001016.7854
      1551.0634       1208.6204
    114070.04747     88886.04446  21464348.6334   21464349.3014
      -789.6414       -615.3044
   -233758.12347   -140967.48946  21344312.6094   21344314.5084
      1216.2814        947.7524
 98  6 17 15 37 15.0000000  0  7G 2G 4G 5G 7G 8G 9G24
    671310.98545    479051.82745  23588775.1644   23588779.7584
     -3586.6254      -2794.7734
    156360.89347    102444.89547  20728636.5474   20728636.6174
      -991.2344       -772.3904
   -312060.06946   -212339.74445  23029297.0004   23029297.7504
      1502.1414       1170.4994
    614369.58846    389692.86145  22653040.2034   22653042.8634
     -3368.4534      -2624.7694
   -324817.23046   -228986.53445  22996614.3914   22996616.4534
      1532.0944       1193.8394
    126074.61147     98240.25147  21466632.9694   21466633.4614
      -811.3284       -632.2044
   -251859.14347   -155072.15646  21340868.0944   21340869.8874
      1196.8284        932.5934
 98  6 17 15 37 30.0000000  0  7G 2G 4G 5G 7G 8G 9G24
    725231.15645    521067.52345  23599036.2504   23599039.3204
     -3602.0784      -2806.8144
    171401.07447    114164.52247  20731498.4694   20731498.4804
     -1013.4844       -789.7284
   -334494.79545   -229821.37845  23025026.8134   23025027.5634
      1489.8284       1160.9054
    664997.56646    429143.21745  22662674.6094   22662676.2034
     -3381.3284      -2634.8014
   -347655.24445   -246782.36145  22992267.8204   22992269.9414
      1513.5784       1179.4124
    138407.42447    107850.23547  21468979.7894   21468980.5164
      -832.4064       -648.6284
   -269664.98147   -168946.80146  21337479.6804   21337481.6254
      1178.0004        917.9224
 98  6 17 15 37 45.0000000  0  7G 2G 4G 5G 7G 8G 9G24
    779358.15345    563244.36345  23609334.8594   23609338.1054
     -3615.3594      -2817.1634
    186750.74147    126125.31347  20734419.4304   20734419.4654
     -1033.6094       -805.4104
   -356770.20145   -247178.78045  23020788.9694   23020790.4804
      1479.7974       1153.0884
    715794.90046    468725.54745  22672341.2274   22672342.9264
     -3392.1094      -2643.2024
   -370240.48545   -264381.28145  22987969.3984   22987970.4064
      1497.3444       1166.7614
    151030.86447    117686.68247  21471381.8364   21471382.6914
      -851.0944       -663.1904
   -287214.92147   -182622.05046  21334140.0004   21334141.8984
      1161.5474        905.1014
 98  6 17 15 38  0.0000000  0  7G 2G 4G 5G 7G 8G 9G24
    833701.30745    605589.65144  23619676.0944   23619680.4304
     -3630.6724      -2829.0954
    202417.98147    138333.55447  20737400.8284   20737400.9574
     -1055.5474       -822.5044
   -378879.97046   -264407.16045  23016582.1564   23016583.4924
      1467.9534       1143.8604
    766770.29346    508446.62545  22682041.8594   22682044.9774
     -3404.7974      -2653.0884
   -392566.58845   -281778.22944  22983720.5164   22983720.7974
      1479.2664       1152.6754
    163948.43747    127752.32247  21473840.2974   21473841.1174
      -871.5004       -679.0914
   -304504.04647   -196094.07446  21330849.7034   21330851.6604
      1143.4384        890.9904
 98  6 17 15 38 15.0000000  0  7G 2G 4G 5G 7G 8G 9G24
    888273.48045    648113.34045  23630061.2344   23630065.5354
     -3645.6564      -2840.7714
    218409.42147    150794.43247  20740443.8984   20740444.0044
     -1076.6254       -838.9294
   -400815.16945   -281499.49945  23012407.0164   23012408.9964
      1456.7194       1135.1064
    817932.51246    548313.27645  22691776.9694   22691778.7384
     -3416.7974      -2662.4394
   -414625.14045   -298966.66745  22979523.2664   22979525.0944
      1461.8754       1139.1234
    177169.19347    138054.20947  21476355.9924   21476356.6254
      -891.2974       -694.5174
   -321525.34047   -209357.39646  21327610.9694   21327612.8094
      1126.0474        877.4394
 98  6 17 15 38 30.0000000  0  7G 2G 4G 5G 7G 8G 9G24
    943062.55845    690806.10645  23640487.6884   23640491.3674
     -3660.3594      -2852.2284
    234707.13247    163493.94847  20743545.2974   20743545.4494
     -1097.1414       -854.9154
   -422589.05245   -298466.09645  23008263.2814   23008265.0164
      1445.6884       1126.5104
    869264.89146    588312.52645  22701545.3284   22701546.7704
     -3428.3124      -2671.4124
   -436431.85945   -315958.92445  22975374.3284   22975375.8164
      1444.9694       1125.9504
    190679.17547    148581.46547  21478926.7894   21478927.5394
      -910.7664       -709.6874
   -338293.87947   -222423.76646  21324419.9454   21324421.6094
      1108.9694        864.1314
 98  6 17 15 38 45.0000000  0  7G 2G 4G 5G 7G 8G 9G24
    998093.26345    733687.16145  23650959.2974   23650963.2114
     -3676.9064      -2865.1224
    251330.12247    176446.94047  20746708.5314   20746708.5084
     -1119.0784       -872.0094
   -444178.87746   -315289.36245  23004156.0234   23004156.3054
      1433.1254       1116.7214
    920790.13146    628462.04845  22711351.0164   22711353.8984
     -3441.5164      -2681.7004
   -457966.96446   -332739.48045  22971276.7814   22971278.4104
      1426.5164       1111.5714
    204500.49047    159351.31747  21481556.9694   21481557.7894
      -931.9374       -726.1854
   -354785.91547   -235274.67846  21321281.5234   21321283.2704
      1090.1094        849.4364
 98  6 17 15 39  0.0000000  0  7G 2G 4G 5G 7G 8G 9G24
   1053357.78245    776750.38644  23661475.8134   23661479.9264
     -3691.6874      -2876.6404
    268266.94047    189644.46747  20749931.3834   20749931.6644
     -1139.1564       -887.6544
   -465595.83546   -331977.90045  23000080.1644   23000081.1484
      1422.4224       1108.3814
    972497.58246    668753.55445  22721190.1954   22721192.9144
     -3452.8124      -2690.5034
   -479240.68145   -349316.41545  22967228.4924   22967229.8054
      1409.9534       1098.6654
    218624.52547    170357.05747  21484244.6174   21484245.4494
      -951.3124       -741.2824
   -371010.46247   -247917.16246  21318194.2194   21318195.9064
      1073.1884        836.2504
 98  6 17 15 39 15.0000000  0  7G 2G 4G 5G 7G 8G 9G24
   1108841.13245    819984.10844  23672033.8524   23672037.7424
     -3706.1564      -2887.9144
    285502.76947    203074.99147  20753211.2274   20753211.4734
     -1158.9694       -903.0934
   -486852.94045   -348541.82145  22996034.1804   22996036.3244
      1411.7974       1100.1014
   1024370.23546    709173.80045  22731060.9384   22731062.3674
     -3463.4694      -2698.8074
   -500265.87645   -365699.64045  22963226.6884   22963228.1054
      1393.3444       1085.7224
    233037.07247    181587.61547  21486987.3054   21486987.9144
      -970.3594       -756.1244
   -386982.26547   -260362.69746  21315154.9774   21315156.6994
      1056.3444        823.1254
 98  6 17 15 39 30.0000000  0  7G 2G 4G 5G 7G 8G 9G24
   1164533.37445    863380.61845  23682631.9454   23682635.0744
     -3719.6254      -2898.4094
    303026.72647    216730.02547  20756545.9924   20756546.2974
     -1177.7034       -917.6914
   -507957.61345   -364986.98045  22992018.6174   22992020.2814
      1402.0004       1092.4684
   1076392.60146    749710.68545  22740960.7894   22740962.3594
     -3473.0314      -2706.2584
   -521048.03645   -381893.48545  22959271.0634   22959273.7934
      1377.5004       1073.3774
    247725.52347    193033.15547  21489782.3914   21489783.0354
      -988.2344       -770.0534
   -402709.92247   -272617.99546  21312161.8834   21312163.5594
      1040.5164        810.7914
 98  6 17 15 39 45.0000000  0  7G 2G 4G 5G 7G 8G 9G24
   1220425.55945    906932.94145  23693268.6414   23693272.1564
     -3732.8754      -2908.7344
    320830.03747    230602.74147  20759933.9534   20759934.1414
     -1196.2504       -932.1434
   -528917.71046   -381319.55845  22988030.2034   22988030.3094
      1392.5314       1085.0894
   1128555.84946    790357.35245  22750887.0084   22750889.1524
     -3482.2194      -2713.4174
   -541594.68645   -397903.80745  22955361.3834   22955363.9264
      1361.8284       1061.1654
    262679.46047    204685.56747  21492628.0704   21492628.8794
     -1005.7974       -783.7384
   -418201.66147   -284689.45946  21309214.0234   21309216.0044
      1024.8444        798.5804
 98  6 17 15 40  0.0000000  0  7G 2G 4G 5G 7G 8G 9G24
   1276518.10845    950641.37544  23703941.7664   23703945.2344
     -3745.6414      -2918.6814
    338912.79047    244693.20747  20763375.0164   20763375.3674
     -1214.2814       -946.1934
   -549734.08745   -397540.12045  22984068.6884   22984069.8594
      1383.4224       1077.9914
   1180857.45946    831111.85945  22760839.4694   22760842.1294
     -3490.7974      -2720.1014
   -561903.36445   -413728.74345  22951498.0004   22951498.8324
      1346.3914       1049.1364
    277898.20447    216544.32447  21495524.1094   21495524.7774
     -1022.9064       -797.0704
   -433454.66647   -296574.89646  21306311.4614   21306313.3484
      1009.3754        786.5264
 98  6 17 15 40 15.0000000  0  7G 2G 4G 5G 7G 8G 9G24
   1332796.00245    994494.24344  23714650.7034   23714655.2384
     -3758.0004      -2928.3124
    357258.94147    258988.92047  20766866.1954   20766866.2894
     -1231.7814       -959.8304
   -570417.45745   -413656.95145  22980132.6174   22980135.1954
      1374.4384       1070.9904
   1233280.68746    871961.09445  22770815.2814   22770816.2304
     -3498.8754      -2726.3964
   -581984.14246   -429376.14145  22947676.8134   22947677.0004
      1331.1254       1037.2404
    293370.64747    228600.77146  21498468.2664   21498468.9344
     -1040.0314       -810.4144
   -448480.45547   -308283.28846  21303452.2194   21303453.8594
       994.1094        774.6314
 98  6 17 15 40 30.0000000  0  7G 2G 4G 5G 7G 8G 9G24
   1389247.72145   1038482.53144  23725394.2274   23725398.7034
     -3768.3754      -2936.3964
    375858.96247    273482.45147  20770405.6094   20770405.7034
     -1247.8284       -972.3344
   -590974.99345   -429675.77645  22976220.8524   22976222.9144
      1367.0004       1065.1954
   1285815.07746    912896.97445  22780812.8364   22780814.9574
     -3505.2344      -2731.3514
   -601845.68545   -444852.67445  22943896.9924   22943897.5084
      1317.5634       1026.6724
    309089.79947    240849.45746  21501459.6094   21501460.3484
     -1055.3914       -822.3824
   -463286.31847   -319820.30446  21300634.8054   21300636.5274
       980.4694        764.0024
 98  6 17 15 40 45.0000000  0  7G 2G 4G 5G 7G 8G 9G24
   1445788.95745   1082540.58845  23736153.2664   23736156.7234
     -3774.4374      -2941.1204
    394637.68247    288115.23047  20773978.9614   20773979.0904
     -1260.0164       -981.8304
   -611484.99346   -445657.61745  22972318.1094   22972318.6024
      1363.7344       1062.6504
   1338380.91646    953857.35945  22790815.6954   22790818.4384
     -3507.5474      -2733.1534
   -621569.01045   -460221.47345  22940142.9774   22940144.5594
      1308.2664       1019.4284
    324973.42447    253226.30647  21504482.1884   21504482.9144
     -1066.3754       -830.9424
   -477952.14247   -331248.19946  21297843.8594   21297845.4654
       971.0004        756.6234
 98  6 17 15 41  0.0000000  0  7G 2G 4G 5G 7G 8G 9G24
   1502516.33745   1126743.72645  23746948.3524   23746950.7074
     -3789.1254      -2952.5654
    413695.57847    302965.54247  20777605.6884   20777605.8054
     -1281.0004       -998.1824
   -631851.28945   -461527.45945  22968442.0864   22968443.3984
      1351.7814       1053.3364
   1391076.87446    994919.14045  22800842.6174   22800844.3874
     -3518.5314      -2741.7134
   -641055.97645   -475406.05745  22936435.1724   22936438.3834
      1290.0314       1005.2194
    341117.12147    265805.80847  21507554.2664   21507555.0864
     -1086.0474       -846.2704
   -492380.88947   -342491.36146  21295098.4454   21295100.2624
       952.8914        742.5124
 98  6 17 15 41 15.0000000  0  7G 2G 4G 5G 7G 8G 9G24
   1559444.95545   1171103.65244  23757780.9694   23757785.7734
     -3802.0474      -2962.6344
    433049.07347    318046.19247  20781288.5394   20781288.5634
     -1300.1094      -1013.0724
   -652056.02945   -477271.34145  22964597.7344   22964599.6214
      1341.4694       1045.3004
   1443919.19146   1036094.93345  22810898.5704   22810900.3524
     -3527.7814      -2748.9204
   -660287.58645   -490391.66645  22932774.8914   22932779.4494
      1273.4384        992.2894
    357536.78547    278600.34747  21510678.7424   21510679.5744
     -1103.9844       -860.2484
   -506557.14247   -353537.77746  21292400.6094   21292402.4964
       936.5474        729.7774
 98  6 17 15 41 30.0000000  0  7G 2G 4G 5G 7G 8G 9G24
   1616560.33145   1215609.04944  23768650.3674   23768654.3874
     -3813.7194      -2971.7294
    452680.80547    333343.65647  20785024.3594   20785024.3484
     -1317.7974      -1026.8554
   -672112.94446   -492900.09145  22960780.9844   22960782.5904
      1332.4694       1038.2874
   1496893.39946   1077373.53145  22820979.7894   22820982.4734
     -3535.8754      -2755.2274
   -679275.70945   -505187.56845  22929162.4384   22929164.7344
      1258.0004        980.2604
    374218.99347    291599.47247  21513853.4224   21513854.1604
     -1120.6724       -873.2514
   -520494.59947   -364398.12346  21289748.4614   21289750.2424
       921.4224        717.9914
 98  6 17 15 41 45.0000000  0  7G 2G 4G 5G 7G 8G 9G24
   1673852.85645   1260252.55344  23779553.0704   23779557.2194
     -3825.4534      -2980.8734
    472578.90547    348848.67847  20788810.9064   20788810.8484
     -1335.5314      -1040.6744
   -692034.08745   -508423.06445  22956989.8754   22956990.9884
      1323.5004       1031.2994
   1549995.99046   1118752.18445  22831083.8284   22831085.9964
     -3544.7034      -2762.1064
   -698031.56446   -519802.54445  22925593.6724   22925593.1684
      1242.6254        968.2794
    391154.87247    304796.25847  21517076.1884   21517077.0904
     -1137.7034       -886.5224
   -534203.33247   -375080.24346  21287139.7194   21287141.3954
       906.1724        706.1084
 98  6 17 15 42  0.0010000  0  7G 2G 4G 5G 7G 8G 9G24
   1731320.64045   1305032.62645  23790488.7164   23790492.3374
     -3836.7034      -2989.6394
    492741.26847    364559.61547  20792647.5214   20792647.3684
     -1352.8594      -1054.1764
   -711826.45245   -523845.66445  22953223.4894   22953224.6264
      1315.0164       1024.6884
   1603230.09646   1160233.25745  22841214.6924   22841217.0014
     -3552.9694      -2768.5474
   -716562.67246   -534242.43145  22922067.2394   22922066.6424
      1227.7194        956.6644
    408344.67047    318190.90047  21520347.4814   21520348.2904
     -1154.3914       -899.5254
   -547687.54547   -385587.41446  21284573.5754   21284575.4744
       891.3754        694.5784
 98  6 17 15 42 15.0010000  0  7G 2G 4G 5G 7G 8G 9G24
   1788956.91745   1349943.95145  23801456.1224   23801460.4354
     -3847.6094      -2998.1374
    513162.99247    380472.65647  20796533.6534   20796533.6884
     -1369.4694      -1067.1194
   -731486.14845   -539164.89045  22949482.1464   22949483.9974
      1306.8444       1018.3204
   1656587.82346   1201810.68245  22851369.6144   22851371.4074
     -3560.8124      -2774.6594
   -734865.73245   -548504.54445  22918583.7714   22918584.6854
      1213.2664        945.4024
    425787.72247    331782.88947  21523666.6304   21523667.5444
     -1170.7974       -912.3094
   -560946.71847   -395919.22646  21282050.3724   21282052.2244
       877.1254        683.4744
 98  6 17 15 42 30.0010000  0  7G 2G 4G 5G 7G 8G 9G24
   1846756.27145   1394982.34644  23812455.4744   23812459.5634
     -3858.9694      -3006.9894
    533830.30747    396577.06047  20800466.4034   20800466.4624
     -1386.2194      -1080.1704
   -751027.03445   -554391.52045  22945764.0444   22945765.4154
      1298.6094       1011.9034
   1710061.52945   1243478.52845  22861543.8884   22861547.0994
     -3569.0784      -2781.1004
   -752956.22445   -562600.96145  22915140.9974   22915143.5404
      1198.7814        934.1154
    443473.63347    345564.11147  21527032.0214   21527032.8294
     -1187.2974       -925.1664
   -573994.54847   -406086.35946  21279567.5364   21279569.1534
       862.6094        672.1634
 98  6 17 15 42 45.0010000  0  8G 2G 4G 5G 7G 8G 9G16G24
   1904725.96845   1440153.49545  23823486.3254   23823490.3104
     -3870.1254      -3015.6824
    554750.47047    412878.49347  20804447.6304   20804447.6534
     -1402.8594      -1093.1374
   -770444.14245   -569521.74345  22942069.3564   22942070.0014
      1290.5474       1005.6214
   1763660.23946   1285243.71545  22871743.7784   22871745.1034
     -3577.1724      -2787.4074
   -770828.34945   -576527.23545  22911740.1694   22911742.6064
      1184.3914        922.9024
    461406.37947    359537.67747  21530444.6064   21530445.3564
     -1203.4844       -937.7804
      1121.79555                  24920041.5364
      -562.5624
   -586824.13847   -416083.44246  21277126.1534   21277128.0054
       848.1884        660.9254
 98  6 17 15 43  0.0010000  0  8G 2G 4G 5G 7G 8G 9G16G24
   1962867.16445   1485458.28145  23834549.9034   23834554.5214
     -3881.4064      -3024.4724
    575919.48947    429373.84047  20808475.7474   20808475.5364
     -1418.9844      -1105.7024
   -789737.70245   -584555.65845  22938396.9424   22938398.5834
      1282.5784        999.4124
   1817382.85546   1327105.46145  22881967.1304   22881970.7984
     -3585.1564      -2793.6284
   -788480.69646   -590282.28545  22908381.6694   22908383.2984
      1169.8914        911.6034
    479584.66947    373702.57247  21533903.9424   21533904.7164
     -1219.6874       -950.4064
      9669.05345                  24921668.3104
      -576.4844
   -599433.50447   -425908.91846  21274726.8964   21274728.6424
       833.6414        649.5904
 98  6 17 15 43 15.0010000  0  8G 2G 4G 5G 7G 8G 9G16G24
   2021172.43145   1530890.90244  23845645.7004   23845648.7244
     -3894.0624      -3034.3344
    597323.66547    446052.41947  20812549.0054   20812548.9464
     -1436.3594      -1119.2414
   -808914.69046   -599498.73645  22934748.4814   22934750.2744
      1272.8914        991.8634
   1871219.12646   1369055.79945  22892211.2004   22892212.9354
     -3594.4374      -2800.8604
   -805919.07145   -603870.63045  22905062.9894   22905064.0324
      1153.7814        899.0504
    498002.50247    388054.13047  21537408.7394   21537409.5014
     -1237.5004       -964.2864
     18421.22545                  24923333.4194
      -591.8754
   -611828.75847   -435567.55446  21272367.9034   21272369.6264
       817.5944        637.0864
 98  6 17 15 43 30.0010000  0  8G 2G 4G 5G 7G 8G 9G16G24
   2079664.15245   1576468.81644  23856776.4744   23856780.1184
     -3904.2194      -3042.2484
    618986.18247    462932.31147  20816671.2944   20816671.2594
     -1451.3754      -1130.9424
   -827948.58046   -614330.31745  22931126.3964   22931127.2634
      1265.5634        986.1534
   1925191.68746   1411112.33545  22902481.7164   22902483.9664
     -3601.3124      -2806.2184
   -823119.34145   -617273.43645  22901789.5914   22901790.4934
      1140.2344        888.4944
    516686.81947    402613.33247  21540964.2864   21540964.8724
     -1253.1254       -976.4614
     27400.58244                  24925041.9894
      -604.7344
   -623984.98847   -445039.93046  21270054.8334   21270056.4034
       803.8594        626.3844
 98  6 17 15 43 45.0010000  0  8G 2G 4G 5G 7G 8G 9G16G24
   2138311.43345   1622167.93944  23867937.2474   23867942.4274
     -3915.4694      -3051.0154
    640878.39547    479991.18647  20820837.3644   20820837.4234
     -1467.7194      -1143.6774
   -846868.82345   -629073.37245  22927526.0754   22927527.0014
      1257.1094        979.5664
   1979270.47546   1453251.60645  22912773.0994   22912775.4314
     -3609.2504      -2812.4034
   -840115.45445   -630517.13145  22898555.3174   22898556.9704
      1125.8284        877.2694
    535607.42247    417356.65447  21544564.5994   21544565.0564
     -1269.6724       -989.3554
     36576.36943      1442.56052  24926787.8024   24926791.6344
      -618.7974       -482.1794
   -635932.21347   -454349.44046  21267781.2314   21267782.6384
       789.0314        614.8304
 98  6 17 15 44  0.0010000  0  8G 2G 4G 5G 7G 8G 9G16G24
   2197118.00645   1667991.19044  23879127.0604   23879131.2554
     -3925.7194      -3059.0024
    663008.18447    497235.18447  20825048.2164   20825048.1344
     -1483.2814      -1155.8044
   -865671.04646   -643724.42045  22923947.5834   22923949.5754
      1249.4844        973.6244
   2033457.60246   1495475.32945  22923084.6694   22923087.2354
     -3615.9064      -2817.5894
   -856904.02445   -643599.09245  22895360.4814   22895361.7244
      1112.3284        866.7494
    554767.24347    432286.37647  21548210.8804   21548211.3374
     -1285.2974      -1001.5304
     45953.59143      8749.50142  24928571.3884   24928576.2744
      -631.7974       -492.3094
   -647665.34047   -463492.12046  21265548.7554   21265550.3724
       775.1094        603.9814
 98  6 17 15 44 15.0010000  0  8G 2G 4G 5G 7G 8G 9G16G24
   2256079.90745   1713935.48844  23890347.3724   23890351.0994
     -3935.9224      -3066.9524
    685372.25147    514661.74047  20829304.1464   20829304.0524
     -1498.5944      -1167.7354
   -884356.47546   -658284.46045  22920391.8414   22920392.7434
      1241.8914        967.7074
   2087741.79046   1537774.69645  22933414.2634   22933415.3884
     -3622.0004      -2822.3384
   -873489.48545   -656522.83245  22892204.6534   22892205.9544
      1099.0474        856.4004
    574161.58047    447398.84447  21551901.4894   21551902.1924
     -1300.5944      -1013.4504
     55527.02942     16209.40541  24930393.7084   24930400.7434
      -644.7034       -502.3664
   -659190.01547   -472472.37846  21263355.5284   21263357.1924
       761.5004        593.3774
 98  6 17 15 44 30.0010000  0  8G 2G 4G 5G 7G 8G 9G16G24
   2315194.78845   1759998.99644  23901597.1224   23901601.6814
     -3945.7664      -3074.6234
    707966.09247    532267.33447  20833603.7244   20833603.7004
     -1513.7194      -1179.5214
   -902928.51145   -672756.17345  22916857.8804   22916859.0524
      1234.6724        962.0824
   2142117.60146   1580145.43345  22943761.7314   22943764.9424
     -3627.8594      -2826.9034
   -889877.63945   -669292.81845  22889085.6534   22889087.0954
      1086.3594        846.5144
    593784.47647    462689.40547  21555635.5364   21555636.1344
     -1315.5164      -1025.0774
     65294.45743     23820.39142  24932251.7084   24932258.5054
      -657.3914       -512.2524
   -670510.29947   -481293.36247  21261201.2164   21261202.9744
       748.1254        582.9554
 98  6 17 15 44 45.0010000  0  8G 2G 4G 5G 7G 8G 9G16G24
   2374453.46745   1806174.50844  23912872.7474   23912876.7434
     -3955.3444      -3082.0864
    730786.86447    550049.76047  20837946.2084   20837946.3254
     -1529.0784      -1191.4894
   -921395.57245   -687146.08745  22913343.7004   22913345.4584
      1227.5634        956.5424
   2196579.25446   1622583.04545  22954125.8804   22954128.1424
     -3633.6724      -2831.4334
   -906078.54845   -681916.86745  22886003.1304   22886005.1344
      1073.7814        836.7134
    613627.13047    478151.21047  21559411.4354   21559411.9154
     -1330.1724      -1036.4984
     75251.61444     31579.27242  24934147.6774   24934153.1964
      -670.2814       -522.2974
   -681632.53447   -489960.02747  21259084.7714   21259086.4354
       734.8754        572.6304
 98  6 17 15 45  0.0010000  0  8G 2G 4G 5G 7G 8G 9G16G24
   2433860.27345   1852465.48944  23924178.3254   23924182.8134
     -3965.4374      -3089.9514
    753845.00747    568017.14547  20842334.0604   20842333.9894
     -1545.2194      -1204.0674
   -939749.74146   -701448.01245  22909851.3724   22909852.6614
      1219.7814        950.4794
   2251133.53046   1665092.89445  22964506.8964   22964509.0054
     -3640.1094      -2836.4494
   -922085.30846   -694389.64745  22882957.5994   22882959.7784
      1060.5944        826.4374
    633696.92947    493790.00847  21563230.6224   21563231.1614
     -1345.6564      -1048.5634
     85409.28544     39494.33342  24936080.2314   24936085.9274
      -683.9694       -532.9634
   -692550.39947   -498467.44747  21257007.2244   21257008.9704
       720.9844        561.8064
 98  6 17 15 45 15.0010000  0  8G 2G 4G 5G 7G 8G 9G16G24
   2493417.62445   1898873.78045  23935512.1144   23935515.9234
     -3975.3124      -3097.6464
    777143.73147    586172.00147  20846767.6224   20846767.5284
     -1561.2194      -1216.5344
   -957989.64045   -715660.89345  22906380.2784   22906382.2354
      1212.3754        944.7084
   2305782.40246   1707676.39045  22974906.0604   22974908.0634
     -3646.2814      -2841.2584
   -937896.09646   -706709.72645  22879948.8174   22879950.2354
      1047.6564        816.3564
    653997.60247    509608.71147  21567093.6064   21567093.9814
     -1360.9224      -1060.4594
     95770.50945     47568.01242  24938052.1534   24938055.4234
      -697.3914       -543.4214
   -703263.69747   -506815.45546  21254968.4894   21254970.1184
       707.6564        551.4204
 98  6 17 15 45 30.0010000  0  8G 2G 4G 5G 7G 8G 9G16G24
   2553113.28045   1945389.80144  23946870.9504   23946874.9234
     -3984.3754      -3104.7084
    800676.90747    604509.54547  20851245.8724   20851245.7674
     -1576.8914      -1228.7464
   -976127.72545   -729794.44345  22902928.4894   22902929.7204
      1205.7664        939.5584
   2360515.62246   1750325.62945  22985322.2634   22985325.0874
     -3651.7974      -2845.5564
   -953522.69745   -718886.29345  22876974.3724   22876976.5994
      1035.5784        806.9444
    674517.39347    525598.15447  21570998.2164   21570998.8024
     -1375.3444      -1071.6964
    106324.16845     55791.61442  24940060.3334   24940063.2744
      -710.0474       -553.2834
   -713787.50647   -515015.81747  21252965.9814   21252967.5634
       695.2034        541.7174
 98  6 17 15 45 45.0010000  0  8G 2G 4G 5G 7G 8G 9G16G24
   2612954.96645   1992019.63444  23958258.4744   23958262.3534
     -3994.9694      -3112.9634
    824455.68047    623038.46447  20855770.7634   20855770.7284
     -1594.0314      -1242.1024
   -994159.10646   -743844.86845  22899497.3884   22899498.4314
      1197.9844        933.4944
   2415341.45746   1793047.05545  22995754.2394   22995756.8534
     -3658.7344      -2850.9624
   -968958.36945   -730914.04545  22874036.7784   22874038.8994
      1022.0004        796.3644
    695262.57847    541763.23147  21574946.3884   21574946.9154
     -1391.0314      -1083.9204
    117076.91744     64170.39642  24942106.5834   24942109.8764
      -724.0944       -564.2294
   -724114.38847   -523062.72347  21251000.7314   21251002.4664
       681.2504        530.8444
 98  6 17 15 46  0.0010000  0  8G 2G 4G 5G 7G 8G 9G16G24
   2672955.35045   2038773.12945  23969675.9354   23969679.2864
     -4004.8444      -3120.6574
    848490.05447    641766.54847  20860344.5214   20860344.6614
     -1610.2974      -1254.7774
  -1012075.90145   -757805.99445  22896087.7394   22896089.5214
      1191.2194        928.2224
   2470268.46846   1835847.28645  23006207.4194   23006208.6854
     -3664.6414      -2855.5644
   -984189.68245   -742782.59145  22871139.1464   22871139.3684
      1009.0634        786.2824
    716240.02847    558109.29347  21578938.2864   21578938.9074
     -1405.7504      -1095.3904
    128038.91843     72712.23842  24944192.1924   24944196.0834
      -737.2814       -574.5054
   -734232.08147   -530946.61447  21249075.4664   21249077.1184
       668.0164        520.5324
 98  6 17 15 46 15.0010000  0  8G 2G 4G 5G 7G 8G 9G16G24
   2733106.00845   2085643.70844  23981122.7554   23981127.1494
     -4014.9224      -3128.5114
    872768.63147    660684.92447  20864964.5674   20864964.6034
     -1626.5004      -1267.4034
  -1029888.31945   -771685.75145  22892698.2634   22892700.9234
      1184.1094        922.6834
   2525287.59246   1878719.33445  23016676.9194   23016679.9544
     -3670.9224      -2860.4594
   -999225.43846   -754498.78945  22868278.3494   22868277.9974
       996.0634        776.1534
    737442.17447    574630.44747  21582972.6534   21582973.3104
     -1420.8754      -1107.1754
    139200.74343     81409.77942  24946315.7554   24946320.1144
      -750.6094       -584.8904
   -744149.55947   -538674.49547  21247187.9894   21247189.8414
       654.6564        510.1224
 98  6 17 15 46 30.0010000  0  8G 2G 4G 5G 7G 8G 9G16G24
   2793408.62045   2132632.70744  23992597.6224   23992600.2474
     -4025.0004      -3136.3644
    897290.88047    679793.17047  20869630.8964   20869630.8134
     -1642.7034      -1280.0284
  -1047593.86946   -785482.28745  22889329.2314   22889330.5094
      1177.0474        917.1794
   2580402.82046   1921666.22545  23027164.8174   23027165.8844
     -3677.3754      -2865.4874
  -1014066.29346   -766063.08945  22865453.8564   22865454.1494
       983.1254        766.0714
    758871.81947    591328.86847  21587050.6064   21587051.1924
     -1435.9534      -1118.9254
    150563.61743     90264.06542  24948478.8564   24948487.1694
      -764.0164       -595.3374
   -753864.63647   -546244.65547  21245339.4584   21245341.2984
       641.0784        499.5414
 98  6 17 15 46 45.0010000  0  8G 2G 4G 5G 7G 8G 9G16G24
   2853854.26145   2179733.16844  24004100.0914   24004103.6184
     -4034.3594      -3143.6574
    922049.32247    699085.46847  20874342.1064   20874342.0714
     -1658.3594      -1292.2284
  -1065199.64646   -799201.07945  22885978.6464   22885980.1464
      1170.4384        912.0294
   2635609.00946   1964684.01645  23037670.5214   23037673.2044
     -3683.4064      -2870.1874
  -1028719.02745   -777480.76545  22862665.0134   22862665.9854
       970.5314        756.2584
    780519.90447    608197.50147  21591170.3334   21591170.9424
     -1450.4224      -1130.1994
    162118.26343     99267.69842  24950676.8724   24950681.7824
      -776.5624       -605.1144
   -763383.52447   -553661.94547  21243528.0214   21243529.9784
       628.1414        489.4604
 98  6 17 15 47  0.0010000  0  8G 2G 4G 5G 7G 8G 9G16G24
   2914442.50645   2226944.71144  24015630.3414   24015633.6814
     -4044.6564      -3151.6804
    947043.24847    718561.25747  20879098.5834   20879098.2904
     -1674.7664      -1305.0124
  -1082703.98046   -812840.78645  22882647.8804   22882649.5214
      1162.8134        906.0884
   2690906.45646   2007772.93545  23048192.9974   23048194.0634
     -3690.1724      -2875.4594
  -1043178.78845   -788748.07445  22859913.3964   22859915.5174
       956.7664        745.5324
    802386.92447    625236.73647  21595331.2864   21595331.9314
     -1465.8284      -1142.2044
    173860.43644    108417.49642  24952911.9194   24952917.3684
      -789.6254       -615.2924
   -772706.78847   -560926.80147  21241754.0134   21241756.0284
       614.3754        478.7344
 98  6 17 15 47 15.0010000  0  8G 2G 4G 5G 7G 8G 9G16G24
   2975188.13245   2274278.92944  24027189.8964   24027193.7514
     -4054.4064      -3159.2784
    972285.80647    738230.78547  20883901.9114   20883901.8064
     -1690.5004      -1317.2734
  -1100089.66546   -826388.04445  22879338.7944   22879340.5404
      1155.6564        900.5114
   2746307.39346   2050942.46245  23058735.5134   23058739.7204
     -3696.2034      -2880.1584
  -1057427.58345   -799851.01545  22857202.3884   22857204.3564
       943.4224        735.1344
    824489.95147    642459.86947  21599537.4424   21599538.2044
     -1480.8594      -1153.9164
    185800.68244    117721.57342  24955184.5364   24955187.7944
      -801.9844       -624.9234
   -781819.93947   -568027.92847  21240019.5754   21240021.3334
       601.0944        468.3854
 98  6 17 15 47 30.0010000  0  8G 2G 4G 5G 7G 8G 9G16G24
   3036077.14945   2321724.84944  24038776.9034   24038780.4074
     -4063.8594      -3166.6444
    997759.60847    758080.50047  20888749.5214   20888749.3924
     -1705.7974      -1329.1924
  -1117371.63846   -839854.52145  22876050.5604   22876051.7674
      1148.8284        895.1914
   2801794.25346   2094178.94645  23069294.6854   23069295.7864
     -3701.8444      -2884.5544
  -1071478.96945   -810800.13945  22854528.1464   22854529.9974
       930.3444        724.9434
    846815.37747    659856.30347  21603785.7714   21603786.4034
     -1495.6414      -1165.4344
    197921.57744    127166.47442  24957490.4194   24957497.5604
      -813.9374       -634.2374
   -790736.26247   -574975.69047  21238322.7714   21238324.5874
       587.9224        458.1214
 98  6 17 15 47 45.0010000  0  8G 2G 4G 5G 7G 8G 9G16G24
   3097106.41045   2369280.07644  24050389.8024   24050393.0484
     -4073.0944      -3173.8394
   1023459.59947    778106.46647  20893639.9744   20893639.8104
     -1720.5004      -1340.6494
  -1134552.99146   -853242.57945  22872781.0834   22872781.8334
      1142.3284        890.1264
   2857363.63546   2137479.76945  23079868.7244   23079872.3924
     -3707.0944      -2888.6444
  -1085336.99846   -821598.57345  22851891.4274   22851892.9624
       917.6724        715.0694
    869360.37547    677423.82847  21608075.7634   21608076.6424
     -1510.0784      -1176.6844
    210220.93044    136750.36842  24959831.2784   24959837.1384
      -825.6874       -643.3934
   -799456.03547   -581770.29547  21236663.7394   21236665.5214
       575.0164        448.0644
 98  6 17 15 48  0.0010000  0  8G 2G 4G 5G 7G 8G 9G16G24
   3158276.58045   2416945.10244  24062029.8494   24062034.0564
     -4082.7194      -3181.3394
   1049379.53147    798303.81947  20898572.4354   20898572.3064
     -1735.2974      -1352.1794
  -1151634.42046   -866552.75545  22869530.6304   22869532.3414
      1135.3444        884.6834
   2913013.00146   2180842.86245  23090458.5524   23090460.0174
     -3712.6414      -2892.9674
  -1099002.71746   -832247.18845  22849291.0994   22849291.9894
       904.6884        704.9514
    892124.61347    695162.19147  21612407.7554   21612408.5404
     -1524.9534      -1188.2754
    222699.25944    146473.73342  24962205.1924   24962211.4274
      -837.9064       -652.9144
   -807981.34247   -588413.37047  21235041.2394   21235042.9854
       561.9064        437.8494
 98  6 17 15 48 15.0010000  0  8G 2G 4G 5G 7G 8G 9G16G24
   3219586.64745   2464719.08244  24073697.3494   24073701.7434
     -4092.1724      -3188.7054
   1075518.05547    818671.50147  20903546.5364   20903546.5134
     -1750.0474      -1363.6734
  -1168614.00746   -879783.58145  22866299.5674   22866300.8104
      1128.4224        879.2904
   2968743.89046   2224269.50645  23101064.4504   23101067.9424
     -3718.3914      -2897.4474
  -1112479.06846   -842748.27145  22846726.9194   22846727.5174
       891.9844        695.0534
    915110.00347    713072.88247  21616781.9424   21616782.7514
     -1540.0004      -1200.0004
    235357.94143    156337.70842  24964614.3254   24964618.4744
      -850.1414       -662.4474
   -816315.00247   -594907.10947  21233455.4034   21233457.2904
       549.0944        427.8654
 98  6 17 15 48 30.0010000  0  8G 2G 4G 5G 7G 8G 9G16G24
   3281033.41845   2512599.65344  24085390.7004   24085394.7314
     -4100.9064      -3195.5114
   1101873.89647    839208.52147  20908561.6464   20908561.6344
     -1764.3444      -1374.8134
  -1185493.62946   -892936.54045  22863087.5524   22863088.7824
      1122.0314        874.3104
   3024557.86446   2267760.91845  23111684.6144   23111686.5014
     -3723.7034      -2901.5874
  -1125768.35745   -853103.55545  22844196.2784   22844198.5284
       879.6724        685.4594
    938317.33247    731156.51147  21621198.2864   21621198.8024
     -1554.4694      -1211.2744
    248196.72644    166341.91542  24967057.7244   24967063.6884
      -861.9374       -671.6404
   -824460.55647   -601254.27147  21231905.4034   21231907.2554
       536.8134        418.2954
 98  6 17 15 48 45.0010000  0  8G 2G 4G 5G 7G 8G 9G16G24
   3342613.96445   2560584.46843  24097109.7084   24097114.4894
     -4109.7504      -3202.4034
   1128448.20047    859915.77547  20913618.8804   20913618.9974
     -1778.8284      -1386.1004
  -1202276.72846   -906014.24945  22859893.2314   22859895.4464
      1115.7344        869.4034
   3080454.56846   2311316.76145  23122322.2004   23122324.8844
     -3729.1414      -2905.8244
  -1138867.64245   -863310.71845  22841704.1144   22841707.6534
       866.8914        675.4994
    961743.39847    749410.59047  21625655.8964   21625656.4704
     -1568.9694      -1222.5734
    261215.08144    176486.10242  24969535.1924   24969539.7634
      -873.8284       -680.9054
   -832419.90947   -607456.33947  21230390.8024   21230392.5834
       524.5164        408.7134
 98  6 17 15 49  0.0010000  0  8G 2G 4G 5G 7G 8G 9G16G24
   3404338.69645   2608681.59643  24108853.8254   24108856.9424
     -4119.3754      -3209.9034
   1155249.90247    880800.21847  20918718.8024   20918718.8844
     -1793.9374      -1397.8734
  -1218954.05646   -919009.54445  22856720.4974   22856721.1424
      1108.7504        863.9614
   3136444.76246   2354945.46945  23132976.7634   23132980.0564
     -3735.3594      -2910.6704
  -1151761.74346   -873358.01845  22839251.2864   22839253.3494
       853.1564        664.7974
    985399.35547    767843.79947  21630157.5524   21630157.9274
     -1584.3594      -1234.5664
    274424.80645    186779.41442  24972048.6224   24972052.9114
      -886.7344       -690.9624
   -840184.21047   -613506.41947  21228913.4114   21228915.3564
       511.5164        398.5844
 98  6 17 15 49 15.0010000  0  8G 2G 4G 5G 7G 8G 9G16G24
   3466200.57545   2656885.61543  24120626.6854   24120631.2784
     -4128.9224      -3217.3424
   1182273.35747    901857.45947  20923861.1694   20923861.0874
     -1809.1724      -1409.7444
  -1235532.86946   -931928.12445  22853565.2474   22853566.3494
      1101.7814        858.5314
   3192520.53046   2398640.84845  23143646.9974   23143649.0134
     -3741.4534      -2915.4184
  -1164456.70546   -883250.21245  22836835.9354   22836837.2004
       839.5164        654.1684
   1009280.91447    786452.80647  21634702.0444   21634702.4074
     -1599.8914      -1246.6684
    287823.58945    197220.03742  24974599.2784   24974604.5404
      -899.8594       -701.1894
   -847758.18847   -619408.19347  21227472.0444   21227474.0014
       498.3134        388.2954
 98  6 17 15 49 30.0010000  0  8G 2G 4G 5G 7G 8G 9G16G24
   3528200.00345   2705196.78243  24132423.9664   24132428.3964
     -4137.9374      -3224.3674
   1209517.23847    923086.45547  20929045.7394   20929045.6924
     -1823.6094      -1420.9944
  -1252015.44946   -944771.65245  22850428.4974   22850430.9354
      1095.6564        853.7584
   3248682.60146   2442403.46545  23154335.0994   23154337.7004
     -3747.1254      -2919.8384
  -1176954.16646   -892988.49945  22834457.2944   22834457.7634
       826.5314        644.0504
   1033388.14247    805237.65347  21639289.5524   21639290.2784
     -1614.6094      -1258.1374
    301416.58644    207811.97142  24977185.5364   24977190.3174
      -912.8284       -711.2954
   -855139.15547   -625159.57147  21226067.3964   21226069.1774
       485.5474        378.3484
 98  6 17 15 49 45.0010000  0  8G 2G 4G 5G 7G 8G 9G16G24
   3590338.25045   2753616.14543  24144249.4894   24144254.3644
     -4147.0164      -3231.4414
   1236981.95147    944487.53547  20934271.9974   20934271.8564
     -1838.2814      -1432.4274
  -1268403.66446   -957541.65545  22847310.7784   22847312.1264
      1089.5004        848.9614
   3304935.12146   2486236.62845  23165039.0444   23165041.0244
     -3753.0944      -2924.4894
  -1189252.31545   -902571.48045  22832116.5214   22832117.0604
       813.3754        633.7994
   1057717.22547    824195.38047  21643919.0604   21643919.8104
     -1629.1254      -1269.4484
    315208.92844    218559.25342  24979809.8104   24979812.6104
      -926.0474       -721.5954
   -862325.44647   -630759.25947  21224699.8254   21224701.5484
       472.7974        368.4134
 98  6 17 15 50  0.0010000  0  8G 2G 4G 5G 7G 8G 9G16G24
   3652610.11545   2802139.63244  24156099.6064   24156104.1064
     -4155.8444      -3238.3204
   1264666.24747    966059.71047  20939540.3494   20939540.3494
     -1852.9224      -1443.8354
  -1284699.60746   -970239.80645  22844209.1694   22844210.2004
      1083.3134        844.1404
   3361275.31546   2530138.00345  23175760.5054   23175763.6104
     -3758.9224      -2929.0304
  -1201355.47245   -912002.51045  22829813.3884   22829814.4894
       800.3134        623.6204
   1082262.23847    843321.36247  21648589.8884   21648590.5214
     -1643.5624      -1280.6984
    329197.08544    229459.13942  24982471.1774   24982474.9154
      -939.0004       -731.6884
   -869323.60947   -636212.35047  21223367.9664   21223369.7714
       460.2974        358.6734
 98  6 17 15 50 15.0010000  0  8G 2G 4G 5G 7G 8G 9G16G24
   3715010.57945   2850763.36444  24167972.7004   24167976.4034
     -4164.5004      -3245.0654
   1292569.77347    987802.71847  20944849.9894   20944850.0714
     -1867.8444      -1455.4634
  -1300904.18646   -982866.72245  22841125.5214   22841127.6184
      1076.9694        839.1964
   3417701.83445   2574106.73345  23186497.6224   23186501.2204
     -3764.9224      -2933.7054
  -1213262.75146   -921280.88045  22827547.5524   22827548.8644
       786.9844        613.2354
   1107022.71647    862615.23747  21653301.8024   21653302.4814
     -1658.1254      -1292.0454
    343377.41644    240508.73842  24985169.7164   24985175.7394
      -952.0314       -741.8434
   -876134.23047   -641519.30247  21222072.2474   21222073.9114
       447.4694        348.6774
 98  6 17 15 50 30.0010000  0  8G 2G 4G 5G 7G 8G 9G16G24
   3777537.88845   2899485.87043  24179872.8724   24179878.0994
     -4172.6414      -3251.4084
   1320693.81647   1009717.56047  20950201.5834   20950201.7714
     -1882.2034      -1466.6524
  -1317016.81346   -995421.98645  22838059.4974   22838060.7284
      1071.2034        834.7044
   3474214.98046   2618142.90345  23197252.5674   23197253.8804
     -3770.2814      -2937.8814
  -1224971.53146   -930404.57645  22825319.7714   22825321.3294
       774.0004        603.1174
   1131997.65447    882076.22547  21658054.0754   21658054.7784
     -1671.9844      -1302.8454
    357749.81244    251708.01642  24987905.2714   24987907.8254
      -964.4534       -751.5224
   -882754.07047   -646677.60047  21220812.4034   21220814.0324
       434.9694        338.9374
 98  6 17 15 50 45.0010000  0  8G 2G 4G 5G 7G 8G 9G16G24
   3840192.63345   2948307.66044  24191794.6304   24191799.2594
     -4181.3754      -3258.2144
   1349039.68847   1031805.25047  20955595.6774   20955595.9584
     -1897.2974      -1478.4134
  -1333035.26846  -1007903.92045  22835010.9034   22835011.6184
      1064.5314        829.5054
   3530812.30746   2662244.73745  23208022.4034   23208024.6304
     -3776.0004      -2942.3384
  -1236479.10646   -939371.49245  22823129.5214   22823131.2084
       760.3134        592.4514
   1157184.93747    901702.67547  21662847.0604   21662847.7394
     -1686.3124      -1314.0104
    372314.64344    263057.27842  24990676.2864   24990680.8104
      -977.5474       -761.7254
   -889179.25047   -651684.20747  21219589.6694   21219591.2984
       421.7814        328.6614
 98  6 17 15 51  0.0010000  0  8G 2G 4G 5G 7G 8G 9G16G24
   3902974.77045   2997228.76844  24203741.9974   24203745.6304
     -4189.6414      -3264.6554
   1377607.12947   1054065.59247  20961032.2004   20961032.5874
     -1911.7034      -1489.6394
  -1348956.82546  -1020310.29045  22831981.4814   22831983.4854
      1058.2974        824.6474
   3587488.48046   2706407.96345  23218806.8804   23218810.2314
     -3780.7974      -2946.0754
  -1247786.01746   -948182.05245  22820978.3104   22820979.5524
       747.2504        582.2734
   1182581.78047    921492.42447  21667680.1774   21667681.0444
     -1699.9844      -1324.6634
    387071.54844    274556.12342  24993485.0054   24993490.9114
      -990.1094       -771.5144
   -895411.93847   -656540.82747  21218403.6694   21218405.2514
       409.1884        318.8474
 98  6 17 15 51 15.0010000  0  8G 2G 4G 5G 7G 8G 9G16G24
   3965879.66145   3046245.53143  24215712.7784   24215717.7594
     -4197.9844      -3271.1574
   1406388.76747   1076492.84347  20966509.0214   20966509.3374
     -1926.1874      -1500.9254
  -1364786.35846  -1032644.97345  22828969.2784   22828970.8024
      1051.9844        819.7284
   3644235.12546   2750626.05745  23229606.4424   23229609.5364
     -3785.7344      -2949.9234
  -1258900.67846   -956842.84545  22818863.2864   22818864.1064
       734.4064        572.2654
   1208181.27447    941440.07947  21672551.6064   21672552.5674
     -1713.5944      -1335.2684
    402015.14444    286200.51542  24996328.2784   24996334.2904
     -1002.6414       -781.2784
   -901456.42647   -661250.79647  21217253.4744   21217255.1734
       396.4224        308.9004
 98  6 17 15 51 30.0010000  0  8G 2G 4G 5G 7G 8G 9G16G24
   4028910.81945   3095360.65643  24227706.8024   24227711.7004
     -4206.1874      -3277.5494
   1435388.55047   1099090.07947  20972027.6464   20972027.6464
     -1940.3914      -1511.9934
  -1380521.28646  -1044905.95145  22825974.6144   22825975.8684
      1046.0164        815.0774
   3701056.76446   2794902.69245  23240417.8494   23240420.2044
     -3790.5474      -2953.6734
  -1269823.50146   -965354.15445  22816784.5134   22816785.1814
       721.9534        562.5614
   1233984.98247    961546.86047  21677461.9274   21677462.8064
     -1726.8914      -1345.6294
    417147.07244    297991.63742  24999207.9974   24999212.4624
     -1014.9224       -790.8484
   -907309.03047   -665811.24847  21216139.5834   21216141.3994
       383.9064        299.1484
 98  6 17 15 51 45.0010000  0  8G 2G 4G 5G 7G 8G 9G16G24
   4092065.91945   3144572.37243  24239725.0994   24239730.5834
     -4214.3444      -3283.9044
   1464601.99847   1121853.80647  20977586.6924   20977586.7984
     -1954.6874      -1523.1334
  -1396165.25046  -1057096.03145  22822998.1304   22822999.4074
      1039.9384        810.3414
   3757952.29046   2839236.82045  23251245.4114   23251246.3374
     -3795.4064      -2957.4594
  -1280559.14546   -973719.56245  22814741.4814   22814743.0994
       709.5474        552.8944
   1259988.06447    981809.00147  21682410.0674   21682411.0054
     -1740.1254      -1355.9424
    432463.29344    309926.36942  25002122.5054   25002126.1034
     -1027.0944       -800.3334
   -912974.72847   -670226.05947  21215061.7084   21215063.3254
       371.6724        289.6144
 98  6 17 15 52  0.0010000  0  8G 2G 4G 5G 7G 8G 9G16G24
   4155342.14545   3193878.46544  24251765.7784   24251769.8454
     -4222.9844      -3290.6374
   1494030.01447   1144784.72747  20983186.5364   20983186.6654
     -1969.5474      -1534.7124
  -1411717.42246  -1069214.60645  22820038.3254   22820039.7084
      1033.0784        804.9964
   3814919.15046   2883626.58345  23262085.7164   23262090.0054
     -3800.6874      -2961.5754
  -1291109.62046   -981940.67545  22812733.9504   22812735.7084
       696.6564        542.8494
   1286191.13947   1002226.97547  21687396.2084   21687397.0874
     -1754.2034      -1366.9124
    447959.31944    322001.24542  25005071.0364   25005076.9894
     -1039.6094       -810.0854
   -918459.66647   -674500.01947  21214017.9424   21214019.8764
       359.1254        279.8384
 98  6 17 15 52 15.0010000  0  8G 2G 4G 5G 7G 8G 9G16G24
   4218744.19145   3243282.60144  24263831.0834   24263835.8294
     -4230.8754      -3296.7864
   1523676.21047   1167885.65747  20988828.0364   20988828.1654
     -1983.4534      -1545.5484
  -1427169.02446  -1081254.77345  22817098.0994   22817099.7514
      1027.0004        800.2604
   3871961.83946   2928075.37245  23272940.5604   23272942.7634
     -3805.1724      -2965.0694
  -1301469.78046   -990013.50745  22810762.5524   22810764.0874
       684.4694        533.3524
   1312603.59147   1022808.10047  21692422.4814   21692423.5244
     -1767.6094      -1377.3584
    463640.09544    334220.05542  25008055.5524   25008061.3534
     -1051.4064       -819.2784
   -923758.44547   -678628.92047  21213009.4354   21213011.0874
       347.1414        270.4994
 98  6 17 15 52 30.0010000  0  8G 2G 4G 5G 7G 8G 9G16G24
   4282273.50145   3292785.91143  24275920.2714   24275924.8064
     -4239.6094      -3303.5924
   1553537.73947   1191154.38247  20994510.5524   20994510.6464
     -1997.9064      -1556.8104
  -1442522.79346  -1093218.74945  22814176.5054   22814177.3844
      1020.3444        795.0734
   3929077.86946   2972581.37645  23283809.5214   23283810.9974
     -3810.1414      -2968.9414
  -1311640.61246   -997938.83245  22808826.9814   22808828.3764
       671.7974        523.4784
   1339222.05847   1043549.76047  21697487.9194   21697488.9504
     -1781.3284      -1388.0484
    479506.15545    346583.21342  25011074.0674   25011078.0874
     -1063.8914       -829.0064
   -928869.82147   -682611.79647  21212036.7474   21212038.2244
       334.5634        260.6984
 98  6 17 15 52 45.0010000  0  8G 2G 4G 5G 7G 8G 9G16G24
   4345932.87945   3342390.56343  24288034.2784   24288038.1344
     -4248.3914      -3310.4344
   1583612.57247   1214589.31747  21000233.6304   21000233.9354
     -2012.2194      -1567.9634
  -1457781.33346  -1105108.51145  22811272.4194   22811273.8724
      1014.0314        790.1544
   3986265.05246   3017142.80445  23294691.7004   23294694.3374
     -3814.9694      -2972.7034
  -1321627.04246  -1005720.45345  22806926.7864   22806927.5134
       659.6254        513.9944
   1366042.19247   1064448.55747  21702591.6304   21702592.4744
     -1794.7974      -1398.5434
    495555.63645    359089.31342  25014128.5674   25014129.4584
     -1076.1564       -838.5634
   -933796.64447   -686450.87047  21211099.2314   21211100.7554
       322.2344        251.0924
 98  6 17 15 53  0.0010000  0  8G 2G 4G 5G 7G 8G 9G16G24
   4409726.61145   3392099.91943  24300173.9814   24300177.6854
     -4257.5944      -3317.6064
   1613905.95647   1238194.55547  21005998.3174   21005998.3534
     -2026.9844      -1579.4684
  -1472943.00046  -1116922.75745  22808387.4744   22808389.5134
      1007.4534        785.0284
   4043528.74346   3061763.81745  23305589.3644   23305593.0674
     -3820.3594      -2976.9034
  -1331427.22946  -1013356.96545  22805061.5674   22805062.5054
       646.9384        504.1074
   1393068.44547   1085507.96947  21707734.3964   21707735.3334
     -1808.8284      -1409.4764
    511792.67845    371741.60242  25017218.3494   25017219.3804
     -1088.9224       -848.5114
   -938536.36947   -690144.14547  21210197.2394   21210198.9384
       309.6094        241.2544
 98  6 17 15 53 15.0010000  0  8G 2G 4G 5G 7G 8G 9G16G24
   4473657.59145   3441916.21944  24312340.2714   24312344.5134
     -4266.5624      -3324.5944
   1644417.18147   1261969.53447  21011804.4974   21011804.6264
     -2041.2034      -1590.5484
  -1488009.97046  -1128663.24445  22805520.5994   22805521.4784
      1001.4224        780.3294
   4100873.11646   3106447.72345  23316500.9974   23316503.4584
     -3825.7034      -2981.0674
  -1341040.11746  -1020847.48345  22803232.3644   22803233.5954
       634.7504        494.6104
   1420303.68747   1106730.23247  21712917.3024   21712918.0404
     -1822.6254      -1420.2274
    528218.59844    384541.05541  25020343.6224   25020344.9354
     -1101.2504       -858.1174
   -943087.40447   -693690.39147  21209331.3564   21209332.9154
       297.1094        231.5144
 98  6 17 15 53 30.0010000  0  8G 2G 4G 5G 7G 8G 9G16G24
   4537721.02845   3491835.70344  24324530.8174   24324535.6224
     -4275.2814      -3331.3884
   1675140.25947   1285909.60047  21017650.6924   21017650.9034
     -2055.3124      -1601.5424
  -1502986.88146  -1140333.56645  22802670.5444   22802671.4584
       995.3914        775.6294
   4158298.82446   3151195.00745  23327428.9664   23327431.3454
     -3831.0624      -2985.2444
  -1350472.21846  -1028197.16645  22801437.6384   22801438.0834
       622.7814        485.2844
   1447744.86247   1128112.95747  21718139.2714   21718140.0914
     -1836.2664      -1430.8564
    544828.68444    397483.99141  25023504.8414   25023508.5444
     -1113.4534       -867.6264
   -947452.02047   -697091.37547  21208500.7084   21208502.4784
       284.7664        221.8954
 98  6 17 15 53 45.0010000  0  8G 2G 4G 5G 7G 8G 9G16G24
   4601913.27445   3541855.59343  24336745.7084   24336751.3454
     -4283.6564      -3337.9144
   1706072.88947   1310012.94347  21023536.9744   21023537.2784
     -2069.0164      -1612.2204
  -1517874.52746  -1151934.30045  22799837.4114   22799838.8174
       989.6414        771.1494
   4215800.58246   3196001.58145  23338371.1774   23338372.9704
     -3835.7504      -2988.8964
  -1359725.88546  -1035407.81245  22799676.4504   22799677.2714
       611.0164        476.1164
   1475389.33247   1149654.09847  21723399.8414   21723400.5914
     -1849.6094      -1441.2544
    561619.68844    410567.93642  25026699.2714   25026700.7124
     -1125.2974       -876.8554
   -951634.29847   -700350.28447  21207704.7714   21207706.1304
       272.8594        212.6184
 98  6 17 15 54  0.0010000  0  8G 2G 4G 5G 7G 8G 9G16G24
   4666237.95545   3591978.63743  24348985.9424   24348989.7864
     -4292.9534      -3345.1584
   1737218.72747   1334282.42847  21029463.9664   21029464.0134
     -2083.6874      -1623.6534
  -1532667.40046  -1163461.19345  22797022.4814   22797023.8064
       982.7664        765.7914
   4273377.61346   3240866.75345  23349327.8724   23349330.6964
     -3841.0944      -2993.0604
  -1368794.74146  -1042474.44345  22797950.6614   22797951.6574
       598.1724        466.1084
   1503240.42647   1171356.24147  21728699.3724   21728700.0404
     -1863.8284      -1452.3344
    578594.60344    423795.10042  25029929.4114   25029928.3214
     -1137.9694       -886.7294
   -955630.55047   -703464.23447  21206944.5674   21206946.0324
       260.0314        202.6224
 98  6 17 15 54 15.0010000  0  8G 2G 4G 5G 7G 8G 9G16G24
   4730697.79645   3642207.04044  24361253.6224   24361257.0794
     -4301.9844      -3352.1964
   1768577.71547   1358718.00747  21035431.3804   21035431.4274
     -2097.8124      -1634.6594
  -1547362.87146  -1174912.21645  22794225.7314   22794226.9744
       976.2974        760.7514
   4331027.40946   3285788.65645  23360298.1694   23360301.5324
     -3845.8444      -2996.7614
  -1377676.64946  -1049395.38645  22796260.7244   22796261.8134
       585.7194        456.4044
   1531297.92847   1193219.22247  21734038.7944   21734039.2864
     -1877.4374      -1462.9384
    595753.59743    437165.80841  25033195.7394   25033201.6104
     -1150.2194       -896.2744
   -959439.05147   -706431.87847  21206219.5914   21206221.3134
       247.4064        192.7844
 98  6 17 15 54 30.0010000  0  8G 2G 4G 5G 7G 8G 9G16G24
   4795290.76545   3692539.17243  24373545.3804   24373548.3454
     -4310.4224      -3358.7704
   1800147.20347   1383317.60747  21041438.7864   21041438.7284
     -2111.4844      -1645.3124
  -1561965.43746  -1186290.81645  22791447.1144   22791448.8254
       970.7194        756.4044
   4388746.38646   3330764.45145  23371282.0284   23371283.8684
     -3850.0164      -3000.0124
  -1386374.28246  -1056172.75745  22794605.9424   22794606.5174
       573.9534        447.2364
   1559555.81547   1215238.34747  21739416.0834   21739416.7284
     -1890.2664      -1472.9344
    613093.32643    450677.29342  25036494.3724   25036498.1574
     -1161.7504       -905.2604
   -963058.03347   -709251.84847  21205531.1774   21205532.8884
       235.1414        183.2264
 98  6 17 15 54 45.0010000  0  8G 2G 4G 5G 7G 8G 9G16G24
   4860018.09245   3742975.99043  24385862.5754   24385867.0404
     -4319.6724      -3365.9784
   1831930.20647   1408083.58747  21047486.8884   21047487.0754
     -2126.0784      -1656.6844
  -1576476.40446  -1197598.03645  22788685.3104   22788686.8214
       964.2504        751.3644
   4446536.80045   3375795.95445  23382278.9424   23382281.9544
     -3855.1874      -3004.0424
  -1394887.05746  -1062806.07245  22792985.8254   22792987.3964
       561.2504        437.3384
   1588014.42747   1237413.88447  21744831.4274   21744832.0834
     -1904.0784      -1483.6974
    630614.25143    464329.96442  25039828.5284   25039834.4814
     -1174.1414       -914.9154
   -966485.81247   -711922.83247  21204878.6304   21204880.3294
       222.0474        173.0244
 98  6 17 15 55  0.0010000  0  8G 2G 4G 5G 7G 8G 9G16G24
   4924879.27145   3793517.12544  24398204.7554   24398208.6344
     -4328.1094      -3372.5534
   1863927.97247   1433016.90847  21053575.6924   21053575.7744
     -2140.0004      -1667.5324
  -1590893.89246  -1208832.43145  22785942.5364   22785943.8604
       958.3594        746.7744
   4504401.03046   3420884.91945  23393290.4034   23393292.8994
     -3859.7814      -3007.6224
  -1403211.85946  -1069292.91545  22791401.6064   22791402.0524
       548.9694        427.7684
   1616677.93647   1259749.07247  21750285.9194   21750286.5994
     -1917.4534      -1494.1194
    648316.06143    478123.60642  25043197.4114   25043202.2744
     -1185.8444       -924.0344
   -969720.11947   -714443.05647  21204263.0444   21204264.7314
       209.5004        163.2474
 98  6 17 15 55 15.0010000  0  8G 2G 4G 5G 7G 8G 9G16G24
   4989865.21945   3844155.49043  24410571.4034   24410576.1854
     -4336.5004      -3379.0914
   1896133.42147   1458112.07147  21059704.3104   21059704.4744
     -2153.8594      -1678.3324
  -1605221.19346  -1219996.56545  22783216.1224   22783217.4234
       952.0474        741.8554
   4562333.53446   3466027.10845  23404314.4974   23404318.2594
     -3864.4064      -3011.2264
  -1411350.72846  -1075634.88245  22789853.1304   22789854.2084
       536.3594        417.9424
   1645541.06247   1282239.81047  21755778.4424   21755779.0634
     -1930.7974      -1504.5174
    666194.03944    492054.51142  25046598.9504   25046604.6574
     -1197.7344       -933.3004
   -972767.43647   -716817.57247  21203683.0444   21203684.7204
       196.9384        153.4584
 98  6 17 15 55 30.0010000  0  8G 2G 4G 5G 7G 8G 9G16G24
   5054978.20845   3894892.78343  24422961.9424   24422965.1534
     -4345.0624      -3385.7634
   1928548.74747   1483370.77047  21065872.5444   21065872.7674
     -2168.0164      -1689.3634
  -1619448.93046  -1231083.07945  22780508.5604   22780510.2944
       945.1414        736.4734
   4620338.21346   3511225.53745  23415352.3884   23415354.0994
     -3869.3124      -3015.0494
  -1419297.21146  -1081826.93245  22788340.4894   22788342.1774
       523.3594        407.8134
   1674606.69747   1304888.35147  21761309.6534   21761310.3334
     -1944.4374      -1515.1464
    684252.39444    506125.98743  25050036.2004   25050040.6654
     -1209.9064       -942.7844
   -975623.13647   -719042.77447  21203139.7784   21203141.5014
       184.0314        143.4014
 98  6 17 15 55 45.0010000  0  8G 2G 4G 5G 7G 8G 9G16G24
   5120215.96045   3945727.38743  24435375.5284   24435380.4154
     -4353.3594      -3392.2284
   1961173.39047   1508792.57147  21072081.1384   21072081.3134
     -2182.0164      -1700.2724
  -1633576.79446  -1242091.79245  22777819.8494   22777820.7514
       938.5474        731.3354
   4678410.28446   3556476.49445  23426403.6304   23426406.9114
     -3873.6564      -3018.4334
  -1427052.13946  -1087869.71645  22786864.7004   22786866.2714
       510.5314        397.8174
   1703871.92547   1327692.41947  21766878.4744   21766879.1184
     -1957.6874      -1525.4714
    702488.52545    520335.90943  25053506.9114   25053511.4704
     -1221.6254       -951.9164
   -978290.27747   -721121.04847  21202632.2634   21202633.9154
       171.5164        133.6494
 98  6 17 15 56  0.0010000  0  8G 2G 4G 5G 7G 8G 9G16G24
   5185579.70244   3996660.08743  24447814.3644   24447819.0054
     -4362.8284      -3399.6064
   1994009.85447   1534379.42647  21078329.7244   21078329.9814
     -2197.1874      -1712.0944
  -1647604.70246  -1253022.63545  22775150.2554   22775151.1694
       930.8284        725.3214
   4736549.01746   3601779.34945  23437466.7944   23437469.3964
     -3879.2664      -3022.8044
  -1434611.13646  -1093759.80745  22785426.3414   22785428.1344
       496.3134        386.7374
   1733339.42147   1350654.09247  21772485.8804   21772486.4784
     -1972.3284      -1536.8794
    720903.47245    534685.24043  25057010.8964   25057014.2124
     -1234.7034       -962.1064
   -980767.95447   -723051.68847  21202160.5604   21202162.2944
       157.7664        122.9344
 98  6 17 15 56 15.0010000  0  8G 2G 4G 5G 7G 8G 9G16G24
   5251070.56944   4047691.89143  24460277.2244   24460282.8374
     -4370.4224      -3405.5244
   2027058.75747   1560131.82447  21084618.7784   21084618.7904
     -2210.4844      -1722.4554
  -1661532.17246  -1263875.16345  22772499.6384   22772501.6304
       925.0474        720.8164
   4794759.50845   3647138.20845  23448543.2004   23448545.7784
     -3883.3444      -3025.9824
  -1441972.61946  -1099496.02245  22784025.9664   22784027.1494
       484.0004        377.1434
   1763012.62947   1373776.06747  21778132.7244   21778133.2284
     -1985.2814      -1546.9724
    739498.63145    549174.95143  25060549.7164   25060554.2744
     -1245.8594       -970.8004
   -983052.41647   -724831.77247  21201725.9424   21201727.5484
       145.7034        113.5354
 98  6 17 15 56 30.0010000  0  8G 2G 4G 5G 7G 8G 9G16G24
   5316687.80245   4098822.11843  24472764.1304   24472770.3294
     -4378.6724      -3411.9524
   2060320.39447   1586049.98747  21090948.2554   21090948.2784
     -2224.6254      -1733.4744
  -1675361.01746  -1274650.88545  22769868.5524   22769869.9354
       918.6254        715.8124
   4853046.09146   3692556.24445  23459635.5914   23459639.1424
     -3888.4534      -3029.9634
  -1449136.11646  -1105077.96445  22782662.8024   22782663.9034
       470.8914        366.9284
   1792894.01047   1397060.25447  21783818.9894   21783819.8104
     -1999.1254      -1557.7604
    758274.91045    563805.87443  25064122.5604   25064126.2984
     -1257.8754       -980.1624
   -985142.09447   -726460.07547  21201328.5524   21201330.2514
       132.7034        103.4054
 98  6 17 15 56 45.0010000  0  8G 2G 4G 5G 7G 8G 9G16G24
   5382427.24745   4150047.62643  24485273.7314   24485277.7284
     -4386.7504      -3418.2474
   2093793.07147   1612132.59847  21097317.8414   21097317.9234
     -2238.5314      -1744.3104
  -1689094.49946  -1285352.28845  22767255.3414   22767256.3254
       912.2664        710.8564
   4911409.96846   3738034.61145  23470741.6924   23470742.6424
     -3893.5474      -3033.9334
  -1456102.91446  -1110506.63345  22781336.5914   22781337.9154
       457.8134        356.7374
   1822983.02347   1420506.23247  21789544.8494   21789545.4464
     -2012.9224      -1568.5114
    777231.15545    578576.94943  25067729.8414   25067734.1064
     -1269.8124       -989.4644
   -987037.60847   -727937.08247  21200967.8174   21200969.5874
       119.9224         93.4464
 98  6 17 15 57  0.0010000  0  8G 2G 4G 5G 7G 8G 9G16G24
   5448290.49945   4201369.59543  24497806.1064   24497810.1264
     -4394.8284      -3424.5414
   2127476.66347   1638379.55247  21103727.5994   21103727.7634
     -2252.4374      -1755.1464
  -1702727.21346  -1295975.15845  22764660.9744   22764662.5914
       905.5634        705.6334
   4969852.35446   3783574.08645  23481863.0134   23481866.1774
     -3898.5314      -3037.8174
  -1462869.95946  -1115779.63645  22780048.8334   22780050.7554
       444.6414        346.4734
   1853283.11547   1444116.68847  21795310.8494   21795311.5874
     -2026.9224      -1579.4204
    796369.90745    593490.28043  25071371.6224   25071375.6654
     -1281.8594       -998.8514
   -988740.77347   -729264.21147  21200643.5754   21200645.2514
       107.3134         83.6204
 98  6 17 15 57 15.0010000  0  8G 2G 4G 5G 7G 8G 9G16G24
   5514263.47545   4252777.04943  24510361.1064   24510366.3804
     -4401.0944      -3429.4244
   2161358.66847   1664781.12347  21110174.9664   21110175.1064
     -2264.7344      -1764.7284
  -1716269.16346  -1306527.30745  22762083.7554   22762085.8534
       900.4844        701.6764
   5028357.50745   3829162.51145  23492995.2394   23492998.4274
     -3901.6724      -3040.2644
  -1469449.40646  -1120906.44545  22778797.0834   22778798.9354
       433.0784        337.4634
   1883781.80147   1467881.88747  21801114.3414   21801115.3494
     -2039.0944      -1588.9044
    815680.71244    608537.67442  25075045.5364   25075050.6464
     -1292.5314      -1007.1674
   -990266.02147   -730452.70247  21200353.4584   21200355.2044
        96.5474         75.2314
 98  6 17 15 57 30.0010000  0  8G 2G 4G 5G 7G 8G 9G16G24
   5580338.96444   4304264.37543  24522934.8724   24522940.6854
     -4408.8444      -3435.4634
   2195433.11247   1691332.63947  21116659.0914   21116659.3374
     -2278.4224      -1775.3944
  -1729727.74546  -1317014.50145  22759523.1854   22759523.9464
       894.1724        696.7574
   5086915.74046   3874792.24245  23504140.4664   23504142.4814
     -3905.9374      -3043.5884
  -1475849.73146  -1125893.70145  22777578.9424   22777579.9034
       420.4534        327.6264
   1914470.08947   1491794.83247  21806954.1614   21806955.0284
     -2052.6254      -1599.4484
    835160.14443    623716.46042  25078752.7084   25078756.8564
     -1304.5624      -1016.5424
   -991623.23847   -731510.25947  21200094.9664   21200096.5834
        84.4694         65.8204
 98  6 17 15 57 45.0010000  0  8G 2G 4G 5G 7G 8G 9G16G24
   5646533.44545   4355844.42843  24535531.1854   24535535.4744
     -4417.2344      -3442.0014
   2229714.75147   1718045.60647  21123182.7474   21123182.7944
     -2292.5944      -1786.4374
  -1743092.37546  -1327428.49445  22756979.3644   22756980.9354
       887.7194        691.7294
   5145538.80245   3920472.58045  23515294.4114   23515297.3764
     -3910.5474      -3047.1794
  -1482060.07746  -1130732.92245  22776397.0134   22776397.8804
       407.4534        317.4964
   1945364.15947   1515868.12347  21812833.1774   21812833.9624
     -2066.7194      -1610.4304
    854820.68143    639036.36642  25082494.0054   25082496.7944
     -1317.0314      -1026.2584
   -992796.59147   -732424.54847  21199871.7164   21199873.2864
        71.8284         55.9704
 98  6 17 15 58  0.0010000  0  8G 2G 4G 5G 7G 8G 9G16G24
   5712849.56545   4407519.30743  24548150.8724   24548155.6534
     -4424.9064      -3447.9794
   2264204.94947   1744921.09147  21129746.1384   21129746.3374
     -2306.1874      -1797.0294
  -1756364.94646  -1337770.70745  22754454.1924   22754455.4234
       881.8754        687.1754
   5204226.82546   3966203.44345  23526463.3334   23526465.1854
     -3914.6094      -3050.3454
  -1488078.11246  -1135422.28945  22775251.7714   22775252.7674
       394.9064        307.7194
   1976465.75447   1540103.13047  21818751.6224   21818752.3964
     -2080.2344      -1620.9624
    874666.06744    654500.34042  25086269.6064   25086274.3764
     -1329.1094      -1035.6704
   -993782.30047   -733192.61447  21199684.1694   21199685.9154
        59.5004         46.3644
 98  6 17 15 58 15.0010000  0  8G 2G 4G 5G 7G 8G 9G16G24
   5779280.77245   4459283.80243  24560792.5754   24560796.1264
     -4433.0784      -3454.3474
   2298899.44147   1771955.76347  21136348.1304   21136348.4584
     -2320.2504      -1807.9874
  -1769548.91646  -1348043.95345  22751945.4034   22751945.6614
       875.5004        682.2084
   5262976.78345   4011982.63845  23537642.7714   23537647.3064
     -3919.2194      -3053.9374
  -1493907.69846  -1139964.80145  22774142.6534   22774143.6614
       381.9384        297.6144
   2007770.85247   1564496.70447  21824708.6534   21824709.3804
     -2094.2194      -1631.8594
    894694.84644    670107.19442  25090081.8334   25090086.6034
     -1341.8284      -1045.5804
   -994582.49347   -733816.12647  21199532.0134   21199533.6184
        46.7194         36.4044
 98  6 17 15 58 30.0010000  0  8G 2G 4G 5G 7G 8G 9G16G24
   5845832.85244   4511142.51443  24573456.4424   24573461.5054
     -4440.3124      -3459.9844
   2333804.81147   1799154.75947  21142990.5674   21142990.8604
     -2333.6094      -1818.3974
  -1782638.19946  -1358243.37046  22749454.0914   22749455.6494
       869.8754        677.8254
   5321794.69846   4057814.71545  23548836.1144   23548837.5444
     -3922.9534      -3056.8474
  -1499544.21746  -1144356.89545  22773070.0134   22773071.0674
       369.7194        288.0934
   2039283.58947   1589052.07747  21830705.4814   21830705.9504
     -2107.2344      -1642.0014
    914912.99044    685861.57142  25093929.4744   25093933.5994
     -1353.7664      -1054.8824
   -995193.14647   -734291.94147  21199415.6464   21199417.2634
        34.9384         27.2244
 98  6 17 15 58 45.0010000  0  8G 2G 4G 5G 7G 8G 9G16G24
   5912492.43544   4563084.99443  24586141.3494   24586146.9744
     -4447.4224      -3465.5244
   2368910.68547   1826509.99047  21149670.8334   21149671.1854
     -2347.0004      -1828.8314
  -1795641.10646  -1368375.47846  22746980.1064   22746980.9744
       864.0314        673.2714
   5380667.49345   4103689.66645  23560038.3964   23560040.3174
     -3926.5474      -3059.6474
  -1504996.55846  -1148605.45545  22772032.3964   22772033.6964
       357.4534        278.5354
   2070989.73347   1613758.15847  21836738.9354   21836739.8134
     -2120.0944      -1652.0214
    935310.05445    701755.44743  25097810.6464   25097814.0564
     -1365.6724      -1064.1604
   -995627.58347   -734630.44947  21199332.9504   21199334.5444
        23.1414         18.0324
 98  6 17 15 59  0.0020000  0  8G 2G 4G 5G 7G 8G 9G16G24
   5979264.07945   4615114.77243  24598848.1274   24598855.8304
     -4456.2974      -3472.4394
   2404220.72147   1854024.31247  21156390.0724   21156390.5644
     -2362.0944      -1840.5934
  -1808556.36946  -1378439.31145  22744521.9794   22744523.2564
       856.4844        667.3904
   5439597.54846   4149609.11945  23571252.4084   23571255.8654
     -3931.6564      -3063.6284
  -1510265.12346  -1152710.81445  22771029.9004   22771031.3074
       343.5474        267.6994
   2102891.48547   1638616.65247  21842809.5724   21842810.5214
     -2134.6094      -1663.3324
    955888.09145    717790.29443  25101726.9634   25101731.2644
     -1379.2974      -1074.7774
   -995884.74147   -734830.81547  21199283.7684   21199285.3504
         9.7344          7.5854
 98  6 17 15 59 15.0020000  0  8G 2G 4G 5G 7G 8G 9G16G24
   6046143.62245   4667228.63543  24611575.0884   24611582.5454
     -4462.5944      -3477.3464
   2439733.20847   1881696.38447  21163147.9794   21163148.5294
     -2374.4844      -1850.2484
  -1821380.22046  -1388431.90446  22742082.4474   22742082.9284
       851.8134        663.7504
   5498580.02346   4195569.46945  23582476.8614   23582479.8384
     -3934.2814      -3065.6744
  -1515345.06446  -1156669.20045  22770063.2754   22770064.8694
       332.2034        258.8604
   2134987.48647   1663626.51647  21848917.2134   21848918.1744
     -2146.4064      -1672.5244
    976647.75245    733966.63543  25105677.4634   25105682.4084
     -1390.2344      -1083.3004
   -995960.53447   -734889.85747  21199269.5574   21199271.1394
        -1.2344         -0.9624
 98  6 17 15 59 30.0020000  0  8G 2G 4G 5G 7G 8G 9G16G24
   6113136.92345   4719431.17042  24624323.6894   24624328.5184
     -4469.3914      -3482.6424
   2475449.84247   1909527.53447  21169944.5414   21169945.0804
     -2387.2194      -1860.1704
  -1834117.02646  -1398356.69046  22739657.9634   22739659.5104
       846.9844        659.9884
   5557621.95246   4241576.16545  23593712.2214   23593714.2254
     -3937.5314      -3068.2064
  -1520236.29146  -1160480.53845  22769132.5104   22769133.9634
       320.5004        249.7404
   2167277.54047   1688787.58947  21855061.9004   21855062.8964
     -2158.4534      -1681.9124
    997589.29645    750284.76443  25109662.3544   25109666.9824
     -1401.4224      -1092.0174
   -995852.11747   -734805.35547  21199290.2604   21199291.8894
       -12.7034         -9.8994
 98  6 17 15 59 45.0020000  0  8G 2G 4G 5G 7G 8G 9G16G24
   6180240.04245   4771719.27042  24637093.1584   24637097.5764
     -4477.1874      -3488.7184
   2511362.81047   1937511.66947  21176778.5494   21176778.7484
     -2400.7194      -1870.6904
  -1846775.29546  -1408220.23345  22737249.7684   22737250.2364
       841.2344        655.5074
   5616721.10045   4287627.42145  23604957.7294   23604960.8224
     -3941.9534      -3071.6524
  -1524945.10646  -1164149.71745  22768235.9474   22768237.7874
       307.7504        239.8054
   2199755.64347   1714095.19947  21861242.3304   21861243.3964
     -2171.5474      -1692.1144
   1018702.88845    766736.89643  25113680.5184   25113685.1354
     -1413.2344      -1101.2224
   -995562.45947   -734579.63447  21199345.2994   21199346.9514
       -25.5164        -19.8824
 98  6 17 16  0  0.0020000  0  8G 2G 4G 5G 7G 8G 9G16G24
   6247457.85145   4824096.74143  24649884.5884   24649891.4944
     -4484.8444      -3494.6834
   2547475.96347   1965651.79847  21183650.6114   21183650.8574
     -2414.0944      -1881.1124
  -1859347.32046  -1418016.64846  22734857.4084   22734857.8304
       835.3134        650.8934
   5675887.08646   4333730.76945  23616217.1664   23616218.6894
     -3946.5784      -3075.2564
  -1529462.09646  -1167669.42445  22767376.7834   22767378.0964
       294.8134        229.7244
   2232428.89947   1739554.87047  21867459.9324   21867460.9514
     -2184.5944      -1702.2814
   1039992.98245    783326.59643  25117731.3144   25117735.8504
     -1425.1874      -1110.5364
   -995081.68947   -734204.99047  21199436.8614   21199438.5614
       -38.2664        -29.8174
 98  6 17 16  0 15.0020000  0  8G 2G 4G 5G 7G 8G 9G16G24
   6314783.91044   4876558.58043  24662696.1434   24662702.2834
     -4491.7034      -3500.0284
   2583785.43947   1993944.90047  21190560.2834   21190560.6234
     -2426.8914      -1891.0844
  -1871834.87246  -1427747.16745  22732480.6354   22732483.0844
       829.9224        646.6924
   5735117.74146   4379884.47945  23627488.6114   23627491.8464
     -3950.5784      -3078.3734
  -1533790.46146  -1171042.17745  22766553.1354   22766554.0724
       282.5944        220.2034
   2265292.13547   1765162.58247  21873713.5804   21873714.4124
     -2196.9374      -1711.8994
   1061455.22245    800050.42942  25121815.8934   25121820.2174
     -1436.1254      -1119.0584
   -994416.64047   -733686.75147  21199563.2214   21199564.7794
       -50.0944        -39.0344
 98  6 17 16  0 30.0020000  0  8G 2G 4G 5G 7G 8G 9G16G24
   6382218.29344   4929104.76343  24675527.6894   24675533.1974
     -4498.7814      -3505.5444
   2620289.91147   2022389.95047  21197506.9474   21197507.2054
     -2439.6094      -1900.9944
  -1884237.81146  -1437411.75746  22730120.6194   22730121.3574
       824.5634        642.5164
   5794413.39146   4426088.86845  23638772.4164   23638773.4594
     -3954.7664      -3081.6364
  -1537932.51646  -1174269.74745  22765764.9634   22765765.9364
       270.4534        210.7434
   2298345.43247   1790918.39547  21880003.2134   21880003.8814
     -2209.3594      -1721.5794
   1083083.51544    816903.67642  25125931.1974   25125933.4594
     -1446.8914      -1127.4474
   -993571.69247   -733028.33447  21199724.1664   21199725.6664
       -61.7974        -48.1534
 98  6 17 16  0 45.0020000  0  8G 2G 4G 5G 7G 8G 9G16G24
   6449756.29845   4981731.70043  24688380.0644   24688384.5884
     -4506.2664      -3511.3764
   2656982.39947   2050981.50747  21204489.2604   21204489.6004
     -2452.6094      -1911.1244
  -1896562.32946  -1447015.30545  22727774.7914   22727775.6464
       818.7194        637.9634
   5853770.31045   4472341.02745  23650066.9864   23650069.9044
     -3959.3754      -3085.2274
  -1541893.37846  -1177356.11445  22765011.0104   22765012.5334
       257.6884        200.7954
   2331582.30747   1816817.25147  21886327.9084   21886328.6004
     -2222.1724      -1731.5624
   1104871.93844    833881.70042  25130077.3694   25130080.3464
     -1458.1724      -1136.2384
   -992552.72147   -732234.31447  21199917.8854   21199919.4324
       -74.0314        -57.6874
 98  6 17 16  1  0.0020000  0  8G 2G 4G 5G 7G 8G 9G16G24
   6517408.80244   5034447.87343  24701253.8464   24701258.8504
     -4513.7974      -3517.2444
   2693868.23447   2079723.72247  21211508.4084   21211508.7834
     -2465.1874      -1920.9254
  -1908799.34946  -1456550.58346  22725446.7914   22725448.1624
       813.2504        633.7014
   5913196.25146   4518646.87745  23661375.4944   23661378.6824
     -3963.7974      -3088.6734
  -1545663.75846  -1180294.05445  22764293.8224   22764295.6394
       245.4064        191.2264
   2365011.95347   1842866.31947  21892689.4714   21892690.1744
     -2234.8124      -1741.4124
   1126830.33545    850992.14642  25134256.5334   25134261.4084
     -1469.3444      -1144.9434
   -991348.60547   -731296.02247  21200147.1274   21200148.8734
       -86.1724        -67.1474
 98  6 17 16  1 15.0020000  0  8G 2G 4G 5G 7G 8G 9G16G24
   6585180.89945   5087257.27543  24714151.1664   24714154.7994
     -4522.2194      -3523.8074
   2730946.82447   2108616.13447  21218564.3544   21218564.6824
     -2478.3594      -1931.1894
  -1920949.75346  -1466018.43446  22723134.5804   22723135.2014
       807.0164        628.8434
   5972693.25946   4565008.20045  23672697.9244   23672699.1894
     -3968.8914      -3092.6424
  -1549246.22146  -1183085.57045  22763611.9944   22763613.2604
       232.4844        181.1574
   2398635.56647   1869066.53147  21899088.0804   21899088.9364
     -2248.0784      -1751.7494
   1148962.30445    868237.80142  25138467.7294   25138469.4164
     -1481.3444      -1154.2944
   -989960.41347   -730214.30047  21200411.1584   21200412.7174
       -98.6564        -76.8754
 98  6 17 16  1 30.0020000  0  8G 2G 4G 5G 7G 8G 9G16G24
   6653073.75545   5140160.74142  24727070.8074   24727076.2444
     -4529.9064      -3529.7974
   2768218.17447   2137658.75347  21225656.4554   21225656.7834
     -2491.0004      -1941.0394
  -1933009.69146  -1475415.77446  22720839.8544   22720841.3894
       801.1724        624.2904
   6032261.41146   4611424.93945  23684033.0884   23684035.3504
     -3973.2814      -3096.0634
  -1552639.00246  -1185729.29045  22762966.0104   22762966.9594
       220.1414        171.5384
   2432453.50047   1895418.15947  21905523.3774   21905524.1504
     -2260.7814      -1761.6484
   1171270.17945    885620.62542  25142712.6744   25142715.2874
     -1492.8284      -1163.2434
   -988390.26647   -728990.79147  21200710.1434   21200711.6544
      -110.4534        -86.0674
 98  6 17 16  1 45.0020000  0  8G 2G 4G 5G 7G 8G 9G16G24
   6721086.40244   5193157.59642  24740012.8304   24740017.2604
     -4539.0474      -3536.9204
   2805686.53447   2166854.87747  21232786.4554   21232786.7484
     -2505.3914      -1952.2524
  -1944974.53846  -1484739.01846  22718562.8304   22718563.8384
       793.4844        618.3004
   6091900.42245   4657896.83545  23695381.7294   23695387.1074
     -3979.1414      -3100.6294
  -1555842.11346  -1188225.20745  22762356.7754   22762358.3574
       206.3134        160.7634
   2466468.59247   1921923.41947  21911995.9554   21911996.7874
     -2275.2344      -1772.9104
   1193757.65945    903143.35742  25146991.7754   25146988.9164
     -1506.1564      -1173.6284
   -986637.07347   -727624.65447  21201043.7914   21201045.2214
      -123.8914        -96.5384
 98  6 17 16  2  0.0020000  0  8G 2G 4G 5G 7G 8G 9G16G24
   6789207.17844   5246238.62743  24752975.8384   24752980.2794
     -4544.9374      -3541.5104
   2843342.45947   2196197.16747  21239952.0964   21239952.2954
     -2516.6874      -1961.0554
  -1956849.82046  -1493992.47546  22716302.8694   22716304.2754
       788.5944        614.4894
   6151598.49246   4704414.77545  23706742.7294   23706743.9244
     -3981.8284      -3102.7234
  -1558864.79346  -1190580.52245  22761781.6354   22761782.9124
       195.4384        152.2894
   2500673.79747   1948576.82147  21918505.1744   21918506.0764
     -2286.7194      -1781.8594
   1216418.27745    920801.02642  25151303.9244   25151307.0534
     -1516.5474      -1181.7254
   -984710.80747   -726123.64847  21201410.4554   21201411.9324
      -134.1254       -104.5134
 98  6 17 16  2 15.0020000  0  8G 2G 4G 5G 7G 8G 9G16G24
   6857441.55145   5299408.23643  24765960.2684   24765964.1704
     -4552.9534      -3547.7564
   2881193.03247   2225691.12347  21247154.8694   21247155.0924
     -2530.0314      -1971.4534
  -1968627.04246  -1503169.49046  22714062.1194   22714063.5144
       781.7974        609.1924
   6211359.34745   4750981.72645  23718113.6824   23718116.9164
     -3986.2034      -3106.1324
  -1561699.99846  -1192789.76045  22761241.9004   22761243.4594
       182.6884        142.3544
   2535074.37147   1975382.45847  21925051.1354   21925051.9324
     -2299.9694      -1792.1834
   1239259.84345    938599.62942  25155651.1274   25155654.4204
     -1528.9064      -1191.3564
   -982609.47147   -724486.22947  21201810.1194   21201811.8774
      -146.0004       -113.7664
 98  6 17 16  2 30.0020000  0  8G 2G 4G 5G 7G 8G 9G16G24
   6925800.93645   5352675.21043  24778969.8224   24778975.5644
     -4561.0944      -3554.0994
   2919247.72647   2255344.13747  21254396.6274   21254397.0024
     -2543.3444      -1981.8264
  -1980299.59046  -1512264.98746  22711840.5964   22711841.3344
       775.1094        603.9814
   6271188.39746   4797601.67045  23729500.2364   23729502.3344
     -3990.4694      -3109.4564
  -1564340.25646  -1194847.09545  22760739.5804   22760740.4474
       169.9224        132.4074
   2569677.31847   2002345.78747  21931635.8464   21931636.7014
     -2313.1874      -1802.4844
   1262289.92245    956545.12342  25160032.6354   25160035.2254
     -1541.2664      -1200.9864
   -980326.13447   -722706.99247  21202244.4474   21202246.0184
      -157.9374       -123.0684
 98  6 17 16  2 45.0020000  0  8G 2G 4G 5G 7G 8G 9G16G24
   6994279.83744   5406035.34143  24791999.4004   24792005.2834
     -4569.4064      -3560.5764
   2957499.08847   2285150.40147  21261675.4324   21261675.7254
     -2556.8444      -1992.3464
  -1991874.88746  -1521284.67646  22709638.0184   22709639.1894
       768.2814        598.6614
   6331078.59045   4844269.39445  23740895.2294   23740899.3774
     -3994.8444      -3112.8654
  -1566792.57746  -1196757.98145  22760272.9944   22760274.3184
       157.0314        122.3624
   2604475.19247   2029461.01047  21938257.6894   21938258.5924
     -2326.5164      -1812.8694
   1285505.20845    974634.99142  25164451.0494   25164454.1434
     -1554.1874      -1211.0554
   -977864.25847   -720788.63147  21202713.2754   21202714.8344
      -170.2974       -132.6994
 98  6 17 16  3  0.0020000  0  8G 2G 4G 5G 7G 8G 9G16G24
   7062877.63145   5459488.10242  24805053.8144   24805059.0764
     -4577.3284      -3566.7494
   2995947.86647   2315110.49447  21268992.1274   21268992.4794
     -2569.9844      -2002.5854
  -2003352.70746  -1530228.41146  22707453.7294   22707454.6894
       761.7814        593.5964
   6391027.19046   4890982.47545  23752304.8694   23752307.7994
     -3998.6254      -3115.8124
  -1569055.96046  -1198521.63145  22759842.5104   22759843.8934
       144.3914        112.5124
   2639468.35347   2056728.40147  21944916.8304   21944917.8964
     -2339.5624      -1823.0364
   1308910.49845    992872.84842  25168904.9864   25168907.9754
     -1566.8594      -1220.9294
   -975221.79447   -718729.55147  21203215.9244   21203217.4474
      -182.4224       -142.1474
 98  6 17 16  3 15.0020000  0  8G 2G 4G 5G 7G 8G 9G16G24
   7131596.95645   5513035.56643  24818130.8144   24818133.9434
     -4585.2664      -3572.9344
   3034597.28847   2345226.92747  21276346.7994   21276347.1624
     -2583.3914      -2013.0324
  -2014731.81946  -1539095.24746  22705288.2214   22705289.4394
       755.3594        588.5924
   6451035.21246   4937742.03545  23763723.0254   23763723.3544
     -4002.5164      -3118.8434
  -1571128.01146  -1200136.21345  22759448.2444   22759449.5684
       131.7504        102.6624
   2674658.43747   2084149.24247  21951613.2444   21951614.3114
     -2352.5314      -1833.1414
   1332507.45344   1011260.09042  25173394.4554   25173397.3384
     -1579.4694      -1230.7554
   -972394.10147   -716526.13747  21203754.0884   21203755.5534
      -194.7194       -151.7294
 98  6 17 16  3 30.0020000  0  8G 2G 4G 5G 7G 8G 9G16G24
   7200436.43244   5566676.64842  24831230.1744   24831234.8964
     -4593.1414      -3579.0714
   3073450.65147   2375502.28047  21283740.6744   21283741.0844
     -2596.9694      -2023.6124
  -2026011.91646  -1547884.91246  22703141.9084   22703143.1274
       748.7664        583.4544
   6511103.43546   4984548.39045  23775154.1824   23775158.4364
     -4006.5314      -3121.9724
  -1573005.73046  -1201599.36445  22759090.8144   22759091.6704
       118.6094         92.4234
   2710045.01447   2111723.18747  21958347.2754   21958348.2364
     -2365.6254      -1843.3444
   1356294.77144   1029795.68542  25177921.1584   25177926.9944
     -1592.0624      -1240.5684
   -969377.95447   -714175.87647  21204328.0334   21204329.6504
      -207.4844       -161.6764
 98  6 17 16  3 45.0020000  0  8G 2G 4G 5G 7G 8G 9G16G24
   7269389.60044   5620406.38943  24844350.8144   24844354.8224
     -4600.7034      -3584.9634
   3112505.36947   2405934.53347  21291172.4394   21291172.7324
     -2610.3914      -2034.0714
  -2037198.19746  -1556601.47846  22701013.0494   22701014.3964
       742.7664        578.7784
   6571230.76246   5031400.82345  23786595.2834   23786597.8504
     -4010.5314      -3125.0894
  -1574688.15946  -1202910.34445  22758770.4244   22758771.7954
       105.6094         82.2934
   2745625.63047   2139448.33847  21965117.7214   21965118.5884
     -2378.5164      -1853.3894
   1380267.48644   1048475.72142  25182482.3464   25182486.3074
     -1604.4064      -1250.1874
   -966169.63247   -711675.86747  21204938.2914   21204939.7794
      -220.3914       -171.7334
 98  6 17 16  4  0.0020000  0  8G 2G 4G 5G 7G 8G 9G16G24
   7338458.27644   5674226.11143  24857495.1114   24857499.7644
     -4608.2034      -3590.8084
   3151762.12147   2436524.21647  21298642.7294   21298642.9164
     -2623.4844      -2044.2744
  -2048293.55046  -1565247.18346  22698901.5024   22698902.7564
       736.8914        574.2004
   6631420.70345   5078302.04945  23798049.2754   23798052.8264
     -4014.4844      -3128.1704
  -1576171.93546  -1204066.51245  22758488.4794   22758490.1194
        92.4694         72.0544
   2781401.48147   2167325.61947  21971925.8934   21971926.7364
     -2391.2974      -1863.3484
   1404427.51844   1067301.75942  25187080.4554   25187087.1824
     -1616.6414      -1259.7204
   -962764.88447   -709022.80647  21205586.2214   21205587.6864
      -233.2344       -181.7414
 98  6 17 16  4 15.0020000  0  8G 2G 4G 5G 7G 8G 9G16G24
   7407637.41144   5728131.82043  24870660.1744   24870665.5294
     -4615.7664      -3596.7004
   3191211.95347   2467264.35447  21306149.5644   21306149.8344
     -2636.5314      -2054.4404
  -2059304.55646  -1573827.17246  22696806.2294   22696807.6354
       731.2344        569.7934
   6691666.62746   5125246.87945  23809514.5254   23809516.3304
     -4018.3284      -3131.1654
  -1577461.15046  -1205071.08845  22758243.1114   22758244.2954
        79.3754         61.8514
   2817365.01747   2195349.15147  21978769.5724   21978770.4754
     -2403.8914      -1873.1624
   1428766.56844   1086267.27742  25191711.9164   25191715.2324
     -1628.6254      -1269.0584
   -959171.13547   -706222.46647  21206270.2524   21206271.7874
      -246.0164       -191.7004
 98  6 17 16  4 30.0020000  0  8G 2G 4G 5G 7G 8G 9G16G24
   7476929.84244   5782125.85643  24883846.0574   24883850.6504
     -4623.0624      -3602.3864
   3230856.04847   2498155.86247  21313693.7054   21313693.9864
     -2649.1874      -2064.3024
  -2070233.74946  -1582343.41346  22694726.6434   22694727.8854
       726.1094        565.8004
   6751969.08645   5172235.81745  23820988.7214   23820991.1934
     -4021.8914      -3133.9414
  -1578557.24046  -1205925.17345  22758033.9324   22758035.0574
        66.9224         52.1474
   2853516.33847   2223519.00347  21985648.9864   21985649.7604
     -2416.1564      -1882.7194
   1453284.80844   1105372.39942  25196377.3854   25196382.5414
     -1640.3754      -1278.2144
   -955385.00347   -703272.21847  21206990.7604   21206992.2134
      -258.6724       -201.5624
 98  6 17 16  4 45.0020000  0  8G 2G 4G 5G 7G 8G 9G16G24
   7546332.52244   5836205.80842  24897052.1504   24897056.1584
     -4630.5004      -3608.1824
   3270692.53947   2529197.28447  21321274.2994   21321274.5104
     -2662.2344      -2074.4684
  -2081082.59646  -1590797.04346  22692662.1824   22692663.4824
       720.4844        561.4164
   6812328.54746   5219269.11545  23832475.5964   23832477.3304
     -4025.9534      -3137.1064
  -1579465.38546  -1206632.81345  22757861.4634   22757862.6584
        54.2344         42.2614
   2889854.49747   2251834.44547  21992564.0494   21992564.9514
     -2428.8914      -1892.6424
   1477982.12844   1124617.09942  25201076.7994   25201082.1314
     -1652.5474      -1287.6994
   -951406.01547   -700171.69147  21207748.0644   21207749.6114
      -271.7664       -211.7654
 98  6 17 16  5  0.0020000  0  8G 2G 4G 5G 7G 8G 9G16G24
   7615844.21143   5890370.71742  24910279.3934   24910284.3614
     -4637.6564      -3613.7584
   3310722.31847   2560389.32247  21328891.6504   21328891.9434
     -2674.9534      -2084.3794
  -2091847.93046  -1599185.58746  22690613.3614   22690615.0614
       715.0164        557.1554
   6872746.53246   5266348.05345  23843972.4794   23843975.1624
     -4029.6564      -3139.9924
  -1580184.43846  -1207193.08245  22757724.5104   22757726.0454
        41.7194         32.5084
   2926383.32647   2280298.46047  21999514.9394   21999515.9124
     -2441.4844      -1902.4554
   1502860.94544   1144003.23442  25205812.2134   25205815.4594
     -1664.5164      -1297.0254
   -947233.56747   -696920.41847  21208541.9004   21208543.3544
      -284.3914       -221.6034
 98  6 17 16  5 15.0020000  0  8G 2G 4G 5G 7G 8G 9G16G24
   7685462.58744   5944618.71243  24923528.5804   24923533.9714
     -4644.8914      -3619.3954
   3350942.59347   2591729.80547  21336545.3144   21336545.6314
     -2687.8124      -2094.3994
  -2102531.70346  -1607510.59846  22688580.3774   22688581.7254
       709.4064        552.7844
   6933219.89446   5313470.11245  23855480.0334   23855482.9754
     -4033.5314      -3143.0114
  -1580714.98946  -1207606.49245  22757623.4554   22757624.7444
        28.9534         22.5614
   2963098.83547   2308907.94047  22006501.7834   22006502.8734
     -2453.9224      -1912.1474
   1527917.51544   1163527.78043  25210580.3304   25210584.6664
     -1676.3444      -1306.2424
   -942872.75047   -693522.36547  21209371.8074   21209373.3424
      -297.0784       -231.4894
 98  6 17 16  5 30.0020000  0  8G 2G 4G 5G 7G 8G 9G16G24
   7755191.07744   5998952.60342  24936797.4324   24936804.1234
     -4652.3444      -3625.2034
   3391357.80347   2623222.17747  21344236.1824   21344236.4864
     -2701.0004      -2104.6754
  -2113128.78146  -1615768.04646  22686563.7914   22686565.2914
       703.3444        548.0604
   6993754.40246   5360639.85345  23866999.7294   23867001.8614
     -4037.8754      -3146.3964
  -1581053.61846  -1207870.35845  22757559.4864   22757560.9514
        16.0784         12.5284
   3000002.74947   2337664.23147  22013524.4794   22013525.4284
     -2466.8284      -1922.2044
   1553153.13145   1183191.91643  25215382.9244   25215388.5494
     -1688.5474      -1315.7514
   -938322.26047   -689976.51247  21210237.7754   21210239.2174
      -309.7664       -241.3764
 98  6 17 16  5 45.0020000  0  8G 2G 4G 5G 7G 8G 9G16G24
   7825033.54044   6053375.22042  24950086.9004   24950093.7834
     -4659.6254      -3630.8774
   3431972.27947   2654869.82747  21351964.6274   21351964.9084
     -2713.8594      -2114.6964
  -2123630.81546  -1623951.42546  22684565.5964   22684566.6624
       697.3594        543.3974
   7054356.62345   5407862.34045  23878531.1664   23878534.8114
     -4041.9844      -3149.5984
  -1581197.58446  -1207982.52645  22757531.4944   22757532.9364
         3.5944          2.8004
   3037104.54547   2366574.71547  22020584.8854   22020585.7054
     -2479.7034      -1932.2364
   1578572.83245   1202999.45242  25220220.1824   25220225.2214
     -1700.4064      -1324.9924
   -933581.67847   -686282.53547  21211139.7134   21211141.3544
      -321.8754       -250.8124
 98  6 17 16  6  0.0020000  0  8G 2G 4G 5G 7G 8G 9G16G24
   7894986.44043   6107883.89042  24963399.4634   24963404.4084
     -4667.8124      -3637.2564
   3472780.68247   2686668.59047  21359730.4324   21359730.8184
     -2727.6414      -2125.4344
  -2134041.70446  -1632063.80946  22682583.9164   22682585.4394
       690.3284        537.9184
   7115019.82146   5455132.30745  23890075.7754   23890079.3854
     -4046.7194      -3153.2874
  -1581155.17146  -1207949.46745  22757539.8694   22757541.3814
        -9.6094         -7.4884
   3074401.03547   2395636.90747  22027681.9714   22027682.6974
     -2493.5314      -1943.0114
   1604172.27045   1222947.04843  25225091.7054   25225095.5724
     -1713.2194      -1334.9764
   -928661.58547   -682448.68147  21212075.9944   21212077.6704
      -334.4534       -260.6134
 98  6 17 16  6 15.0020000  0  8G 2G 4G 5G 7G 8G 9G16G24
   7965039.10343   6162470.32742  24976729.9164   24976735.9634
     -4673.9694      -3642.0544
   3513771.71747   2718609.65547  21367530.7684   21367531.1434
     -2739.2344      -2134.4684
  -2144367.16746  -1640109.59346  22680619.6354   22680620.6784
       685.0164        533.7784
   7175727.94146   5502437.34545  23901627.6354   23901629.7914
     -4049.1094      -3155.1504
  -1580939.23546  -1207781.18045  22757580.9324   22757582.5024
       -20.5474        -16.0114
   3111881.74747   2424842.65747  22034814.4394   22034815.0844
     -2505.2814      -1952.1674
   1629938.71345   1243024.77642  25229993.9794   25229997.8224
     -1723.6564      -1343.1094
   -923579.00747   -678488.21447  21213043.0884   21213044.8224
      -344.6414       -268.5514
 98  6 17 16  6 30.0020000  0  8G 2G 4G 5G 7G 8G 9G16G24
   8035206.48544   6217146.11942  24990081.5574   24990086.0214
     -4681.9224      -3648.2514
   3554958.29047   2750703.09547  21375368.1114   21375368.3814
     -2752.5624      -2144.8544
  -2154593.49246  -1648078.15746  22678673.1274   22678674.0414
       678.2504        528.5064
   7236492.85645   5549786.60745  23913190.7134   23913195.1194
     -4053.1724      -3158.3164
  -1580539.98446  -1207470.07545  22757656.7684   22757658.5374
       -32.9694        -25.6904
   3149558.40847   2454201.08947  22041984.0024   22041984.7054
     -2518.5474      -1962.5044
   1655881.22145   1263239.72543  25234931.3384   25234935.2754
     -1735.6094      -1352.4234
   -918321.93847   -674391.78147  21214043.6434   21214045.2834
      -356.5474       -277.8294
 98  6 17 16  6 45.0020000  0  8G 2G 4G 5G 7G 8G 9G16G24
   8105495.49144   6271916.69942  25003457.7914   25003464.0254
     -4689.8284      -3654.4124
   3596348.29547   2782955.04947  21383244.4944   21383244.8814
     -2766.0004      -2155.3254
  -2164713.70546  -1655964.00646  22676747.7524   22676749.3224
       671.1884        523.0034
   7297323.64246   5597187.16745  23924766.7684   23924770.0254
     -4057.4844      -3161.6764
  -1579950.28246  -1207010.55645  22757768.9004   22757770.2014
       -45.6724        -35.5884
   3187437.75847   2483717.46147  22049192.4634   22049193.0844
     -2531.9064      -1972.9144
   1682007.18845   1283597.62443  25239902.8544   25239907.0254
     -1747.6874      -1361.8344
   -912884.59547   -670154.87147  21215078.2524   21215079.8934
      -368.2814       -286.9724
 98  6 17 16  7  0.0020000  0  8G 2G 4G 5G 7G 8G 9G16G24
   8175904.04244   6326780.44942  25016856.4394   25016861.2094
     -4697.8124      -3660.6334
   3637941.31047   2815365.19147  21391159.5884   21391159.8114
     -2779.5164      -2165.8564
  -2174725.87246  -1663765.69246  22674842.6664   22674843.4044
       663.9844        517.3904
   7358219.13445   5644638.21545  23936354.4474   23936356.8034
     -4061.7504      -3165.0004
  -1579164.86346  -1206398.53045  22757918.6584   22757920.0414
       -58.9534        -45.9374
   3225518.53247   2513390.78447  22056438.8694   22056439.7954
     -2545.3284      -1983.3734
   1708314.74945   1304097.06143  25244908.2914   25244912.3814
     -1759.7974      -1371.2704
   -907271.00247   -665780.62847  21216146.6274   21216148.1974
      -380.0474       -296.1404
 98  6 17 16  7 15.0020000  0  8G 2G 4G 5G 7G 8G 9G16G24
   8246430.82144   6381736.34042  25030277.4324   25030284.7484
     -4705.7034      -3666.7824
   3679734.84847   2847931.58847  21399112.4004   21399112.7294
     -2792.9374      -2176.3154
  -2184632.19946  -1671484.89046  22672957.0494   22672958.3854
       656.9224        511.8874
   7419176.85945   5692137.71145  23947954.7214   23947956.6894
     -4065.9844      -3168.3004
  -1578180.91146  -1205631.81345  22758105.8854   22758106.8574
       -72.2344        -56.2874
   3263796.70347   2543217.92047  22063722.8074   22063723.7214
     -2558.3444      -1993.5154
   1734801.48944   1324736.06843  25249948.4944   25249952.4324
     -1771.6874      -1380.5364
   -901482.88847   -661270.39747  21217247.8854   21217249.3854
      -391.6874       -305.2114
 98  6 17 16  7 30.0020000  0  8G 2G 4G 5G 7G 8G 9G16G24
   8317077.48343   6436785.62842  25043720.8464   25043725.5214
     -4713.8914      -3673.1624
   3721732.51247   2880657.03947  21407104.2684   21407104.5614
     -2806.8124      -2187.1274
  -2194430.50846  -1679119.92646  22671092.9394   22671094.1704
       649.4384        506.0554
   7480201.59545   5739689.42045  23959567.4864   23959569.6784
     -4070.7344      -3172.0014
  -1576996.47446  -1204708.86345  22758331.1824   22758332.3774
       -85.7814        -66.8434
   3302271.87847   2573198.57247  22071044.3934   22071045.1194
     -2571.8124      -2004.0104
   1761466.95644   1345514.36643  25255023.4244   25255028.3694
     -1783.7814      -1389.9594
   -895516.66947   -656621.37947  21218383.1504   21218384.6394
      -403.9224       -314.7444
 98  6 17 16  7 45.0020000  0  8G 2G 4G 5G 7G 8G 9G16G24
   8387848.10043   6491931.52042  25057186.9394   25057193.8114
     -4721.9374      -3679.4324
   3763939.11447   2913545.30347  21415135.9714   21415136.1234
     -2820.4374      -2197.7444
  -2204114.64746  -1686665.98546  22669249.7754   22669251.9554
       642.0474        500.2964
   7541299.37845   5787298.05945  23971193.9394   23971197.3144
     -4075.3444      -3175.5934
  -1575606.81446  -1203626.00045  22758595.8074   22758597.4594
       -99.2974        -77.3744
   3340952.97547   2603339.68147  22078405.3304   22078405.9634
     -2585.4224      -2014.6144
   1788317.00844   1366436.51343  25260132.1434   25260137.8504
     -1795.9844      -1399.4684
   -889364.48647   -651827.45247  21219554.1434   21219555.8544
      -416.1724       -324.2904
 98  6 17 16  8  0.0020000  0  8G 2G 4G 5G 7G 8G 9G16G24
   8458736.11244   6547168.83043  25070677.7524   25070684.1044
     -4729.6414      -3685.4344
   3806345.94247   2946589.58247  21423205.7054   21423206.0454
     -2833.6564      -2208.0444
  -2213692.53146  -1694129.25646  22667427.2684   22667427.3504
       635.1724        494.9394
   7602461.59446   5834956.90145  23982832.5964   23982835.6074
     -4079.4694      -3178.8074
  -1574014.99746  -1202385.61545  22758898.7364   22758899.9904
      -112.8444        -87.9304
   3379832.97147   2633635.77547  22085803.9394   22085804.4904
     -2598.4064      -2024.7324
   1815346.73144   1387498.62143  25265276.1044   25265281.0724
     -1807.9374      -1408.7824
   -883030.14347   -646891.58747  21220759.2604   21220761.1464
      -428.3594       -333.7874
 98  6 17 16  8 15.0020000  0  8G 2G 4G 5G 7G 8G 9G16G24
   8529734.64645   6602492.29943  25084189.2604   25084195.5294
     -4737.1254      -3691.2664
   3848946.51847   2979784.83947  21431312.2834   21431312.6354
     -2846.7034      -2218.2104
  -2223171.46446  -1701515.44346  22665623.2294   22665624.7174
       628.3594        489.6314
   7663681.71745   5882660.87645  23994481.6894   23994486.1314
     -4083.5474      -3181.9854
  -1572222.85146  -1200989.11845  22759239.6584   22759241.6744
      -126.4224        -98.5114
   3418902.53347   2664079.58647  22093238.5254   22093239.0764
     -2611.1564      -2034.6674
   1842552.48944   1408697.88842  25270453.1664   25270457.8424
     -1819.8284      -1418.0484
   -876515.27247   -641815.04547  21221999.0024   21222000.7134
      -440.6254       -343.3444
 98  6 17 16  8 30.0020000  0  8G 2G 4G 5G 7G 8G 9G16G24
   8600846.76644   6657904.23642  25097720.4164   25097724.7994
     -4744.4694      -3696.9894
   3891742.75747   3013132.56147  21439456.4714   21439456.8224
     -2859.4844      -2228.1704
  -2232547.79946  -1708821.62946  22663839.3464   22663840.2484
       621.8594        484.5664
   7724966.37445   5930415.06945  24006145.0024   24006147.4754
     -4087.8124      -3185.3084
  -1570226.57846  -1199433.57946  22759619.2604   22759620.3964
      -139.8124       -108.9454
   3458163.23047   2694672.33147  22100709.4794   22100710.1114
     -2623.5624      -2044.3344
   1869937.35945   1430036.81942  25275664.1504   25275668.0184
     -1831.5944      -1427.2164
   -869814.31647   -636593.50247  21223274.0254   21223275.6434
      -452.9374       -352.9384
 98  6 17 16  8 45.0020000  0  8G 2G 4G 5G 7G 8G 9G16G24
   8672067.85644   6713401.13842  25111274.2444   25111278.1704
     -4751.4374      -3702.4194
   3934730.87047   3046629.79647  21447636.7214   21447637.1434
     -2872.0944      -2237.9954
  -2241826.95346  -1716052.16046  22662073.0184   22662073.9084
       615.4534        479.5744
   7786315.55045   5978219.66445  24017819.4634   24017820.8224
     -4091.9374      -3188.5234
  -1568028.82646  -1197721.04045  22760037.3384   22760038.6274
      -153.0944       -119.2944
   3497609.28147   2725409.50547  22108215.8464   22108216.2914
     -2635.7814      -2053.8564
   1897502.25444   1451515.89342  25280909.6194   25280914.5764
     -1843.6254      -1436.5914
   -862926.31547   -631226.21447  21224584.7914   21224586.5374
      -465.2664       -362.5454
 98  6 17 16  9  0.0020000  0  8G 2G 4G 5G 7G 8G 9G16G24
   8743392.93044   6768979.04842  25124846.1504   25124851.3074
     -4758.4374      -3707.8734
   3977908.43247   3080274.64547  21455853.0574   21455853.5144
     -2884.8124      -2247.9064
  -2251006.98246  -1723205.39246  22660326.6044   22660328.1504
       608.7194        474.3264
   7847727.23545   6026072.89845  24029505.3304   24029509.9244
     -4096.1254      -3191.7864
  -1565629.33646  -1195851.28845  22760494.2214   22760495.7794
      -166.7034       -129.8994
   3537240.05747   2756290.62147  22115757.3614   22115757.9244
     -2648.2194      -2063.5474
   1925250.17344   1473137.70942  25286190.1504   25286195.2834
     -1855.9844      -1446.2224
   -855851.24147   -625713.15247  21225931.1974   21225932.8384
      -478.0314       -372.4924
 98  6 17 16  9 15.0020000  0  8G 2G 4G 5G 7G 8G 9G16G24
   8814820.27344   6824636.61442  25138438.9324   25138443.6074
     -4765.0784      -3713.0484
   4021273.95547   3114065.96647  21464105.2054   21464105.6394
     -2897.1414      -2257.5124
  -2260089.50546  -1730282.67346  22658598.0184   22658599.3544
       602.3754        469.3834
   7909198.26745   6073972.34345  24041203.1664   24041206.0254
     -4099.9374      -3194.7564
  -1563030.74146  -1193826.40646  22760988.5254   22760990.1894
      -179.6254       -139.9684
   3577055.18847   2787315.39047  22123333.9324   22123334.4474
     -2660.3444      -2072.9954
   1953181.34944   1494902.19442  25291504.9864   25291510.5184
     -1868.0784      -1455.6454
   -848584.28547   -620050.57347  21227314.1664   21227315.7254
      -490.7974       -382.4394
 98  6 17 16  9 30.0020000  0  8G 2G 4G 5G 7G 8G 9G16G24
   8886346.54444   6880371.34341  25152050.2054   25152055.9824
     -4771.9064      -3718.3694
   4064823.54047   3148000.70447  21472392.4004   21472392.9164
     -2909.5944      -2267.2164
  -2269077.00546  -1737285.91646  22656888.0724   22656888.7874
       595.8134        464.2694
   7970727.01545   6121916.83144  24052910.6824   24052913.2714
     -4103.9844      -3197.9104
  -1560240.54146  -1191652.20446  22761519.6044   22761520.9984
      -192.4844       -149.9884
   3617051.70047   2818481.49347  22130944.9474   22130945.4634
     -2672.6874      -2082.6144
   1981293.71344   1516807.87242  25296855.3544   25296862.0574
     -1880.3444      -1465.2034
   -841126.23647   -614239.08847  21228733.1354   21228734.7524
      -503.7974       -392.5694
 98  6 17 16  9 45.0020000  0  8G 2G 4G 5G 7G 8G 9G16G24
   8957974.74344   6936185.45142  25165680.3304   25165686.1664
     -4778.8284      -3723.7624
   4108559.08047   3182080.34447  21480714.8384   21480715.0614
     -2922.0474      -2276.9204
  -2277966.03846  -1744212.41546  22655196.1744   22655197.7684
       589.1094        459.0464
   8032315.05446   6169907.45645  24064632.0104   24064635.8894
     -4107.9844      -3201.0274
  -1557257.52446  -1189327.76646  22762087.3384   22762088.8734
      -205.5474       -160.1664
   3657234.67947   2849792.90047  22138591.7604   22138592.3574
     -2685.2814      -2092.4274
   2009591.49944   1538858.17242  25302239.6434   25302245.5964
     -1893.0004      -1475.0654
   -833471.98447   -608274.72047  21230189.9324   21230191.3964
      -517.0314       -402.8814
 98  6 17 16 10  0.0020000  0  8G 2G 4G 5G 7G 8G 9G16G24
   9029706.27044   6992080.10143  25179330.7684   25179336.1004
     -4785.5314      -3728.9854
   4152480.00147   3216304.43847  21489072.9474   21489073.1704
     -2934.2504      -2286.4294
  -2286756.22346  -1751061.89746  22653523.5644   22653524.0924
       582.7664        454.1034
   8093961.09746   6217943.33445  24076362.2364   24076364.1354
     -4111.6414      -3203.8764
  -1554079.47846  -1186851.35746  22762692.2214   22762693.6744
      -218.3124       -170.1144
   3697604.85647   2881250.16947  22146273.9084   22146274.3074
     -2697.5004      -2101.9484
   2038078.14144   1561055.56542  25307660.4244   25307664.7714
     -1905.3284      -1484.6714
   -825620.25947   -602156.47847  21231683.9164   21231685.4044
      -530.0164       -412.9994
 98  6 17 16 10 15.0020000  0  8G 4G 5G 7G 8G 9G16G30G24
   4196586.64147   3250673.24647  21497466.0104   21497466.3264
     -2946.7814      -2296.1934
  -2295448.77246  -1757835.30646  22651869.5414   22651870.9364
       576.1414        448.9414
   8155663.27445   6266022.91245  24088103.5254   24088108.1074
     -4115.3914      -3206.7984
  -1550710.58346  -1184226.22846  22763333.2294   22763334.6824
      -230.9694       -179.9764
   3738157.87447   2912849.91947  22153990.7994   22153991.3734
     -2709.7194      -2111.4694
   2066750.15744   1583397.37042  25313116.5644   25313121.4984
     -1917.7034      -1494.3144
    -13855.26852                  25423170.9394
      1384.4694
   -817572.06247   -595885.13847  21233215.7364   21233217.1784
      -543.1414       -423.2264
 98  6 17 16 10 30.0020000  0  8G 4G 5G 7G 8G 9G16G30G24
   4240885.77947   3285192.05247  21505895.9634   21505896.2214
     -2959.9064      -2306.4204
  -2304037.94846  -1764528.14146  22650235.0494   22650236.5144
       568.9534        443.3404
   8217424.49845   6314148.51945  24099856.7294   24099859.6824
     -4119.6094      -3210.0854
  -1547150.54746  -1181452.16945  22764010.5024   22764011.9084
      -243.8444       -190.0084
   3778898.34047   2944595.73247  22161743.2914   22161744.0064
     -2722.5004      -2121.4294
   2095610.07745   1605885.65042  25318609.0334   25318610.7094
     -1930.4224      -1504.2254
    -34597.87142                  25419224.8854
      1381.1094
   -809325.57547   -589459.28547  21234784.7444   21234786.2444
      -556.5474       -433.6734
 98  6 17 16 10 45.0020000  0  8G 4G 5G 7G 8G 9G16G30G24
   4285383.04947   3319865.24547  21514363.6354   21514363.8224
     -2973.1564      -2316.7454
  -2312518.92746  -1771136.70346  22648621.3464   22648622.5184
       561.8284        437.7884
   8279250.08945   6362324.29345  24111621.3774   24111625.4084
     -4123.8124      -3213.3604
  -1543395.84746  -1178526.41646  22764725.0104   22764726.4754
      -256.8594       -200.1504
   3819831.34247   2976491.57247  22169532.6434   22169533.2754
     -2735.2814      -2131.3884
   2124661.87445   1628523.35742  25324136.9084   25324139.1354
     -1943.2504      -1514.2214
    -55290.41243                  25415286.5334
      1377.8444
   -800876.04347   -582875.22247  21236392.6114   21236394.0534
      -570.1564       -444.2784
 98  6 17 16 11  0.0020000  0  8G 4G 5G 7G 8G 9G16G30G24
   4330076.27947   3354691.13947  21522868.4324   21522868.6664
     -2985.9374      -2326.7054
  -2320896.87146  -1777664.94846  22647026.7684   22647027.9984
       555.2974        432.6994
   8341134.40945   6410545.79245  24123398.2524   24123400.5374
     -4127.4534      -3216.1974
  -1539449.60046  -1175451.41746  22765475.6894   22765477.3074
      -269.3284       -209.8664
   3860953.71947   3008534.97447  22177358.0804   22177358.6544
     -2747.6724      -2141.0434
   2153903.07445   1651308.72242  25329701.7054   25329705.5724
     -1955.4534      -1523.7304
    -75936.71343                  25411357.9474
      1375.0634
   -792226.49947   -576135.30147  21238038.6504   21238040.0574
      -583.0474       -454.3224
 98  6 17 16 11 15.0020000  0  8G 4G 5G 7G 8G 9G16G30G24
   4374967.22447   3389671.08947  21531410.7994   21531411.1864
     -2999.5004      -2337.2734
  -2329173.66646  -1784114.39046  22645451.5644   22645452.4434
       548.3594        427.2934
   8403080.03345   6458815.13345  24135186.0334   24135188.4244
     -4131.8914      -3219.6554
  -1535308.99746  -1172224.97645  22766263.9084   22766265.3504
      -282.6414       -220.2394
   3902267.75047   3040727.71847  22185220.1504   22185220.9824
     -2760.7814      -2151.2584
   2183329.71545   1674238.56642  25335301.1584   25335305.6704
     -1968.0474      -1533.5434
    -96538.74043                  25407437.6504
      1371.9844
   -783377.96047   -569240.31947  21239722.4714   21239723.8304
      -596.6564       -464.9274
 98  6 17 16 11 30.0020000  0  8G 4G 5G 7G 8G 9G16G30G24
   4420058.63047   3424807.25547  21539991.3934   21539992.0724
     -3012.9224      -2347.7314
  -2337349.34246  -1790485.02246  22643895.9794   22643897.1864
       541.5004        421.9484
   8465089.38945   6507134.03945  24146985.3384   24146989.3224
     -4136.2974      -3223.0884
  -1530972.01746  -1168845.48546  22767089.2684   22767090.4284
      -295.9374       -230.6014
   3943774.84347   3073070.89747  22193118.5574   22193119.3424
     -2773.7034      -2161.3274
   2212942.18345   1697313.22343  25340936.8934   25340941.5214
     -1980.5784      -1543.3084
   -117098.45043     -9607.32552  25403524.7604   25403528.6974
      1369.0314       1066.7784
   -774331.99847   -562191.50047  21241443.9324   21241445.1974
      -609.7034       -475.0934
 98  6 17 16 11 45.0020000  0  8G 4G 5G 7G 8G 9G16G30G24
   4465353.58347   3460102.01547  21548610.8384   21548611.3424
     -3026.3754      -2358.2144
  -2345419.67346  -1796773.58946  22642360.0334   22642361.1584
       534.5944        416.5674
   8527167.06845   6555506.23145  24158798.9004   24158801.9824
     -4140.6564      -3226.4854
  -1526431.86846  -1165307.71345  22767953.1664   22767953.8344
      -309.4224       -241.1084
   3985478.48947   3105567.23747  22201054.3144   22201055.0764
     -2786.7814      -2171.5184
   2242744.84745   1720536.06742  25346607.5804   25346613.3934
     -1993.0944      -1553.0604
   -137610.30743    -25590.58342  25399621.2994   25399625.5184
      1365.8594       1064.3064
   -765088.65647   -554988.88447  21243202.8074   21243204.1074
      -622.7194       -485.2354
 98  6 17 16 12  0.0020000  0  8G 4G 5G 7G 8G 9G16G30G24
   4510848.50147   3495552.59847  21557268.2444   21557268.7364
     -3039.7504      -2368.6364
  -2353389.68146  -1802983.96346  22640843.6274   22640844.8114
       527.9384        411.3804
   8589307.77845   6603927.55745  24170623.6974   24170626.3344
     -4144.8914      -3229.7854
  -1521689.87446  -1161612.63645  22768855.5724   22768856.4394
      -323.0004       -251.6884
   4027376.51747   3138215.04047  22209027.3384   22209028.0884
     -2799.7664      -2181.6364
   2272734.33445   1743904.54242  25352314.7054   25352318.6314
     -2005.6254      -1562.8254
   -158075.37743    -41537.32242  25395727.0724   25395732.2054
      1362.6414       1061.7984
   -755653.26447   -547636.61447  21244998.4004   21244999.7014
      -635.4374       -495.1464
 98  6 17 16 12 15.0020000  0  8G 4G 5G 7G 8G 9G16G30G24
   4556542.42947   3531158.25047  21565963.2364   21565963.6114
     -3052.7814      -2378.7914
  -2361261.16346  -1809117.57446  22639345.9244   22639346.8734
       521.5164        406.3764
   8651510.86545   6652397.45745  24182460.4634   24182463.5684
     -4148.9374      -3232.9384
  -1516746.71546  -1157760.82645  22769796.0104   22769796.9004
      -336.1874       -261.9644
   4069468.07447   3171013.64947  22217037.1894   22217038.0334
     -2812.4694      -2191.5344
   2302908.61244   1767416.97742  25358055.8614   25358060.2444
     -2017.6874      -1572.2244
   -178491.90743    -57446.33142  25391842.3224   25391846.2834
      1359.5314       1059.3754
   -746030.31847   -540138.20147  21246829.4324   21246830.8734
      -647.6094       -504.6314
 98  6 17 16 12 30.0020000  0  8G 4G 5G 7G 8G 9G16G30G24
   4602433.59847   3566917.60047  21574696.2524   21574696.6864
     -3065.9844      -2389.0794
  -2369033.24246  -1815173.72546  22637866.7754   22637867.9244
       514.8284        401.1654
   8713778.52445   6700917.68645  24194308.8464   24194311.6464
     -4153.4224      -3236.4334
  -1511600.34346  -1153750.65046  22770775.4004   22770776.4434
      -350.0164       -272.7394
   4111753.72847   3203963.50147  22225083.7684   22225084.7294
     -2825.6254      -2201.7864
   2333268.47545   1791073.97142  25363833.6434   25363834.8264
     -2030.2664      -1582.0254
   -198858.00743    -73315.95942  25387966.4794   25387971.8344
      1355.9534       1056.5874
   -736222.35347   -532495.61847  21248695.8854   21248697.1744
      -660.0474       -514.3224
 98  6 17 16 12 45.0020000  0  8G 4G 5G 7G 8G 9G16G30G24
   4648519.57847   3602828.74647  21583466.0334   21583466.4084
     -3078.6874      -2398.9774
  -2376707.05746  -1821153.31046  22636406.1894   22636407.1624
       508.3754        396.1364
   8776114.48945   6749491.16545  24206171.2214   24206174.7364
     -4157.9844      -3239.9884
  -1506246.20046  -1149578.57845  22771794.4324   22771795.7094
      -363.8444       -283.5154
   4154235.62447   3237066.27647  22233167.9944   22233168.9084
     -2838.5624      -2211.8674
   2363816.32845   1814877.51942  25369646.5884   25369650.6784
     -2042.7344      -1591.7414
   -219168.92643    -89142.63642  25384101.3304   25384104.7524
      1352.1884       1053.6534
   -726229.11547   -524708.66447  21250597.3694   21250598.7294
      -672.4064       -523.9534
 98  6 17 16 13  0.0020000  0  8G 4G 5G 7G 8G 9G16G30G24
   4694792.82347   3638885.81547  21592271.7444   21592272.3654
     -3091.0624      -2408.6204
  -2384285.94846  -1827058.93046  22634964.0884   22634964.7914
       502.0944        391.2424
   8838516.15945   6798115.82545  24218046.5884   24218050.2564
     -4162.2194      -3243.2874
  -1500684.17646  -1145244.51846  22772852.7444   22772853.9754
      -377.7664       -294.3634
   4196910.06947   3270319.08547  22241288.4084   22241289.3464
     -2851.3914      -2221.8634
   2394549.80745   1838825.68242  25375494.7754   25375499.2874
     -2055.0944      -1601.3724
   -239422.69244   -104924.76343  25380246.7444   25380247.7174
      1348.2664       1050.5974
   -716050.86747   -516777.54147  21252534.3544   21252535.8894
      -684.7034       -533.5354
 98  6 17 16 13 15.0020000  0  8G 4G 5G 7G 8G 9G16G30G24
   4741249.19347   3675085.58047  21601112.0964   21601112.8934
     -3103.2814      -2418.1414
  -2391770.69146  -1832891.18046  22633539.8544   22633540.9794
       495.6254        386.2014
   8900980.89145   6846789.59945  24229933.7214   24229936.7444
     -4166.5624      -3246.6724
  -1494914.09246  -1140748.33646  22773950.6194   22773951.8964
      -391.7814       -305.2844
   4239776.90747   3303721.81347  22249445.9324   22249446.8464
     -2864.3444      -2231.9564
   2425466.39345   1862916.52242  25381378.2994   25381382.5294
     -2067.2974      -1610.8814
   -259618.53544   -120661.73843  25376404.2524   25376405.8814
      1344.3914       1047.5774
   -705690.51447   -508704.52947  21254505.9944   21254507.5534
      -696.8754       -543.0194
 98  6 17 16 13 30.0020000  0  8G 4G 5G 7G 8G 9G16G30G24
   4787890.41947   3711429.38247  21609987.2524   21609987.9204
     -3115.4844      -2427.6504
  -2399153.98146  -1838644.38846  22632134.9244   22632135.8504
       488.7664        380.8564
   8963510.29745   6895513.79645  24241831.7054   24241833.3224
     -4170.6724      -3249.8744
  -1488932.38846  -1136087.25846  22775089.1434   22775090.8544
      -405.7034       -316.1324
   4282839.45247   3337277.03647  22257640.4634   22257641.2604
     -2877.3444      -2242.0864
   2456568.80445   1887152.11543  25387297.0724   25387300.8574
     -2079.7194      -1620.5604
   -279753.94544   -136351.63743  25372571.9794   25372574.8264
      1340.3134       1044.3994
   -695145.13647   -500487.33547  21256512.5104   21256514.0214
      -709.1414       -552.5774
 98  6 17 16 13 45.0030000  0  8G 4G 5G 7G 8G 9G16G30G24
   4834716.00047   3747916.84547  21618898.1874   21618898.8314
     -3127.5944      -2437.0864
  -2406433.38946  -1844316.63946  22630749.4834   22630750.7724
       481.6724        375.3294
   9026105.63845   6944289.36845  24253743.4444   24253745.8354
     -4174.8594      -3253.1374
  -1482742.81446  -1131264.19746  22776267.1944   22776268.6944
      -419.6094       -326.9684
   4326100.68347   3370987.08647  22265872.8124   22265873.4914
     -2890.5164      -2252.3504
   2487858.89745   1911534.02143  25393251.3124   25393255.0854
     -2092.1094      -1630.2154
   -299828.86944   -151994.44043  25368752.5384   25368756.4054
      1336.0474       1041.0754
   -684414.82147   -492126.03747  21258554.1874   21258555.5224
      -721.6564       -562.3304
 98  6 17 16 14  0.0030000  0  8G 4G 5G 7G 8G 9G16G30G24
   4881722.93347   3784545.61947  21627843.1874   21627843.5974
     -3139.6724      -2446.4984
  -2413604.07546  -1849904.17646  22629384.8044   22629385.8824
       474.7664        369.9474
   9088761.02945   6993111.72445  24265666.6404   24265669.7804
     -4178.8754      -3256.2664
  -1476342.89846  -1126277.24046  22777484.5934   22777486.1984
      -433.4064       -337.7194
   4369559.26247   3404850.90747  22274142.5694   22274143.5194
     -2903.6254      -2262.5654
   2519334.46645   1936060.44443  25399240.7414   25399245.4524
     -2104.3284      -1639.7364
   -319836.47944   -167584.72943  25364944.9764   25364948.5264
      1331.9694       1037.8984
   -673493.57447   -483615.95947  21260632.7964   21260634.0734
      -734.1874       -572.0944
 98  6 17 16 14 15.0030000  0  8G 4G 5G 7G 8G 9G16G30G24
   4928909.84647   3821314.63847  21636822.7804   21636823.1204
     -3151.9374      -2456.0554
  -2420672.47746  -1855412.00646  22628040.2804   22628041.5584
       467.6414        364.3954
   9151476.36845   7041980.78445  24277600.9294   24277605.0774
     -4183.2194      -3259.6514
  -1469737.35946  -1121130.04946  22778741.4214   22778742.6634
      -447.3444       -348.5804
   4413211.93147   3438865.96747  22282449.4994   22282450.5544
     -2916.7194      -2272.7684
   2550992.28345   1960728.88843  25405264.8194   25405268.9794
     -2116.7034      -1649.3794
   -339785.31044   -183129.26343  25361148.8434   25361151.8194
      1327.8444       1034.6834
   -662385.22447   -474960.09347  21262746.5934   21262747.7534
      -746.8914       -581.9934
 98  6 17 16 14 30.0030000  0  8G 4G 5G 7G 8G 9G16G30G24
   4976280.61647   3858226.91947  21645837.0934   21645837.3974
     -3164.2504      -2465.6494
  -2427633.43446  -1860836.12646  22626715.4444   22626716.3474
       460.4064        358.7584
   9214258.84845   7090902.18045  24289548.6874   24289551.3354
     -4187.8754      -3263.2794
  -1462923.69746  -1115820.68646  22780038.3974   22780039.6044
      -461.2814       -359.4404
   4457060.43847   3473033.62947  22290793.6014   22290794.5734
     -2929.7814      -2282.9464
   2582835.06745   1985541.41343  25411324.8354   25411327.4724
     -2129.1094      -1659.0464
   -359673.14744   -198626.21743  25357364.9994   25357367.4604
      1323.8444       1031.5674
   -651085.23947   -466154.89747  21264897.0624   21264898.1634
      -759.8444       -592.0864
 98  6 17 16 14 45.0030000  0  8G 4G 5G 7G 8G 9G16G30G24
   5023837.30347   3895284.07747  21654886.8124   21654887.2104
     -3176.5784      -2475.2564
  -2434485.54146  -1866175.41146  22625411.6404   22625413.1514
       453.2814        353.2064
   9277109.72245   7139876.88445  24301507.9054   24301511.4094
     -4192.0944      -3266.5674
  -1455900.74846  -1110348.24946  22781375.2104   22781376.2294
      -474.9694       -370.1064
   4501105.10547   3507354.14646  22299175.3124   22299176.0854
     -2942.7194      -2293.0284
   2614864.58044   2010499.48043  25417419.3354   25417424.1044
     -2141.3914      -1668.6164
   -379502.19644   -214077.42643  25353590.6244   25353593.0974
      1320.1414       1028.6814
   -639589.12847   -457196.87447  21267084.5304   21267085.7844
      -772.8444       -602.2164
 98  6 17 16 15  0.0030000  0  8G 4G 5G 7G 8G 9G16G30G24
   5071581.50047   3932487.33847  21663972.3744   21663972.7144
     -3189.3754      -2485.2274
  -2441227.00346  -1871428.48946  22624128.4994   22624130.0224
       445.5944        347.2164
   9340024.82445   7188901.58245  24313480.3744   24313484.7104
     -4196.4844      -3269.9884
  -1448672.45146  -1104715.79546  22782750.3194   22782751.4444
      -488.7194       -380.8204
   4545344.40447   3541826.32347  22307593.4994   22307594.3434
     -2955.8594      -2303.2674
   2647080.52644   2035602.77743  25423549.8904   25423555.1634
     -2154.0624      -1678.4904
   -399275.02644   -229484.80343  25349827.6404   25349830.9444
      1316.2664       1025.6624
   -627897.33847   -448086.37647  21269309.4294   21269310.7534
      -786.0474       -612.5044
 98  6 17 16 15 15.0030000  0  8G 4G 5G 7G 8G 9G16G30G24
   5119521.04847   3969842.82547  21673094.7184   21673095.0584
     -3202.5314      -2495.4794
  -2447853.89546  -1876592.27846  22622867.3824   22622868.8234
       438.0004        341.2994
   9403004.36245   7237976.48845  24325465.8354   24325469.1404
     -4200.8124      -3273.3604
  -1441240.25046  -1098924.45746  22784164.4994   22784165.7764
      -502.2034       -391.3274
   4589780.97747   3576452.21146  22316049.7104   22316050.5774
     -2968.9844      -2313.4944
   2679487.74444   2060855.17642  25429716.6014   25429721.5584
     -2166.8284      -1688.4374
   -418990.65744   -244847.60443  25346076.5694   25346080.6834
      1312.5784       1022.7884
   -616008.77647   -438822.54847  21271571.6404   21271572.9764
      -799.0624       -622.6464
 98  6 17 16 15 30.0030000  0  8G 4G 5G 7G 8G 9G16G30G24
   5167655.12047   4007349.89347  21682254.5384   21682254.9134
     -3215.2664      -2505.4024
  -2454369.86746  -1881669.65446  22621627.5544   22621628.7724
       430.8754        335.7474
   9466046.22645   7287100.07745  24337461.6944   24337463.8154
     -4204.7344      -3276.4164
  -1433611.25746  -1092979.78546  22785615.9994   22785616.7374
      -514.9224       -401.2384
   4634411.31547   3611229.09447  22324542.2334   22324543.0074
     -2981.6564      -2323.3694
   2712082.07644   2086253.28642  25435919.6944   25435923.1044
     -2179.0624      -1697.9714
   -438656.05844   -260171.25143  25342334.5384   25342337.1404
      1309.5004       1020.3904
   -603928.77647   -429409.54347  21273870.4914   21273871.8864
      -811.5624       -632.3864
 98  6 17 16 15 45.0030000  0  8G 4G 5G 7G 8G 9G16G30G24
   5215981.76547   4045007.01447  21691450.6944   21691451.0934
     -3228.1874      -2515.4714
  -2460778.49446  -1886663.37146  22620408.0384   22620408.8474
       423.7504        330.1954
   9529148.27245   7336270.45545  24349469.3274   24349472.2804
     -4208.8444      -3279.6194
  -1425791.15046  -1086886.17946  22787104.5224   22787105.9994
      -527.6874       -411.1854
   4679232.66947   3646154.81547  22333071.5464   22333072.4254
     -2994.4224      -2333.3164
   2744863.16544   2111796.99242  25442157.2104   25442160.8784
     -2191.6564      -1707.7844
   -458272.28544   -275456.60243  25338601.5224   25338603.1044
      1306.0944       1017.7354
   -591659.34947   -419848.94347  21276205.3584   21276206.6594
      -824.2504       -642.2734
 98  6 17 16 16  0.0030000  0  8G 4G 5G 7G 8G 9G16G30G24
   5264511.40847   4082822.31647  21700685.5934   21700686.1084
     -3242.1724      -2526.3684
  -2467073.55546  -1891568.60946  22619209.7574   22619211.2924
       415.8914        324.0714
   9592320.65945   7385495.64845  24361491.6014   24361494.2024
     -4213.8444      -3283.5154
  -1417768.52446  -1080634.77646  22788630.9444   22788631.9764
      -541.6564       -422.0704
   4724252.65247   3681235.30946  22341638.5154   22341639.5934
     -3007.9064      -2343.8234
   2777842.13144   2137494.90442  25448432.8744   25448438.7334
     -2205.2664      -1718.3894
   -477829.36444   -290695.85743  25334879.3584   25334879.8154
      1301.8284       1014.4124
   -579190.33547   -410132.81547  21278578.1244   21278579.3784
      -837.9374       -652.9384
 98  6 17 16 16 15.0030000  0  8G 4G 5G 7G 8G 9G16G30G24
   5313243.69347   4120795.52147  21709958.9834   21709959.2184
     -3255.7194      -2536.9244
  -2473257.18546  -1896386.99846  22618033.4764   22618034.6594
       408.3444        318.1904
   9655561.63445   7434774.32644  24373524.8904   24373528.7804
     -4218.5624      -3287.1924
  -1409544.24946  -1074226.24346  22790195.8354   22790196.6794
      -555.1564       -432.5894
   4769466.84847   3716467.13146  22350242.7574   22350243.7184
     -3020.8914      -2353.9414
   2811019.01444   2163346.99042  25454746.2494   25454751.6984
     -2218.5784      -1728.7624
   -497329.81544   -305890.96842  25331169.2264   25331171.6874
      1297.9384       1011.3804
   -566525.24247   -400263.89747  21280987.9444   21280989.1754
      -850.9844       -663.1054
 98  6 17 16 16 30.0030000  0  8G 4G 5G 7G 8G 9G16G30G24
   5362174.55147   4158923.45847  21719270.2964   21719270.7064
     -3268.3444      -2546.7614
  -2479331.43346  -1901120.17346  22616877.4604   22616878.8544
       401.5474        312.8944
   9718868.36545   7484104.18045  24385573.0464   24385577.2414
     -4222.3594      -3290.1504
  -1401123.11246  -1067664.32046  22791798.5464   22791799.6244
      -567.6414       -442.3174
   4814870.64047   3751846.70546  22358882.8664   22358883.7694
     -3032.9374      -2363.3284
   2844391.24444   2189351.27442  25461097.0544   25461101.0154
     -2231.0164      -1738.4544
   -516775.50344   -321043.46142  25327468.4054   25327471.7924
      1294.8444       1008.9694
   -553668.61247   -390245.73747  21283434.5304   21283435.7024
      -863.2504       -672.6624
 98  6 17 16 16 45.0030000  0  8G 4G 5G 7G 8G 9G16G30G24
   5411295.05647   4197199.17147  21728617.7184   21728618.2694
     -3281.3754      -2556.9164
  -2485302.81646  -1905773.17846  22615741.0774   22615742.5544
       394.2974        307.2444
   9782232.41346   7533478.76245  24397630.8584   24397633.4134
     -4226.3754      -3293.2794
  -1392513.03546  -1060955.15546  22793437.0624   22793437.8824
      -580.7034       -452.4964
   4860456.42347   3787368.08646  22367557.3434   22367558.3624
     -3045.4534      -2373.0804
   2877950.26045   2215501.15743  25467483.1794   25467488.2884
     -2243.8124      -1748.4254
   -536173.13544   -336158.48143  25323777.3824   25323779.0584
      1291.1564       1006.0964
   -540625.16147   -380081.99547  21285916.5154   21285917.6514
      -876.1874       -682.7444
 98  6 17 16 17  0.0030000  0  8G 4G 5G 7G 8G 9G16G30G24
   5460609.27447   4235625.83347  21738001.7104   21738002.1084
     -3293.8914      -2566.6684
  -2491167.08946  -1910342.73446  22614625.1244   22614626.2144
       387.5474        301.9854
   9845651.28345   7582896.04845  24409698.2804   24409701.4334
     -4229.6094      -3295.8004
  -1383709.10546  -1054094.94246  22795112.2724   22795113.4564
      -593.2504       -462.2734
   4906228.02447   3823034.26046  22376267.3124   22376268.3544
     -3057.5314      -2382.4924
   2911698.27544   2241798.31442  25473905.0074   25473909.4134
     -2255.9844      -1757.9104
   -555516.67144   -351231.35542  25320096.4604   25320099.8944
      1287.9224       1003.5754
   -527390.28047   -369769.08647  21288434.8824   21288436.0304
      -888.5474       -692.3744
 98  6 17 16 17 15.0030000  0  8G 4G 5G 7G 8G 9G16G30G24
   5510113.30347   4274200.39847  21747422.0464   21747422.4094
     -3306.6724      -2576.6274
  -2496928.17246  -1914831.87746  22613528.7104   22613529.9404
       380.5944        296.5674
   9909123.39545   7632354.81544  24421776.8904   24421779.4564
     -4233.3914      -3298.7464
  -1374712.28146  -1047084.42546  22796824.0464   22796825.3354
      -606.4224       -472.5374
   4952183.02647   3858843.34246  22385012.1944   22385013.0384
     -3069.8754      -2392.1104
   2945631.61445   2268239.86142  25480362.5224   25480368.1474
     -2268.4374      -1767.6144
   -574807.86044   -366263.43242  25316425.6474   25316428.3084
      1284.1724       1000.6534
   -513967.07547   -359309.43647  21290989.3434   21290990.6904
      -901.3124       -702.3214
 98  6 17 16 17 30.0030000  0  8G 4G 5G 7G 8G 9G16G30G24
   5559809.46147   4312924.67247  21756878.9134   21756879.3124
     -3319.3124      -2586.4774
  -2502583.26146  -1919238.41946  22612452.8974   22612454.0344
       373.4694        291.0154
   9972655.85445   7681860.62445  24433866.5304   24433869.8474
     -4237.5474      -3301.9854
  -1365512.94746  -1039916.10246  22798574.9374   22798575.7224
      -620.1724       -483.2514
   4998326.50047   3894799.29246  22393793.2494   22393794.4214
     -3082.5314      -2401.9724
   2979752.44845   2294827.51742  25486855.3434   25486859.2224
     -2280.8914      -1777.3174
   -594039.76244   -381249.31442  25312765.5544   25312766.4444
      1280.1254        997.5004
   -500348.02247   -348697.17347  21293580.9604   21293582.1904
      -914.5004       -712.5974
 98  6 17 16 17 45.0030000  0  8G 4G 5G 7G 8G 9G16G30G24
   5609692.96147   4351794.93047  21766371.3744   21766371.8784
     -3331.7664      -2596.1814
  -2508130.66646  -1923561.06646  22611397.3744   22611398.3584
       366.2504        285.3904
  10036250.48245   7731414.81445  24445968.0384   24445973.0194
     -4241.6874      -3305.2114
  -1356105.78146  -1032585.84246  22800364.6474   22800366.0304
      -634.1414       -494.1364
   5044659.79547   3930903.14946  22402610.1554   22402610.9764
     -3095.1564      -2411.8104
   3014059.50945   2321560.27042  25493384.2654   25493387.1364
     -2293.3754      -1787.0454
   -613209.35643   -396186.63442  25309117.6014   25309121.9254
      1275.8284        994.1524
   -486531.43247   -337930.98847  21296210.2804   21296211.6164
      -927.7034       -722.8864
 98  6 17 16 18  0.0030000  0  8G 4G 5G 7G 8G 9G16G30G24
   5659764.41347   4390811.63847  21775899.7184   21775900.1514
     -3344.3754      -2606.0064
  -2513569.18946  -1927798.85246  22610362.1874   22610363.2064
       358.9384        279.6924
  10099906.34245   7781016.73344  24458081.6404   24458086.3514
     -4245.7194      -3308.3524
  -1346484.83246  -1025088.98646  22802196.2494   22802197.1634
      -648.6094       -505.4104
   5091180.62547   3967153.14546  22411462.4994   22411463.3904
     -3107.5624      -2421.4774
   3048553.93845   2348439.04742  25499948.5934   25499951.7694
     -2305.8444      -1796.7614
   -632315.54843   -411074.58541  25305482.1244   25305484.5734
      1271.7344        990.9624
   -472516.67147   -327010.38047  21298877.1164   21298878.4174
      -940.8594       -733.1374
 98  6 17 16 18 15.0030000  0  8G 4G 5G 7G 8G 9G16G30G24
   5710026.62447   4429976.99447  21785464.3744   21785464.7844
     -3357.1254      -2615.9424
  -2518895.37946  -1931949.12246  22609348.7964   22609349.8274
       351.3284        273.7624
  10163624.26945   7830667.10645  24470207.2334   24470209.7064
     -4249.9224      -3311.6274
  -1336645.45746  -1017421.93846  22804068.5074   22804069.3864
      -663.1414       -516.7334
   5137889.09747   4003549.35446  22420350.8904   22420351.7104
     -3120.1254      -2431.2664
   3083236.99145   2375464.77543  25506548.1794   25506550.5934
     -2318.4374      -1806.5754
   -651359.13443   -425913.67141  25301858.1324   25301861.1204
      1267.5314        987.6874
   -458303.06647   -315934.83647  21301581.8974   21301583.2574
      -954.1564       -743.4984
 98  6 17 16 18 30.0030000  0  8G 4G 5G 7G 8G 9G16G30G24
   5760478.22547   4469289.93147  21795065.0544   21795065.4644
     -3369.7504      -2625.7794
  -2524108.53146  -1936011.30646  22608356.8274   22608357.7184
       343.7974        267.8944
  10227405.90545   7880367.06944  24482342.7414   24482347.2294
     -4254.2664      -3315.0124
  -1326589.83646  -1009586.37746  22805981.8194   22805983.0624
      -677.5944       -527.9954
   5184784.75147   4040091.41246  22429274.7724   22429275.5584
     -3132.6094      -2440.9944
   3118107.69945   2402636.76442  25513184.1634   25513188.1944
     -2331.0004      -1816.3644
   -670341.20444   -440704.92442  25298245.3664   25298247.1124
      1263.4534        984.5094
   -443891.27347   -304704.85347  21304324.4214   21304325.8514
      -967.4224       -753.8354
 98  6 17 16 18 45.0030000  0  8G 4G 5G 7G 8G 9G16G30G24
   5811121.48147   4508752.20247  21804702.1874   21804702.7614
     -3382.5624      -2635.7634
  -2529207.32246  -1939984.38246  22607386.6084   22607387.7454
       336.1564        261.9404
  10291253.79145   7930118.56344  24494493.3584   24494498.2454
     -4258.6724      -3318.4464
  -1316314.75446  -1001579.81146  22807936.9214   22807938.1404
      -692.3124       -539.4644
   5231868.86747   4076780.33246  22438234.5934   22438235.6714
     -3145.2194      -2450.8204
   3153168.92845   2429957.17943  25519855.7804   25519861.0194
     -2343.7034      -1826.2624
   -689261.84944   -455448.26142  25294645.6014   25294649.3044
      1259.4224        981.3684
   -429277.95547   -293317.84247  21307105.1014   21307106.4374
      -980.8594       -764.3064
 98  6 17 16 19  0.0030000  0  8G 4G 5G 7G 8G 9G16G30G24
   5861956.27047   4548363.72347  21814375.7104   21814376.0974
     -3395.5474      -2645.8814
  -2534191.71246  -1943868.29846  22606437.9834   22606439.0154
       328.2664        255.7914
  10355167.70745   7979921.63244  24506657.2024   24506659.6164
     -4263.2974      -3322.0504
  -1305818.57446   -993400.96546  22809934.3274   22809935.3234
      -707.2814       -551.1284
   5279142.98647   4113617.30746  22447230.4444   22447231.5814
     -3158.1254      -2460.8774
   3188419.48745   2457425.12042  25526563.9444   25526567.0854
     -2356.5164      -1836.2464
   -708122.63144   -470144.97742  25291056.5384   25291058.5074
      1255.2194        978.0934
   -414465.10247   -281775.35047  21309923.6324   21309924.6874
      -994.2664       -774.7524
 98  6 17 16 19 15.0030000  0  8G 4G 5G 7G 8G 9G16G30G24
   5912976.71347   4588119.90847  21824084.5774   21824085.0814
     -3407.5314      -2655.2194
  -2539065.46946  -1947666.02546  22605510.4054   22605511.4484
       321.1564        250.2524
  10419145.12945   8029774.19145  24518830.6404   24518832.7264
     -4267.4694      -3325.3004
  -1295106.74546   -985054.08246  22811972.7804   22811973.7294
      -721.3444       -562.0864
   5326602.56247   4150598.78846  22456261.7264   22456262.6874
     -3170.2194      -2470.3004
   3223856.61945   2485038.44442  25533307.3044   25533312.2374
     -2368.8444      -1845.8524
   -726929.08844   -484799.30343  25287476.9994   25287480.0344
      1251.9384        975.5364
   -399460.54747   -270083.48047  21312779.3744   21312780.4054
     -1006.7664       -784.4934
 98  6 17 16 19 30.0030000  0  8G 4G 5G 7G 8G 9G16G30G24
   5964182.36147   4628020.40647  21833828.5774   21833828.9874
     -3419.8284      -2664.8014
  -2543825.09446  -1951374.80546  22604604.6714   22604606.3944
       313.4694        244.2614
  10483192.41745   8079681.09845  24531018.1794   24531022.1284
     -4272.1254      -3328.9294
  -1284177.31046   -976537.62546  22814052.6404   22814053.9524
      -735.8284       -573.3734
   5374249.51847   4187726.28046  22465328.6554   22465329.8744
     -3182.7344      -2480.0534
   3259485.67745   2512801.34142  25540087.4764   25540090.7454
     -2381.7194      -1855.8854
   -745680.02344   -499410.42043  25283909.4374   25283912.4954
      1248.2344        972.6504
   -384262.21247   -258240.61147  21315671.2884   21315672.3904
     -1019.6414       -794.5254
 98  6 17 16 19 45.0030000  0  8G 4G 5G 7G 8G 9G16G30G24
   6015572.41747   4668064.60047  21843607.8354   21843608.2454
     -3432.1414      -2674.3954
  -2548468.41846  -1954992.96246  22603721.0224   22603722.0194
       305.6724        238.1864
  10547310.02245   8129642.79344  24543219.2724   24543223.7724
     -4276.8124      -3332.5814
  -1273031.20846   -967852.35046  22816173.7884   22816175.0424
      -750.2194       -584.5864
   5422085.66547   4225001.19446  22474431.7884   22474433.0194
     -3195.3444      -2489.8784
   3295310.53744   2540716.84942  25546904.2104   25546909.8944
     -2394.8754      -1866.1364
   -764375.88644   -513978.57843  25280351.5224   25280354.5464
      1244.6094        969.8254
   -368872.20947   -246248.39447  21318599.9914   21318601.1754
     -1032.2664       -804.3634
 98  6 17 16 20  0.0030000  0  8G 4G 5G 7G 8G 9G16G30G24
   6067143.62847   4708249.95947  21853421.5624   21853421.9374
     -3444.3444      -2683.9044
  -2552999.51946  -1958523.69146  22602858.9994   22602860.2414
       298.1724        232.3424
  10611492.47045   8179655.12144  24555432.8434   24555435.0694
     -4281.1254      -3335.9424
  -1261676.00746   -959004.13546  22818334.4294   22818335.7764
      -764.0944       -595.3984
   5470104.77647   4262418.67046  22483569.5934   22483570.5774
     -3207.4694      -2499.3264
   3331326.08945   2568780.84542  25553757.7264   25553760.6554
     -2407.5314      -1875.9984
   -783022.60744   -528508.50343  25276803.2414   25276806.9564
      1241.3594        967.2934
   -353297.65947   -234112.36947  21321563.6164   21321564.7884
     -1044.6254       -813.9944
 98  6 17 16 20 15.0030000  0  8G 4G 5G 7G 8G 9G16G30G24
   6118898.51547   4748578.44047  21863270.2264   21863270.4954
     -3456.7344      -2693.5594
  -2557417.50746  -1961966.26346  22602018.0464   22602019.0194
       290.4224        226.3034
  10675738.57645   8229717.00343  24567658.7184   24567662.2334
     -4285.5314      -3339.3754
  -1250114.84246   -949995.43446  22820534.6244   22820535.6324
      -777.8284       -606.1004
   5518304.95347   4299977.24746  22492741.6714   22492742.8084
     -3219.7814      -2508.9204
   3367532.06845   2596993.30042  25560647.6404   25560653.5114
     -2420.3914      -1886.0194
   -801621.32444   -543000.95443  25273263.4994   25273265.3744
      1237.9384        964.6274
   -337537.47647   -221831.70047  21324562.4994   21324563.8004
     -1057.2504       -823.8314
 98  6 17 16 20 30.0030000  0  8G 4G 5G 7G 8G 9G16G30G24
   6170839.42447   4789051.87147  21873154.2964   21873154.7654
     -3468.6724      -2702.8614
  -2561717.89846  -1965317.20646  22601199.8584   22601200.3974
       283.0634        220.5684
  10740054.39545   8279833.18145  24579898.8664   24579901.4794
     -4289.8444      -3342.7354
  -1238346.51246   -940825.29746  22822773.8974   22822775.1874
      -791.2344       -616.5464
   5566694.24247   4337683.18746  22501949.9374   22501950.9214
     -3232.0784      -2518.5024
   3403932.51444   2625357.28442  25567574.5304   25567578.6324
     -2432.9064      -1895.7714
   -820164.88644   -557450.44743  25269735.6164   25269737.5624
      1234.5474        961.9854
   -321583.86647   -209400.30447  21327598.3824   21327599.5774
     -1069.8284       -833.6324
 98  6 17 16 20 45.0030000  0  8G 4G 5G 7G 8G 9G16G30G24
   6222957.01847   4829662.98247  21883071.7884   21883072.3154
     -3480.2504      -2711.8834
  -2565910.53646  -1968584.18246  22600401.8194   22600403.0034
       276.0634        215.1144
  10804432.14445   8329997.66045  24592148.8584   24592150.9214
     -4293.7034      -3345.7434
  -1226377.98346   -931499.16646  22825051.5074   22825052.2804
      -804.5164       -626.8954
   5615266.91547   4375532.01246  22511193.2494   22511194.3394
     -3244.1874      -2527.9384
   3440517.38544   2653864.97842  25574536.1474   25574543.0654
     -2444.9534      -1905.1584
   -838658.52044   -571861.02643  25266215.5934   25266218.2414
      1231.3284        959.4764
   -305443.01047   -196823.00447  21330670.1404   21330671.3234
     -1082.1564       -843.2394
 98  6 17 16 21  0.0030000  0  8G 4G 5G 7G 8G 9G16G30G24
   6275249.78747   4870410.58647  21893022.9604   21893023.4054
     -3491.9694      -2721.0154
  -2569996.33247  -1971767.89946  22599624.6404   22599625.7184
       268.8594        209.5014
  10868868.38345   8380207.70943  24604409.2724   24604411.5934
     -4297.6724      -3348.8354
  -1214207.77546   -922015.89446  22827367.4134   22827368.1284
      -818.0474       -637.4394
   5664023.63047   4413524.25346  22520471.0544   22520472.1324
     -3256.6094      -2537.6184
   3477282.34444   2682512.95343  25581531.8434   25581535.6874
     -2456.8754      -1914.4484
   -857099.55745   -586230.63243  25262706.4134   25262708.7224
      1227.5784        956.5544
   -289115.16847   -184100.00447  21333777.4294   21333778.6124
     -1094.7194       -853.0284
 98  6 17 16 21 15.0030000  0  8G 4G 5G 7G 8G 9G16G30G24
   6327715.42947   4911292.90647  21903006.7264   21903007.2414
     -3503.2814      -2729.8304
  -2573976.74446  -1974869.52246  22598867.0304   22598867.9444
       262.0314        204.1804
  10933361.51645   8430462.06044  24616683.2334   24616687.0194
     -4301.2344      -3351.6114
  -1201837.35646   -912376.59346  22829721.1554   22829722.0584
      -831.2034       -647.6914
   5712964.10747   4451659.68646  22529784.4214   22529785.5224
     -3268.5784      -2546.9444
   3514224.79344   2711299.26942  25588561.7264   25588565.3474
     -2468.6724      -1923.6404
   -875486.36744   -600557.96643  25259207.8274   25259210.3004
      1224.1414        953.8764
   -272601.77447   -171232.41647  21336919.4994   21336920.5774
     -1106.9064       -862.5244
 98  6 17 16 21 30.0030000  0  8G 4G 5G 7G 8G 9G16G30G24
   6380348.13747   4952305.40247  21913022.2964   21913022.8474
     -3514.6254      -2738.6694
  -2577858.82447  -1977894.49546  22598128.2964   22598129.3744
       255.3914        199.0064
  10997904.14945   8480754.96544  24628965.3824   24628969.0854
     -4304.6254      -3354.2534
  -1189272.20046   -902585.56646  22832112.6014   22832113.3744
      -844.3444       -657.9304
   5762079.38247   4489931.31146  22539130.6404   22539131.5654
     -3280.2974      -2556.0754
   3551340.61944   2740220.64642  25595624.8514   25595629.1164
     -2480.2034      -1932.6264
   -893823.75244   -614846.84343  25255718.1164   25255723.4254
      1220.6884        951.1854
   -255908.67847   -158224.80147  21340096.3274   21340097.4874
     -1118.9844       -871.9364
 98  6 17 16 21 45.0030000  0  8G 4G 5G 7G 8G 9G16G30G24
   6433155.16547   4993453.73347  21923071.2494   21923071.8704
     -3526.3754      -2747.8254
  -2581638.34246  -1980839.57746  22597409.1014   22597410.2724
       248.5164        193.6494
  11062499.57145   8531089.02144  24641257.0694   24641261.4994
     -4308.1094      -3356.9684
  -1176507.64546   -892639.16346  22834541.3824   22834542.0854
      -857.6254       -668.2794
   5811372.54847   4528341.55946  22548510.7884   22548511.8784
     -3292.1094      -2565.2804
   3588630.19344   2769277.49242  25602720.6714   25602726.2494
     -2491.7194      -1941.5994
   -912106.45644   -629093.09943  25252239.1164   25252240.8154
      1216.9694        948.2874
   -239032.85647   -145074.80247  21343307.7264   21343309.0734
     -1131.1564       -881.4204
 98  6 17 16 22  0.0030000  0  8G 4G 5G 7G 8G 9G16G30G24
   6486139.72147   5034740.39947  21933153.8434   21933154.4994
     -3538.1414      -2756.9934
  -2585314.39447  -1983704.01446  22596709.5624   22596710.2534
       241.7194        188.3524
  11127147.01945   8581463.63144  24653560.0154   24653561.4564
     -4311.4064      -3359.5374
  -1163544.02246   -882537.64046  22837008.5154   22837009.1834
      -870.7664       -678.5194
   5860840.75447   4566888.20346  22557924.0544   22557925.2264
     -3303.5004      -2574.1564
   3626089.90544   2798466.86942  25609848.8194   25609853.9174
     -2502.7194      -1950.1704
   -930333.22844   -643295.73443  25248770.8194   25248771.8154
      1213.3754        945.4874
   -221973.10647   -131781.48247  21346553.8124   21346555.2534
     -1143.4534       -891.0024
 98  6 17 16 22 15.0030000  0  8G 4G 5G 7G 8G 9G16G30G24
   6539301.93947   5076165.50147  21943270.3904   21943270.9054
     -3549.9534      -2766.1974
  -2588887.24846  -1986488.06446  22596029.7104   22596030.8354
       234.8594        183.0074
  11191843.88645   8631876.84244  24665870.8044   24665871.5654
     -4314.6564      -3362.0704
  -1150381.99346   -872281.51246  22839513.1474   22839514.3194
      -884.0474       -688.8684
   5910479.90947   4605568.05446  22567370.2884   22567371.4134
     -3314.9064      -2583.0444
   3663714.85144   2827784.98642  25617008.9374   25617013.8234
     -2513.8594      -1958.8514
   -948504.17143   -657454.90742  25245312.6874   25245313.3084
      1209.5634        942.5164
   -204726.20847   -118342.33347  21349835.7264   21349836.9914
     -1155.9374       -900.7314
 98  6 17 16 22 30.0030000  0  8G 4G 5G 7G 8G 9G16G30G24
   6592638.13447   5117726.16647  21953419.8044   21953420.3664
     -3561.4694      -2775.1704
  -2592359.47046  -1989193.66646  22595368.9994   22595369.7724
       228.1254        177.7604
  11256587.50145   8682326.35844  24678190.3974   24678195.9644
     -4317.8444      -3364.5544
  -1137022.93546   -861871.84846  22842055.4444   22842056.3584
      -897.1874       -699.1074
   5960290.15447   4644381.22546  22576848.8434   22576849.9334
     -3326.5004      -2592.0784
   3701505.94444   2857232.60742  25624200.8274   25624206.3124
     -2524.9534      -1967.4964
   -966619.42343   -671570.62042  25241864.9524   25241868.4334
      1205.8134        939.5944
   -187294.85447   -104759.45047  21353153.0694   21353154.3704
     -1168.2344       -910.3124
 98  6 17 16 22 45.0030000  0  8G 4G 5G 7G 8G 9G16G30G24
   6646144.07147   5159419.10447  21963601.6944   21963602.1404
     -3572.7504      -2783.9614
  -2595733.95946  -1991823.14246  22594726.7724   22594728.1084
       221.6564        172.7194
  11321377.21645   8732811.75544  24690519.5224   24690525.2654
     -4320.8594      -3366.9034
  -1123469.64846   -851310.84946  22844634.2334   22844635.0894
      -910.0474       -709.1274
   6010271.03947   4683327.35246  22586359.9604   22586360.8864
     -3337.6564      -2600.7714
   3739461.52845   2886808.34242  25631423.8904   25631427.3704
     -2535.8754      -1976.0064
   -984681.11843   -685644.66342  25238428.2024   25238429.7964
      1202.3594        936.9034
   -169683.32647    -91036.17847  21356504.1944   21356505.4484
     -1180.0004       -919.4814
 98  6 17 16 23  0.0030000  0  8G 4G 5G 7G 8G 9G16G30G24
   6699824.09347   5201247.68847  21973816.5694   21973816.9914
     -3584.7034      -2793.2754
  -2599004.69046  -1994371.74946  22594104.3354   22594105.6014
       214.3444        167.0214
  11386216.83745   8783336.10244  24702858.5854   24702862.5584
     -4324.5004      -3369.7404
  -1109719.34246   -840596.32046  22847250.6944   22847251.9484
      -923.3914       -719.5254
   6060421.93047   4722405.95546  22595903.5224   22595904.4374
     -3349.2034      -2609.7694
   3777585.84544   2916515.65343  25638678.3434   25638681.2844
     -2547.5004      -1985.0654
  -1002687.56043   -699675.61342  25235001.9914   25235002.9764
      1198.4064        933.8234
   -151892.26147    -77173.00247  21359889.8974   21359891.1874
     -1192.2504       -929.0264
 98  6 17 16 23 15.0030000  0  8G 4G 5G 7G 8G 9G16G30G24
   6753679.44947   5243212.90047  21984064.9374   21984065.3474
     -3596.0314      -2802.1024
  -2602169.45546  -1996837.79646  22593502.0934   22593503.1594
       207.5784        161.7494
  11451106.85645   8833899.78444  24715207.5074   24715209.1474
     -4327.5164      -3372.0904
  -1095773.26546   -829729.24946  22849904.7724   22849906.0624
      -936.0624       -729.3994
   6110741.84647   4761616.26946  22605478.8744   22605479.9054
     -3360.1254      -2618.2794
   3815884.26844   2946358.58543  25645966.3434   25645970.2804
     -2559.0314      -1994.0504
  -1020638.82244   -713663.62442  25231586.1324   25231587.6794
      1195.0944        931.2424
   -133920.80047    -63169.25947  21363309.5624   21363310.7694
     -1203.9534       -938.1454
 98  6 17 16 23 30.0030000  0  8G 4G 5G 7G 8G 9G16G30G24
   6807710.11947   5285314.71847  21994346.7574   21994347.3434
     -3608.0624      -2811.4774
  -2605225.92446  -1999219.45046  22592920.4834   22592921.5264
       199.9384        155.7954
  11516046.57045   8884502.16244  24727564.8744   24727567.9444
     -4331.1094      -3374.8904
  -1081632.91646   -818710.79146  22852595.6244   22852597.1834
      -949.3284       -739.7364
   6161228.92447   4800956.84046  22615086.1404   22615087.3124
     -3371.4694      -2627.1194
   3854362.21644   2976341.39342  25653287.8974   25653292.6904
     -2571.3444      -2003.6444
  -1038536.54745   -727609.80743  25228180.0304   25228182.4444
      1191.2814        928.2714
   -115768.60647    -49024.68747  21366763.9054   21366765.3474
     -1216.3444       -947.8004
 98  6 17 16 23 45.0030000  0  8G 4G 5G 7G 8G 9G16G30G24
   6861918.76847   5327555.21647  22004662.3744   22004662.8434
     -3619.6874      -2820.5364
  -2608169.95546  -2001513.49446  22592360.3274   22592361.1014
       192.6254        150.0974
  11581036.70145   8935143.76443  24739931.0384   24739935.6554
     -4334.2034      -3377.3014
  -1067296.21846   -807539.33746  22855323.5774   22855325.0424
      -962.1874       -749.7564
   6211884.92247   4840429.03546  22624725.6794   22624726.7694
     -3382.6254      -2635.8124
   3893020.55045   3006464.79242  25660644.9834   25660649.6124
     -2583.0784      -2012.7884
  -1056379.64645   -741513.49343  25224784.7414   25224788.4444
      1187.8914        925.6294
    -97433.20747    -34737.35347  21370252.9444   21370254.2104
     -1228.3594       -957.1634
 98  6 17 16 24  0.0030000  0  8G 4G 5G 7G 8G 9G16G30G24
   6916303.00247   5369932.54147  22015011.1324   22015011.4134
     -3631.5164      -2829.7524
  -2611001.35446  -2003719.77746  22591821.2574   22591822.5224
       184.9694        144.1314
  11646076.15345   8985823.79643  24752308.0774   24752311.9334
     -4337.6564      -3379.9924
  -1052764.62846   -796216.01146  22858088.9444   22858090.7724
      -975.3444       -760.0084
   6262711.97847   4880034.52546  22634397.9294   22634399.0774
     -3394.3124      -2644.9194
   3931860.07745   3036729.36443  25668035.4684   25668040.4604
     -2595.5164      -2022.4804
  -1074169.30045   -755375.54744  25221399.8584   25221402.2494
      1184.0944        922.6704
    -78912.80947    -20305.86947  21373777.2414   21373778.6124
     -1241.0164       -967.0254
 98  6 17 16 24 15.0030000  0  8G 4G 5G 7G 8G 9G16G30G24
   6970866.86547   5412449.83247  22025394.2804   22025394.6084
     -3643.3594      -2838.9814
  -2613717.38246  -2005836.13746  22591304.6244   22591305.8434
       177.5474        138.3484
  11711169.21745   9036545.70744  24764695.4444   24764697.3434
     -4341.0944      -3382.6704
  -1038031.63346   -784735.75946  22860892.7184   22860894.2184
      -988.7504       -770.4554
   6313718.73047   4919780.03646  22644104.1794   22644105.3744
     -3406.2974      -2654.2574
   3970890.94745   3067143.05143  25675462.7184   25675466.1754
     -2608.3754      -2032.5004
  -1091898.68445   -769190.59744  25218025.9524   25218027.0894
      1180.1884        919.6274
    -60198.85547     -5723.55747  21377338.6084   21377339.8154
     -1253.8444       -977.0214
 98  6 17 16 24 30.0030000  0  8G 4G 5G 7G 8G 9G16G30G24
   7025602.60847   5455101.06047  22035810.2654   22035810.8394
     -3654.7344      -2847.8454
  -2616328.45046  -2007870.72546  22590807.8904   22590808.9914
       170.5784        132.9184
  11776308.83945   9087303.80745  24777091.2964   24777095.4334
     -4344.2194      -3385.1064
  -1023102.38346   -773102.57346  22863733.4214   22863734.7924
     -1001.8124       -780.6334
   6364901.91347   4959663.03346  22653843.9914   22653845.0464
     -3418.1414      -2663.4864
   4010113.15245   3097705.80843  25682927.0854   25682929.9564
     -2621.2504      -2042.5324
  -1109574.91245   -782964.25143  25214662.2414   25214665.5344
      1176.6564        916.8754
    -41299.26047      9003.40447  21380934.9764   21380936.1714
     -1266.1254       -986.5914
 98  6 17 16 24 45.0030000  0  8G 4G 5G 7G 8G 9G16G30G24
   7080509.30547   5497885.49647  22046258.6554   22046259.2534
     -3666.0164      -2856.6364
  -2618833.84647  -2009822.97946  22590330.9524   22590331.7144
       163.6254        127.5004
  11841496.75245   9138099.52245  24789495.9054   24789500.0774
     -4347.3914      -3387.5774
  -1007975.50446   -761315.38946  22866611.9054   22866613.6404
     -1014.9844       -790.8974
   6416262.43347   4999684.21046  22663617.8044   22663618.8824
     -3429.7194      -2672.5084
   4049528.39845   3128418.98142  25690427.5304   25690433.0854
     -2633.9844      -2052.4554
  -1127199.28245   -796697.49643  25211308.2804   25211310.0504
      1173.4224        914.3554
    -22214.09547     23874.96647  21384566.7494   21384567.8974
     -1278.4064       -996.1614
 98  6 17 16 25  0.0030000  0  8G 4G 5G 7G 8G 9G16G30G24
   7135582.55047   5540799.71447  22056738.9684   22056739.4724
     -3677.1724      -2865.3294
  -2621239.19446  -2011697.26946  22589873.0304   22589874.2374
       157.0164        122.3504
  11906729.55445   9188930.22944  24801909.4684   24801912.6084
     -4350.3444      -3389.8784
   -992653.42946   -749376.11246  22869527.5304   22869529.1364
     -1028.0944       -801.1124
   6467790.75347   5039836.14346  22673423.2104   22673424.1364
     -3440.8124      -2681.1534
   4089131.58345   3159278.61442  25697963.3194   25697967.0344
     -2646.4534      -2062.1714
  -1144778.79744   -810395.77443  25207963.0074   25207965.2224
      1170.4694        912.0544
     -2948.48747     38887.13447  21388232.7964   21388234.0504
     -1290.4694      -1005.5604
 98  6 17 16 25 15.0030000  0  8G 4G 5G 7G 8G 9G16G30G24
   7190825.09547   5583845.85147  22067251.0224   22067251.6204
     -3688.4694      -2874.1314
  -2623545.33046  -2013494.23846  22589434.3434   22589435.2454
       150.5164        117.2854
  11972006.68445   9239795.59343  24814330.6164   24814332.4564
     -4353.2664      -3392.1554
   -977131.09146   -737280.78446  22872481.5624   22872483.1084
     -1041.5164       -811.5714
   6519489.38447   5080120.78246  22683261.1474   22683261.9444
     -3452.3444      -2690.1384
   4128922.51545   3190284.54143  25705535.5544   25705539.5264
     -2659.0624      -2071.9974
  -1162313.07244   -824058.81043  25204626.1404   25204629.2574
      1167.4384        909.6924
     16501.21047     54042.75247  21391933.9294   21391935.1014
     -1302.8124      -1015.1794
 98  6 17 16 25 30.0030000  0  8G 4G 5G 7G 8G 9G16G30G24
   7246236.98347   5627023.94047  22077795.5694   22077796.1084
     -3699.6724      -2882.8614
  -2625752.55646  -2015214.14846  22589014.3274   22589015.4994
       143.8594        112.0984
  12037330.02645   9290696.83343  24826760.9374   24826764.8274
     -4356.4844      -3394.6634
   -961405.65846   -725027.20146  22875473.8044   22875475.4214
     -1055.1094       -822.1634
   6571362.87347   5120541.68446  22693132.3044   22693133.3824
     -3464.0004      -2699.2214
   4168903.37544   3221438.45843  25713143.4994   25713147.8004
     -2671.5164      -2081.7004
  -1179800.12344   -837685.03843  25201298.5934   25201303.3274
      1164.2974        907.2444
     36136.88947     69343.28947  21395670.5224   21395671.8824
     -1315.1254      -1024.7734
 98  6 17 16 25 45.0030000  0  8G 4G 5G 7G 8G 9G16G30G24
   7301816.07447   5670332.32747  22088372.1014   22088372.4994
     -3710.6724      -2891.4334
  -2627860.63947  -2016856.78946  22588613.1794   22588613.8704
       137.4384        107.0944
  12102702.69745   9341636.52545  24839202.8194   24839206.4524
     -4359.7814      -3397.2324
   -945476.94846   -712615.21346  22878505.0154   22878506.6554
     -1068.6094       -832.6834
   6623409.82947   5161097.75046  22703036.4444   22703037.4054
     -3475.4694      -2708.1574
   4209066.97944   3252734.77542  25720786.2334   25720792.1404
     -2683.4534      -2091.0024
  -1197240.47443   -851274.86643  25197979.4214   25197981.8234
      1161.2194        904.8464
     55955.27247     84786.18947  21399441.7724   21399443.0034
     -1327.2034      -1034.1844
 98  6 17 16 26  0.0030000  0  8G 4G 5G 7G 8G 9G16G30G24
   7357553.19947   5713763.85047  22098978.5154   22098978.9134
     -3721.1724      -2899.6144
  -2629880.42346  -2018430.64746  22588228.6714   22588229.6204
       131.6414        102.5774
  12168121.38145   9392612.11245  24851651.1014   24851653.8434
     -4362.9844      -3399.7284
   -929350.46346   -700049.12046  22881573.7334   22881575.1874
     -1081.8914       -843.0324
   6675624.73847   5201784.68746  22712972.6794   22712973.6284
     -3486.6874      -2716.8994
   4249404.57244   3284166.68643  25728462.5384   25728468.3394
     -2695.1564      -2100.1224
  -1214638.87744   -864832.02243  25194668.3194   25194671.8824
      1158.3444        902.6064
     75950.02247    100366.52147  21403246.5624   21403247.5814
     -1339.0314      -1043.4014
 98  6 17 16 26 15.0030000  0  9G10G 4G 5G 7G 8G 9G16G30G24
     -8406.23253                  25809063.7964
      1050.4224
   7413451.90947   5757321.28047  22109615.7494   22109616.2294
     -3731.9844      -2908.0404
  -2631809.15147  -2019933.53246  22587861.7414   22587862.5264
       125.6094         97.8774
  12233593.48445   9443629.33643  24864108.8584   24864111.9644
     -4366.5474      -3402.5044
   -913020.57946   -687324.53246  22884681.1714   22884682.4724
     -1095.4064       -853.5634
   6728010.47547   5242604.73946  22722941.5224   22722942.6014
     -3497.9534      -2725.6784
   4289920.94245   3315737.85242  25736171.7964   25736175.0194
     -2706.9224      -2109.2904
  -1231990.23844   -878352.55243  25191366.3904   25191369.0384
      1155.2194        900.1704
     96126.42647    116088.40147  21407086.1404   21407087.3234
     -1351.0624      -1052.7764
 98  6 17 16 26 30.0030000  0  9G10G 4G 5G 7G 8G 9G16G30G24
    -24150.63044                  25806067.8974
      1048.8444
   7469513.12247   5801005.34447  22120283.9374   22120284.3354
     -3742.8124      -2916.4774
  -2633645.79446  -2021364.67846  22587512.0624   22587513.5384
       119.2504         92.9224
  12299119.84545   9494688.80744  24876579.0304   24876585.1594
     -4370.3124      -3405.4384
   -896486.57546   -674440.88746  22887827.5224   22887828.8704
     -1109.1094       -864.2414
   6780564.23247   5283555.71246  22732942.1634   22732943.1834
     -3509.1564      -2734.4074
   4330612.06745   3347445.26643  25743915.1874   25743921.4334
     -2718.5004      -2118.3124
  -1249294.18345   -891836.11643  25188074.1404   25188076.9524
      1151.9844        897.6504
    116483.11147    131950.75947  21410959.9214   21410961.1634
     -1363.1254      -1062.1754
 98  6 17 16 26 45.0040000  0  9G10G 4G 5G 7G 8G 9G16G30G24
    -39875.02844                  25803074.9264
      1047.6884
   7525735.45847   5844814.95047  22130982.4184   22130982.8164
     -3752.8914      -2924.3304
  -2635387.70047  -2022721.98946  22587180.9494   22587181.7344
       113.0784         88.1134
  12364703.76445   9545793.12645  24889059.7234   24889064.0234
     -4373.5944      -3407.9954
   -879750.03046   -661399.42146  22891012.6294   22891013.7424
     -1122.1724       -874.4204
   6833284.43447   5324636.38246  22742974.3554   22742975.2234
     -3519.5944      -2742.5414
   4371473.49345   3379285.30943  25751691.4884   25751696.6564
     -2729.1414      -2126.6034
  -1266553.29545   -905284.73544  25184789.8554   25184790.9104
      1149.1414        895.4344
    137017.87547    147951.88147  21414867.5354   21414868.7774
     -1374.5474      -1071.0754
 98  6 17 16 27  0.0040000  0  9G10G 4G 5G 7G 8G 9G16G30G24
    -55579.23743                  25800086.6294
      1046.1414
   7582107.11647   5888740.92047  22141709.6994   22141710.1454
     -3763.3444      -2932.4764
  -2637035.58546  -2024006.05146  22586866.8404   22586868.0704
       106.6564         83.1094
  12430334.01045   9596933.55544  24901548.2074   24901551.7704
     -4377.1094      -3410.7354
   -862816.97646   -648204.83546  22894234.6524   22894235.3204
     -1135.5624       -884.8544
   6886158.80147   5365837.18046  22753036.2074   22753037.1334
     -3530.3284      -2750.9054
   4412492.17145   3411247.90543  25759496.6374   25759502.5084
     -2740.0164      -2135.0774
  -1283764.95645   -918696.36844  25181514.2074   25181515.9414
      1145.7034        892.7564
    157723.74447    164086.33047  21418807.6214   21418808.8984
     -1386.2034      -1080.1584
 98  6 17 16 27 15.0040000  0  9G10G 4G 5G 7G 8G 9G16G30G24
    -71258.66343                  25797102.4104
      1044.5634
   7638636.29147   5932789.62647  22152466.7384   22152467.1724
     -3773.8124      -2940.6334
  -2638586.78747  -2025214.76546  22586571.9264   22586572.7704
       100.2034         78.0804
  12496015.63945   9648114.01943  24914046.4414   24914048.8444
     -4380.3444      -3413.2554
   -845684.52446   -634854.86446  22897494.9024   22897496.0514
     -1148.6564       -895.0574
   6939195.32647   5407164.34446  22763128.5904   22763129.4574
     -3541.1874      -2759.3674
   4453673.22945   3443337.03343  25767333.8874   25767337.1804
     -2750.7034      -2143.4054
  -1300923.53845   -932066.66343  25178249.8094   25178251.6844
      1142.1414        889.9804
    178605.16847    180357.58046  21422781.5124   21422782.6954
     -1397.9224      -1089.2904
 98  6 17 16 27 30.0040000  0  9G10G 4G 5G 7G 8G 9G16G30G24
    -86920.00343     -4878.82052  25794122.9414   25794130.1294
      1043.4534        813.0804
   7695318.24447   5976957.37347  22163253.0594   22163253.7274
     -3783.9224      -2948.5114
  -2640042.86946  -2026349.36546  22586294.8014   22586295.7154
        93.7034         73.0154
  12561742.58845   9699329.79544  24926555.0984   24926556.0594
     -4383.4694      -3415.6904
   -828360.70746   -621355.78246  22900791.6604   22900792.9374
     -1161.3444       -904.9434
   6992390.61147   5448615.20946  22773251.2384   22773252.1874
     -3551.6094      -2767.4884
   4495011.17345   3475548.43642  25775199.6684   25775203.2424
     -2761.1724      -2151.5624
  -1318031.27745   -945397.31643  25174993.6914   25174996.1524
      1138.6884        887.2894
    199658.30547    196762.62947  21426787.4734   21426789.0434
     -1409.3284      -1098.1784
 98  6 17 16 27 45.0040000  0  9G10G 4G 5G 7G 8G 9G16G30G24
   -102561.68843    -17067.00842  25791146.2304   25791153.5124
      1042.0314        811.9724
   7752154.42947   6021245.30747  22174068.4734   22174068.9884
     -3794.3914      -2956.6684
  -2641396.77247  -2027404.33946  22586037.1524   22586038.1374
        86.7034         67.5614
  12627519.52446   9750584.58445  24939072.7304   24939074.9804
     -4386.8444      -3418.3204
   -810844.78246   -607707.01346  22904124.9344   22904126.0354
     -1174.2034       -914.9634
   7045742.59447   5490188.17346  22783404.1054   22783404.9264
     -3562.1094      -2775.6704
   4536506.71245   3507882.61843  25783096.4024   25783101.9344
     -2771.7034      -2159.7694
  -1335083.78045   -958684.96243  25171748.9414   25171752.0124
      1134.8754        884.3184
    220885.86247    213303.58947  21430827.0274   21430828.3164
     -1421.1414      -1107.3824
 98  6 17 16 28  0.0040000  0  9G10G 4G 5G 7G 8G 9G16G30G24
   -118184.67244    -29240.73542  25788173.5434   25788178.2194
      1041.0634        811.2184
   7809147.93447   6065655.82647  22184914.1214   22184914.7664
     -3804.7664      -2964.7524
  -2642647.49547  -2028378.91846  22585799.1454   22585799.8484
        80.0474         62.3744
  12693343.60544   9801876.03144  24951595.9104   24951599.8124
     -4389.6564      -3420.5114
   -793136.67846   -593908.48046  22907494.3874   22907495.8754
     -1186.8914       -924.8504
   7099251.56447   5531883.46446  22793586.6054   22793587.3794
     -3572.4224      -2783.7054
   4578160.70845   3540340.24743  25791022.4654   25791025.3714
     -2782.2664      -2167.9994
  -1352081.37344   -971929.80243  25168514.5514   25168517.3404
      1131.4844        881.6764
    242290.36947    229982.43447  21434900.1684   21434901.4344
     -1432.8444      -1116.5024
 98  6 17 16 28 15.0040000  0  9G10G 4G 5G 7G 8G 9G16G30G24
   -133791.01343    -41401.55741  25785202.3244   25785208.4414
      1039.8444        810.2684
   7866300.46347   6110190.25847  22195789.9344   22195790.4144
     -3815.5314      -2973.1414
  -2643794.50247  -2029272.67246  22585581.1294   22585581.9734
        72.9224         56.8224
  12759209.61344   9853200.06543  24964130.4264   24964136.6374
     -4392.3444      -3422.6064
   -775236.44546   -579960.24546  22910900.7624   22910901.9104
     -1199.7194       -934.8464
   7152917.23447   5573700.85746  22803798.4964   22803799.3984
     -3582.8754      -2791.8514
   4619977.45045   3572924.74643  25798979.9264   25798981.9774
     -2793.2034      -2176.5224
  -1369026.25645   -985133.58943  25165289.5664   25165292.0744
      1128.0004        878.9614
    263872.25147    246799.49146  21439007.0744   21439008.3164
     -1444.5784      -1125.6454
 98  6 17 16 28 30.0040000  0  9G10G 4G 5G 7G 8G 9G16G30G24
   -149377.27743    -53546.49042  25782236.1604   25782243.2664
      1038.5004        809.2214
   7923617.06747   6154852.54747  22206696.8714   22206697.3984
     -3826.4694      -2981.6644
  -2644832.50047  -2030081.50046  22585383.3634   22585384.2304
        65.6884         51.1854
  12825116.13545   9904555.72644  24976673.7074   24976677.5044
     -4395.0164      -3424.6874
   -757143.97046   -565862.20846  22914344.0664   22914345.1914
     -1212.4374       -944.7564
   7206740.19147   5615640.81646  22814040.7074   22814041.5984
     -3593.3594      -2800.0204
   4661959.16945   3605637.79542  25806969.1294   25806971.9534
     -2804.2664      -2185.1424
  -1385918.83945   -998296.60443  25162075.3094   25162077.5704
      1124.5004        876.2344
    285629.92447    263753.53346  21443147.2624   21443148.5624
     -1456.2504      -1134.7404
 98  6 17 16 28 45.0040000  0  9G10G 4G 5G 7G 8G 9G16G30G24
   -164940.20344    -65673.31243  25779275.7624   25779281.4804
      1036.8284        807.9184
   7981098.18047   6199643.01947  22217635.1054   22217635.7034
     -3837.4064      -2990.1874
  -2645760.35647  -2030804.48746  22585206.7774   22585207.9024
        58.3134         45.4384
  12891065.95646   9955945.29244  24989223.5904   24989223.1804
     -4397.9844      -3427.0014
   -738858.25846   -551613.60546  22917823.5434   22917824.6094
     -1225.3284       -954.8014
   7260723.06947   5657705.38846  22824313.7154   22824314.5704
     -3604.0474      -2808.3484
   4704111.07745   3638483.40642  25814989.7544   25814994.3484
     -2815.7194      -2194.0674
  -1402756.64545  -1011416.97244  25158870.7704   25158872.1874
      1120.8754        873.4094
    307563.05447    280844.28746  21447321.0514   21447322.1294
     -1467.8914      -1143.8114
 98  6 17 16 29  0.0040000  0  9G10G 4G 5G 7G 8G 9G16G30G24
   -180484.57043    -77785.85742  25776317.2774   25776321.0394
      1035.6254        806.9814
   8038737.35547   6244556.65547  22228603.4264   22228603.8014
     -3848.0004      -2998.4424
  -2646585.45047  -2031447.40646  22585049.9494   22585051.3674
        51.5634         40.1794
  12957052.09245  10007363.07644  25001779.0744   25001780.6094
     -4400.3754      -3428.8644
   -720388.34746   -537221.45746  22921338.0354   22921339.1724
     -1237.4374       -964.2374
   7314858.79847   5699889.06746  22834614.9184   22834615.8444
     -3614.2344      -2816.2874
   4746428.04045   3671457.63242  25823043.0824   25823047.1604
     -2826.7504      -2202.6624
  -1419548.14545  -1024501.19144  25155675.2774   25155678.4534
      1117.8754        871.0714
    329662.91647    298064.96946  21451526.7154   21451527.9804
     -1478.9534      -1152.4314
 98  6 17 16 29 15.0040000  0  9G10G 4G 5G 7G 8G 9G16G30G24
   -196008.19342    -89882.04142  25773362.9104   25773368.8984
      1034.3134        805.9584
   8096540.78047   6289598.27847  22239603.2234   22239603.6804
     -3859.0164      -3007.0254
  -2647305.83847  -2032008.73246  22584912.9964   22584913.8404
        44.5314         34.7004
  13023078.89445  10058812.48043  25014343.3244   25014348.7734
     -4403.1094      -3430.9944
   -701732.96246   -522684.79446  22924888.1524   22924889.5124
     -1249.8284       -973.8924
   7369151.70347   5742195.22446  22844946.6134   22844947.5984
     -3624.7194      -2824.4564
   4788915.51445   3704564.77142  25831128.4494   25831132.9494
     -2838.1724      -2211.5624
  -1436292.68045  -1037548.85244  25152488.8954   25152491.4144
      1114.8754        868.7344
    351933.52447    315418.69946  21455764.5664   21455765.7854
     -1490.3444      -1161.3074
 98  6 17 16 29 30.0040000  0  9G10G 4G 5G 7G 8G 9G16G30G24
   -211509.80143   -101961.14442  25770412.9804   25770418.7814
      1032.9694        804.9114
   8154512.74447   6334771.23147  22250634.8714   22250635.3164
     -3870.2034      -3015.7434
  -2647915.12547  -2032483.49346  22584796.7854   22584797.6874
        37.0634         28.8804
  13089151.34845  10110297.43344  25026916.2624   25026923.0474
     -4406.2504      -3433.4424
   -682889.03946   -508001.21246  22928473.9494   22928475.3204
     -1262.3754       -983.6694
   7423605.11647   5784626.44246  22855309.0984   22855310.0124
     -3635.4064      -2832.7844
   4831578.64645   3737808.77942  25839246.5904   25839250.5164
     -2849.8754      -2220.6824
  -1452990.07545  -1050559.71644  25149311.4024   25149313.4304
      1111.8134        866.3474
    374378.96247    332908.65747  21460035.8164   21460037.1054
     -1502.0314      -1170.4144
 98  6 17 16 29 45.0040000  0  9G10G 4G 5G 7G 8G 9G16G30G24
   -226999.42243   -114030.84642  25767464.9804   25767471.5664
      1032.1724        804.2904
   8212642.69747   6380067.29747  22261696.6914   22261697.1954
     -3880.5624      -3023.8154
  -2648420.58047  -2032877.34646  22584700.4494   22584701.2344
        30.2194         23.5474
  13155264.10945  10161813.83245  25039497.5664   25039502.8404
     -4408.8754      -3435.4874
   -663863.92946   -493176.45746  22932094.2304   22932095.4024
     -1274.4374       -993.0684
   7478210.56047   5827176.13346  22865700.0354   22865700.8914
     -3645.5164      -2840.6624
   4874409.11645   3771183.13642  25847396.5434   25847400.5744
     -2861.0004      -2229.3514
  -1469651.08144  -1063542.27744  25146141.2544   25146143.3284
      1109.4694        864.5214
    396991.49647    350528.81947  21464338.8164   21464340.1294
     -1513.1094      -1179.0464
 98  6 17 16 30  0.0040000  0  9G10G 4G 5G 7G 8G 9G16G30G24
   -242470.45143   -126086.11842  25764522.1054   25764527.8594
      1030.6564        803.1094
   8270934.86147   6425489.75547  22272789.2544   22272789.7464
     -3891.7194      -3032.5084
  -2648817.44447  -2033186.58146  22584625.1294   22584626.1024
        22.7194         17.7034
  13221421.73745  10213365.21544  25052087.0514   25052091.7384
     -4412.1094      -3438.0074
   -644650.18346   -478204.70646  22935750.5274   22935751.7464
     -1287.4224      -1003.1864
   7532977.34647   5869851.53846  22876121.7854   22876122.8524
     -3656.7664      -2849.4284
   4917415.38345   3804694.49642  25855580.5824   25855582.9964
     -2873.2194      -2238.8724
  -1486269.78445  -1076491.85444  25142978.9574   25142982.0864
      1106.3444        862.0864
    419777.91447    368284.47647  21468675.0044   21468676.2704
     -1525.0784      -1188.3734
 98  6 17 16 30 15.0040000  0  9G10G 4G 5G 7G 8G 9G16G30G24
   -257922.43043   -138126.59242  25761580.5824   25761585.8324
      1029.1254        801.9164
   8329389.94847   6471039.16647  22283912.6914   22283913.1844
     -3902.7034      -3041.0674
  -2649106.44247  -2033411.75946  22584570.0514   22584571.2704
        15.3594         11.9684
  13287623.99645  10264951.34144  25064685.6294   25064690.2344
     -4415.3914      -3440.5644
   -625245.37846   -463084.07046  22939443.0514   22939444.6684
     -1300.2814      -1013.2064
   7587909.61447   5912655.89246  22886574.9184   22886575.8794
     -3667.9694      -2858.1574
   4960602.23844   3838346.58642  25863798.6844   25863802.4224
     -2885.4374      -2248.3934
  -1502845.39945  -1089407.89944  25139824.5744   25139827.2584
      1103.2504        859.6754
    442739.11847    386176.33647  21473044.3954   21473045.7304
     -1536.8444      -1197.5414
 98  6 17 16 30 30.0040000  0  9G10G 4G 5G 7G 8G 9G16G30G24
   -273349.51443   -150147.51242  25758645.0824   25758652.0704
      1027.7194        800.8204
   8388008.16047   6516715.69247  22295067.6214   22295068.1374
     -3913.1254      -3049.1884
  -2649284.45847  -2033550.46046  22584536.1134   22584537.2854
         8.2974          6.4654
  13353877.48745  10316577.45443  25077292.3484   25077293.6844
     -4418.5784      -3443.0484
   -605648.62746   -447813.87646  22943172.1604   22943173.5784
     -1312.7504      -1022.9224
   7643009.81247   5955591.10546  22897060.0744   22897061.0474
     -3678.8284      -2866.6194
   5003971.14844   3872140.50842  25872051.6454   25872057.8324
     -2897.1094      -2257.4884
  -1519373.45645  -1102286.89343  25136679.3094   25136681.6764
      1100.3754        857.4354
    465876.42247    404205.40946  21477447.0664   21477448.4264
     -1548.2814      -1206.4534
 98  6 17 16 30 45.0040000  0  9G10G 4G 5G 7G 8G 9G16G30G24
   -288756.70243   -162153.18242  25755713.5744   25755716.2114
      1026.5314        799.8944
   8446779.24347   6562511.33647  22306251.3634   22306251.8674
     -3923.0474      -3056.9204
  -2649358.80647  -2033608.38546  22584522.0984   22584522.9304
         1.5474          1.2054
  13420178.97645  10368240.91343  25089908.5124   25089912.6374
     -4421.6254      -3445.4224
   -585865.51346   -432398.45846  22946936.9344   22946938.2934
     -1325.0314      -1032.4924
   7698271.64047   5998652.25846  22907576.0664   22907577.2624
     -3689.4694      -2874.9114
   5047513.62045   3906069.73142  25880337.2464   25880342.3204
     -2908.5474      -2266.4004
  -1535858.36745  -1115132.24843  25133542.5354   25133543.3914
      1097.5784        855.2564
    489186.46647    422369.08747  21481883.0124   21481884.2194
     -1559.7814      -1215.4144
 98  6 17 16 31  0.0040000  0  9G10G 4G 5G 7G 8G 9G16G30G24
   -304145.15743   -174144.03942  25752784.6454   25752791.1134
      1025.4534        799.0544
   8505700.37147   6608423.89747  22317463.8014   22317464.4344
     -3932.9374      -3064.6274
  -2649328.38347  -2033584.66946  22584527.8484   22584528.8674
        -5.4534         -4.2494
  13486526.48645  10419940.26743  25102534.3014   25102539.1994
     -4424.4374      -3447.6144
   -565896.74846   -416838.37446  22950736.9734   22950738.3554
     -1337.2664      -1042.0254
   7753694.12047   6041838.59446  22918122.7774   22918123.9374
     -3700.0004      -2883.1174
   5091227.51645   3940132.47342  25888655.5514   25888661.2114
     -2919.7034      -2275.0934
  -1552301.09345  -1127944.75343  25130412.8874   25130413.6604
      1094.9534        853.2104
    512672.13347    440669.61646  21486352.0664   21486353.2384
     -1571.5164      -1224.5584
 98  6 17 16 31 15.0040000  0  9G10G 4G 5G 7G 8G 9G16G30G24
   -319512.80744   -186118.66942  25749861.5824   25749866.3524
      1023.8284        797.7884
   8564773.65847   6654455.02547  22328705.0434   22328705.7344
     -3943.2504      -3072.6624
  -2649187.69047  -2033475.02946  22584554.7074   22584555.5394
       -13.1094        -10.2154
  13552919.67245  10471675.17844  25115169.8484   25115174.3834
     -4427.8124      -3450.2444
   -545739.11446   -401131.13546  22954572.6994   22954573.9654
     -1350.2974      -1052.1794
   7809280.06647   6085152.30546  22928700.6214   22928701.6644
     -3711.2814      -2891.9074
   5135112.22944   3974328.35042  25897007.4344   25897011.4064
     -2931.3594      -2284.1764
  -1568700.01345  -1140723.10444  25127292.1604   25127293.5314
      1091.7344        850.7024
    536338.78847    459111.17247  21490855.6994   21490857.0234
     -1583.8594      -1234.1764
 98  6 17 16 31 30.0040000  0  9G10G 4G 5G 7G 8G 9G16G30G24
   -334858.34243   -198076.24042  25746941.0594   25746944.8914
      1022.3754        796.6564
   8623999.67047   6700605.15747  22339975.2934   22339975.8914
     -3953.2664      -3080.4674
  -2648932.35947  -2033276.05746  22584603.3404   22584604.5234
       -20.6724        -16.1084
  13619361.01545  10523447.59145  25127813.9024   25127817.6994
     -4430.7194      -3452.5084
   -525384.75746   -385270.59146  22958445.7934   22958447.0004
     -1363.3754      -1062.3704
   7865034.23747   6128597.09646  22939310.1134   22939311.1804
     -3722.3594      -2900.5404
   5179171.31044   4008660.06642  25905391.2704   25905395.0664
     -2942.9374      -2293.1984
  -1585050.62144  -1153463.79043  25124180.6684   25124182.0984
      1088.5784        848.2434
    560190.42547    477696.86847  21495394.4574   21495395.6994
     -1596.0944      -1243.7094
 98  6 17 16 31 45.0040000  0  9G10G 4G 5G 7G 8G 9G16G30G24
   -350181.41443   -210016.18742  25744024.2774   25744032.4144
      1020.8134        795.4384
   8683373.37547   6746870.37847  22351273.5354   22351273.8984
     -3963.0624      -3088.1014
  -2648566.22747  -2032990.74946  22584672.8714   22584673.9964
       -27.9374        -21.7694
  13685843.01245  10575251.73244  25140463.7704   25140466.4534
     -4433.3754      -3454.5784
   -504836.43246   -369258.90946  22962355.8874   22962357.2344
     -1376.3444      -1072.4764
   7920953.66547   6172170.66146  22949951.0824   22949952.1484
     -3733.3914      -2909.1364
   5223402.20144   4043125.71042  25913808.2544   25913814.2074
     -2954.3124      -2302.0624
  -1601354.97844  -1166168.43244  25121078.7704   25121081.1254
      1085.4534        845.8084
    584224.33847    496424.60246  21499968.1454   21499969.3984
     -1608.2664      -1253.1944
 98  6 17 16 32  0.0040000  0  9G10G 4G 5G 7G 8G 9G16G30G24
   -365484.44843   -221940.61742  25741112.2854   25741117.5944
      1019.5314        794.4404
   8742889.48447   6793246.56347  22362599.1914   22362599.6134
     -3972.5314      -3095.4794
  -2648096.33947  -2032624.59446  22584761.9654   22584763.1134
       -34.7814        -27.1024
  13752359.95045  10627083.08543  25153121.2154   25153125.3054
     -4435.6094      -3456.3194
   -484095.39646   -353097.05646  22966303.2154   22966304.5984
     -1389.2034      -1082.4964
   7977033.75947   6215869.42746  22960623.0044   22960624.0594
     -3744.0004      -2917.4034
   5267800.07444   4077721.43742  25922256.4574   25922260.8634
     -2965.5004      -2310.7794
  -1617614.93345  -1178838.47044  25117984.0594   25117985.6764
      1082.4694        843.4824
    608435.23747    515290.24446  21504575.2234   21504576.4884
     -1619.9224      -1262.2774
 98  6 17 16 32 15.0040000  0  9G10G 4G 5G 7G 8G 9G16G30G24
   -380765.34243   -233847.74342  25738204.9024   25738211.6764
      1017.8594        793.1374
   8802552.04347   6839736.86347  22373952.7624   22373953.1024
     -3982.5004      -3103.2474
  -2647522.17347  -2032177.17046  22584871.3324   22584872.3984
       -41.7814        -32.5574
  13818912.60845  10678942.21542  25165785.9734   25165790.1214
     -4438.0624      -3458.2314
   -463159.38546   -336783.28446  22970287.2234   22970288.0554
     -1402.2974      -1092.6994
   8033274.04647   6259693.01346  22971325.0904   22971326.2624
     -3754.6564      -2925.7064
   5312368.18244   4112449.79942  25930737.5354   25930741.7664
     -2976.8284      -2319.6064
  -1633827.91845  -1191471.93044  25114899.0824   25114902.1764
      1079.3444        841.0474
    632822.99847    534293.70347  21509216.0664   21509217.1914
     -1631.6874      -1271.4454
 98  6 17 16 32 30.0040000  0  9G10G 4G 5G 7G 8G 9G16G30G24
   -396022.07744   -245736.00043  25735301.5824   25735305.6844
      1016.2034        791.8474
   8862361.94147   6886341.97747  22385333.8714   22385334.3634
     -3992.2664      -3110.8564
  -2646844.15346  -2031648.83946  22585000.6054   22585001.6484
       -48.6724        -37.9264
  13885500.65245  10730829.04642  25178457.4414   25178458.8364
     -4440.4374      -3460.0814
   -442029.69746   -320318.59246  22974308.0664   22974309.1914
     -1415.1414      -1102.7074
   8089670.39247   6303638.20846  22982057.0824   22982058.0664
     -3764.9064      -2933.6934
   5357102.41544   4147307.64242  25939250.8794   25939254.9344
     -2987.7814      -2328.1414
  -1649996.78345  -1204071.03444  25111822.4804   25111824.9304
      1076.4224        838.7704
    657384.13147    553432.25146  21513889.8324   21513890.9924
     -1643.2504      -1280.4554
 98  6 17 16 32 45.0040000  0  9G10G 4G 5G 7G 8G 9G16G30G24
   -411257.91143   -257608.08042  25732400.9884   25732406.7894
      1015.2194        791.0804
   8922314.43947   6933058.20247  22396742.8324   22396743.2304
     -4001.4694      -3118.0284
  -2646067.81847  -2031043.89146  22585148.1604   22585149.2624
       -54.8914        -42.7724
  13952118.84845  10782739.30443  25191134.4024   25191136.6874
     -4442.0474      -3461.3354
   -420709.21846   -303705.23346  22978365.4804   22978366.6764
     -1427.6874      -1112.4844
   8146215.15847   6347699.04346  22992817.2074   22992818.4614
     -3774.4534      -2941.1324
   5401995.96644   4182289.56442  25947793.8244   25947797.7974
     -2998.1094      -2336.1894
  -1666126.56545  -1216639.66844  25108752.7234   25108753.4264
      1074.0944        836.9564
    682115.49947    572703.45746  21518596.0664   21518597.2974
     -1654.3594      -1289.1114
 98  6 17 16 33  0.0040000  0  9G10G 4G 5G 7G 8G 9G16G30G24
   -426472.64045   -269463.58442  25729507.2854   25729513.1214
      1013.6414        789.8504
   8982413.54947   6979888.67247  22408179.1684   22408179.7424
     -4011.5474      -3125.8814
  -2645190.26047  -2030360.06746  22585315.3164   22585316.3594
       -61.9374        -48.2634
  14018768.33544  10834673.92743  25203816.7624   25203823.0904
     -4444.2814      -3463.0764
   -399192.88146   -286939.25246  22982459.6844   22982460.3524
     -1440.9224      -1122.7964
   8202910.13247   6391876.92346  23003605.8714   23003606.7974
     -3784.6874      -2949.1074
   5447052.24744   4217398.37442  25956367.5514   25956374.2544
     -3009.1874      -2344.8214
  -1682212.93645  -1229174.45044  25105691.6374   25105693.3014
      1070.9694        834.5214
    707020.65847    592110.08046  21523335.4494   21523336.5984
     -1666.0944      -1298.2554
 98  6 17 16 33 15.0040000  0  9G10G 4G 5G 7G 8G 9G16G30G24
   -441665.21444   -281301.95142  25726615.3874   25726620.9304
      1012.0314        788.5964
   9042661.87647   7026835.41547  22419644.1684   22419644.6484
     -4021.5944      -3133.7094
  -2644209.30746  -2029595.67846  22585501.6764   22585502.9184
       -68.7814        -53.5964
  14085450.05245  10886633.62343  25216506.5984   25216510.6174
     -4446.6414      -3464.9154
   -377479.13746   -270019.45446  22986591.5514   22986592.4414
     -1454.2664      -1133.1944
   8259757.08047   6436173.22846  23014423.1914   23014424.3874
     -3794.9374      -2957.0944
   5492271.72544   4252634.32443  25964972.3874   25964975.9024
     -3020.1414      -2353.3564
  -1698253.61945  -1241673.63444  25102638.6134   25102640.6874
      1067.7034        831.9764
    732099.01647    611651.66446  21528107.7304   21528108.8674
     -1677.6564      -1307.2654
 98  6 17 16 33 30.0040000  0  9G10G 4G 5G 7G 8G 9G16G30G24
   -456834.77144   -293122.30342  25723728.3794   25723733.8054
      1010.6564        787.5244
   9103060.85547   7073899.55147  22431137.7304   22431138.2464
     -4031.5624      -3141.4774
  -2643129.32446  -2028754.11746  22585707.3164   22585708.4304
       -75.1094        -58.5274
  14152167.29245  10938621.05844  25229203.1844   25229206.1954
     -4448.9224      -3466.6924
   -355566.09746   -252944.35546  22990761.7234   22990763.1054
     -1467.3914      -1143.4214
   8316756.97747   6480588.70646  23025270.0984   23025271.1764
     -3804.9224      -2964.8744
   5537655.29544   4287998.08442  25973608.0824   25973612.8284
     -3031.0164      -2361.8304
  -1714244.42645  -1254133.96844  25099596.4804   25099598.4614
      1064.5004        829.4814
    757348.45447    631326.55947  21532912.5354   21532913.6374
     -1688.8594      -1315.9944
 98  6 17 16 33 45.0040000  0  9G10G 4G 5G 7G 8G 9G16G30G24
   -471981.81744   -304925.16742  25720845.5434   25720852.2114
      1008.9844        786.2224
   9163610.96947   7121081.45547  22442659.9104   22442660.5664
     -4041.7504      -3149.4164
  -2641956.24246  -2027840.02146  22585930.5124   22585931.5204
       -81.1874        -63.2634
  14218918.47345  10990634.95643  25241905.0594   25241908.6454
     -4451.2344      -3468.4944
   -333457.17046   -235716.62346  22994968.7234   22994969.9774
     -1480.4064      -1153.5634
   8373904.57047   6525119.28346  23036145.0434   23036146.0394
     -3814.7194      -2972.5084
   5583203.84743   4323490.46342  25982276.3634   25982281.6254
     -3042.1094      -2370.4754
  -1730186.88145  -1266556.62545  25096562.7544   25096564.5474
      1061.2814        826.9724
    782766.48547    651132.82346  21537749.1844   21537750.3914
     -1700.1094      -1324.7614
 98  6 17 16 34  0.0040000  0  9G10G 4G 5G 7G 8G 9G16G30G24
   -487106.12944   -316710.33443  25717967.6134   25717973.2504
      1007.5474        785.1014
   9224312.13147   7168381.05547  22454211.0904   22454211.6414
     -4051.8284      -3157.2694
  -2640694.55146  -2026856.87146  22586170.6054   22586171.7544
       -87.1414        -67.9024
  14285705.25844  11042676.57942  25254613.1764   25254616.1054
     -4453.7974      -3470.4914
   -311153.67846   -218337.28246  22999212.7304   22999213.9614
     -1493.4694      -1163.7424
   8431197.04347   6569762.75746  23047047.4104   23047048.2304
     -3824.3444      -2980.0084
   5628915.95743   4359110.24941  25990975.0354   25990982.0824
     -3052.9844      -2378.9494
  -1746082.62345  -1278942.89945  25093538.0204   25093539.0044
      1058.0944        824.4894
    808350.33447    671068.29946  21542617.8794   21542619.0744
     -1711.1564      -1333.3694
 98  6 17 16 34 15.0040000  0  9G10G 4G 5G 7G 8G 9G16G30G24
   -502211.42444   -328480.59342  25715094.2544   25715098.7894
      1006.2664        784.1034
   9285162.56547   7215796.97047  22465790.5594   22465791.2734
     -4061.7814      -3165.0244
  -2639345.29246  -2025805.49346  22586427.2544   22586428.2154
       -93.0164        -72.4804
  14352528.69744  11094746.79742  25267329.8634   25267337.3324
     -4456.1564      -3472.3304
   -288656.84146   -200807.28046  23003493.8714   23003494.6684
     -1506.2664      -1173.7134
   8488631.78647   6614517.08946  23057976.9734   23057977.9104
     -3833.8284      -2987.3994
   5674790.41344   4394856.56642  25999705.0124   25999710.0624
     -3063.8444      -2387.4114
  -1761932.74845  -1291293.61145  25090521.3404   25090523.2384
      1055.0944        822.1514
    834098.42547    691131.75647  21547517.6844   21547518.9144
     -1722.1254      -1341.9164
 98  6 17 16 34 30.0040000  0  9G10G 4G 5G 7G 8G 9G16G30G24
   -517289.10944   -340229.42542  25712224.5044   25712229.6954
      1004.4384        782.6794
   9346169.61047   7263334.92647  22477399.8554   22477400.5354
     -4072.1414      -3173.0974
  -2637899.10846  -2024678.58846  22586702.5594   22586704.0354
       -99.5314        -77.5574
  14419394.01445  11146849.58843  25280054.8014   25280057.7424
     -4458.9694      -3474.5214
   -265961.91946   -183122.92346  23007812.4734   23007813.4454
     -1519.4224      -1183.9654
   8546216.70047   6659388.44246  23068935.1294   23068936.0904
     -3843.8594      -2995.2154
   5720833.96243   4430734.62342  26008466.2304   26008471.2934
     -3075.0314      -2396.1284
  -1777731.06945  -1303603.95943  25087514.4104   25087516.9884
      1051.6094        819.4364
    860019.00147    711329.61547  21552450.1914   21552451.4694
     -1733.6414      -1350.8894
 98  6 17 16 34 45.0040000  0  9G10G 4G 5G 7G 8G 9G16G30G24
   -532342.56545   -351959.32942  25709360.4574   25709365.9184
      1002.7664        781.3764
   9407327.32547   7310990.27747  22489037.8164   22489038.5084
     -4082.1724      -3180.9134
  -2636356.95447  -2023476.88646  22586995.8714   22586997.2424
      -106.0314        -82.6224
  14486300.90845  11198984.78844  25292786.3404   25292788.5204
     -4461.9694      -3476.8594
   -243071.78246   -165286.45246  23012168.4344   23012169.3954
     -1532.5784      -1194.2174
   8603949.83847   6704375.28646  23079921.0354   23079922.0904
     -3853.8444      -3002.9954
   5767042.78243   4466741.51642  26017260.0124   26017264.3244
     -3086.1724      -2404.8094
  -1793477.38644  -1315873.73644  25084518.4414   25084521.2544
      1047.9384        816.5754
    886111.28947    731661.27747  21557415.3874   21557416.6294
     -1745.2974      -1359.9724
 98  6 17 16 35  0.0040000  0  9G10G 4G 5G 7G 8G 9G16G30G24
   -547373.15844   -363671.42642  25706499.5824   25706506.0164
      1001.6564        780.5114
   9468633.66647   7358761.44547  22500704.0204   22500704.6524
     -4091.6564      -3188.3044
  -2634717.88846  -2022199.69346  22587307.9344   22587308.9064
      -112.2504        -87.4684
  14553252.12545  11251154.53843  25305526.2234   25305529.0354
     -4464.5314      -3478.8564
   -219985.99346   -147297.53046  23016561.3094   23016562.8794
     -1545.1724      -1204.0304
   8661832.86947   6749478.93646  23090936.0514   23090937.0594
     -3863.5944      -3010.5934
   5813420.34843   4502879.85142  26026085.4104   26026091.3634
     -3097.0944      -2413.3204
  -1809169.40345  -1328101.26944  25081532.3554   25081533.4574
      1044.6094        813.9814
    912376.29947    752127.52446  21562413.4804   21562414.6294
     -1756.3284      -1368.5674
 98  6 17 16 35 15.0040000  0  9G10G 4G 5G 7G 8G 9G16G30G24
   -562386.46644   -375370.06442  25703642.3324   25703645.6134
      1000.0634        779.2694
   9530082.75747   7406643.85047  22512397.2854   22512397.8124
     -4101.6094      -3196.0594
  -2632983.89047  -2020848.51146  22587637.8324   22587638.8284
      -118.9374        -92.6794
  14620241.75845  11303354.24643  25318274.2934   25318276.5204
     -4467.4374      -3481.1204
   -196711.86646   -129161.84746  23020990.4184   23020991.5554
     -1558.0474      -1214.0624
   8719863.76747   6794697.80146  23101978.8794   23101979.8284
     -3873.8914      -3018.6164
   5859961.42443   4539145.56942  26034941.4964   26034948.3914
     -3108.3914      -2422.1234
  -1824811.04745  -1340289.54644  25078556.3794   25078556.4024
      1040.9064        811.0964
    938805.38647    772721.62746  21567442.7384   21567443.8054
     -1767.5944      -1377.3464
 98  6 17 16 35 30.0040000  0  9G10G 4G 5G 7G 8G 9G16G30G24
   -577379.28844   -387052.79542  25700789.3244   25700794.7274
       998.8444        778.3204
   9591677.59247   7454639.81547  22524118.4414   22524119.0744
     -4111.2034      -3203.5354
  -2631155.58246  -2019423.84746  22587985.8634   22587986.9414
      -125.0004        -97.4034
  14687272.30945  11355585.81843  25331029.7854   25331035.0354
     -4470.0474      -3483.1534
   -173248.85546   -110878.98046  23025455.2234   23025456.5824
     -1570.4694      -1223.7424
   8778044.34647   6840033.30146  23113050.2704   23113050.9264
     -3883.6254      -3026.2014
   5906668.22943   4575540.46542  26043829.5984   26043835.7734
     -3119.3594      -2430.6704
  -1840402.07645  -1352438.37245  25075589.3954   25075590.5084
      1037.8134        808.6854
    965399.66747    793444.45147  21572503.4264   21572504.5164
     -1778.3914      -1385.7594
 98  6 17 16 35 45.0040000  0  9G10G 4G 5G 7G 8G 9G16G30G24
   -592345.64544   -398714.79542  25697941.2934   25697945.7464
       996.6254        776.5914
   9653423.89747   7502753.81247  22535868.3244   22535868.9804
     -4121.6564      -3211.6804
  -2629226.55447  -2017920.69646  22588352.7464   22588353.9064
      -132.3284       -103.1134
  14754348.15544  11407852.65743  25343792.8794   25343798.1994
     -4473.4064      -3485.7714
   -149593.55746    -92446.27546  23029956.5904   23029957.8554
     -1583.6094      -1233.9814
   8836377.96547   6885488.05846  23124150.8484   23124151.8554
     -3894.2344      -3034.4684
   5953546.91843   4612069.24442  26052750.1214   26052753.1564
     -3131.1414      -2439.8504
  -1855941.22845  -1364546.77744  25072632.1844   25072634.6564
      1034.0474        805.7514
    992162.47247    814298.59347  21577596.2704   21577597.5234
     -1790.0164      -1394.8174
 98  6 17 16 36  0.0040000  0  9G10G 4G 5G 7G 8G 9G16G30G24
   -607283.98544   -410355.06442  25695099.2464   25695103.7934
       995.1884        775.4714
   9715320.43947   7550984.88047  22547646.8164   22547647.4614
     -4131.2194      -3219.1314
  -2627190.11147  -2016333.83946  22588740.2154   22588741.3524
      -139.2814       -108.5314
  14821467.62645  11460153.48443  25356566.7544   25356570.6564
     -4475.9064      -3487.7194
   -125746.22446    -73863.93746  23034494.7074   23034495.5044
     -1596.0624      -1243.6854
   8894865.45747   6931062.71046  23135280.8634   23135282.0944
     -3904.1564      -3042.2004
   6000596.08443   4648730.93142  26061703.5744   26061710.1724
     -3142.0624      -2448.3604
  -1871428.42445  -1376614.65744  25069684.9184   25069687.6724
      1030.8754        803.2794
   1019093.57947    835283.88446  21582720.9804   21582722.1414
     -1800.7974      -1403.2184
 98  6 17 16 36 15.0040000  0  9G10G 4G 5G 7G 8G 9G16G30G24
   -622200.15045   -421977.97842  25692260.2774   25692263.6294
       993.7194        774.3264
   9777361.19147   7599328.31247  22559452.7074   22559453.3404
     -4140.8124      -3226.6074
  -2625044.49447  -2014661.92346  22589148.8244   22589149.8554
      -146.7344       -114.3384
  14888625.61045  11512484.40943  25369346.6374   25369349.6484
     -4478.3594      -3489.6314
   -101710.77946    -55135.02246  23039068.3324   23039069.5624
     -1608.5944      -1253.4504
   8953503.74047   6976754.86446  23146439.3094   23146440.3874
     -3914.2814      -3050.0894
   6047808.86043   4685520.12642  26070687.3404   26070693.0944
     -3152.9224      -2456.8224
  -1886865.05645  -1388643.16644  25066747.0514   25066749.1484
      1027.4064        800.5764
   1046188.39247    856396.73047  21587877.0984   21587878.1644
     -1811.8284      -1411.8144
 98  6 17 16 36 30.0040000  0  9G10G 4G 5G 7G 8G 9G16G30G24
   -637092.07044   -433582.02642  25689426.0984   25689432.4734
       991.8284        772.8534
   9839546.78547   7647784.60747  22571286.4264   22571287.3874
     -4150.6414      -3234.2654
  -2622786.08947  -2012902.11246  22589578.2934   22589579.2894
      -154.4844       -120.3774
  14955819.96445  11564843.59743  25382133.3324   25382137.4224
     -4480.9844      -3491.6764
    -77486.61246    -36259.04346  23043677.6844   23043678.5864
     -1621.3284      -1263.3734
   9012295.25347   7022566.41646  23157626.9344   23157627.9184
     -3924.6254      -3058.1494
   6095185.86343   4722437.23042  26079703.0744   26079706.0274
     -3164.0004      -2465.4554
  -1902248.55445  -1400630.26644  25063820.3484   25063821.7074
      1023.7034        797.6914
   1073449.45847    877639.12647  21593064.6054   21593065.6484
     -1823.0314      -1420.5444
 98  6 17 16 36 45.0040000  0  9G10G 4G 5G 7G 8G 9G16G30G24
   -651955.31943   -445163.71742  25686598.5904   25686604.1214
       989.7344        771.2224
   9901879.05747   7696355.19747  22583147.5824   22583148.3444
     -4160.5004      -3241.9484
  -2620412.31247  -2011052.40746  22590030.1214   22590031.0944
      -162.2194       -126.4044
  15023055.15645  11617234.66343  25394928.0514   25394931.3444
     -4483.9534      -3493.9894
    -53071.04446    -17233.92246  23048324.2854   23048325.4344
     -1634.2504      -1273.4424
   9071240.62547   7068497.86546  23168843.8324   23168844.8054
     -3934.9064      -3066.1614
   6142728.56844   4759483.43242  26088750.9574   26088754.5434
     -3175.2664      -2474.2334
  -1917576.57145  -1412574.17144  25060903.2234   25060904.2894
      1019.8754        794.7084
   1100878.46247    899012.38447  21598284.1684   21598285.3634
     -1834.3594      -1429.3714
 98  6 17 16 37  0.0040000  0  9G10G 4G 5G 7G 8G 9G16G30G24
   -666790.48445   -456723.55543  25683775.5434   25683780.7814
       987.9844        769.8584
   9964355.23347   7745037.91747  22595036.5824   22595037.4024
     -4169.9694      -3249.3264
  -2617926.14947  -2009115.12946  22590503.2774   22590504.2504
      -169.5624       -132.1274
  15090331.20545  11669657.55943  25407728.7304   25407733.8164
     -4486.3754      -3495.8774
    -28465.60746      1939.14146  23053006.7384   23053007.7344
     -1646.7664      -1283.1944
   9130335.96047   7114546.16346  23180088.9414   23180089.9494
     -3944.7504      -3073.8314
   6190436.50944   4796658.48343  26097828.3164   26097833.4494
     -3186.0944      -2482.6704
  -1932852.54445  -1424477.52845  25057996.2234   25057997.6874
      1016.6564        792.2004
   1128472.60747    920514.32446  21603535.2074   21603536.2504
     -1845.1564      -1437.7844
 98  6 17 16 37 15.0040000  0  9G10G 4G 5G 7G 8G 9G16G30G24
   -681590.43044   -468255.94842  25680958.4574   25680963.7544
       985.3594        767.8134
  10026981.86147   7793837.88147  22606954.0594   22606954.9024
     -4180.2664      -3257.3504
  -2615321.69447  -2007085.67146  22590998.8554   22590999.8164
      -177.6724       -138.4464
  15157648.86443  11722112.77342  25420538.8794   25420545.5704
     -4489.2664      -3498.1294
     -3665.26346     21264.07646  23057726.0514   23057726.8244
     -1659.9224      -1293.4464
   9189586.53347   7160715.43546  23191364.0984   23191365.3874
     -3955.2974      -3082.0504
   6238313.95944   4833965.55343  26106939.7774   26106944.5824
     -3197.5314      -2491.5834
  -1948073.00445  -1436337.60944  25055099.5594   25055100.7194
      1012.7664        789.1684
   1156235.46147    942147.72547  21608818.1524   21608819.1954
     -1856.5944      -1446.6964
 98  6 17 16 37 30.0040000  0  9G10G 4G 5G 7G 8G 9G16G30G24
   -696354.70444   -479760.52342  25678148.7704   25678154.2664
       983.2664        766.1814
  10089758.83747   7842754.99547  22618900.0744   22618900.8014
     -4189.8754      -3264.8384
  -2612602.28347  -2004966.63746  22591516.4654   22591517.4734
      -184.8284       -144.0224
  15225005.31445  11774598.21143  25433357.4574   25433361.2774
     -4491.5314      -3499.8944
     21327.51446     40738.97146  23062481.9654   23062483.0314
     -1672.3594      -1303.1374
   9248988.11947   7207002.37346  23202668.1134   23202669.3444
     -3964.7974      -3089.4524
   6286357.83944   4871402.31542  26116082.3244   26116087.1764
     -3208.2814      -2499.9594
  -1963240.89744  -1448156.65244  25052212.4884   25052214.8554
      1009.6564        786.7454
   1184166.48247    963912.17046  21614132.9654   21614134.0664
     -1867.4844      -1455.1834
 98  6 17 16 37 45.0040000  0  9G10G 4G 5G 7G 8G 9G16G30G24
   -711083.59644   -491237.51243  25675345.7544   25675351.4024
       980.7344        764.2094
  10152680.92547   7891785.18446  22630873.8554   22630874.5944
     -4199.5944      -3272.4114
  -2609771.56547  -2002760.87346  22592055.0434   22592055.8404
      -192.5314       -150.0244
  15292398.47845  11827112.51942  25446181.4574   25446182.5594
     -4494.0314      -3501.8434
     46511.03646     60362.49446  23067274.3634   23067275.1724
     -1685.2814      -1313.2064
   9308533.34447   7253401.23246  23213999.2234   23214000.6294
     -3974.4374      -3096.9644
   6334565.75044   4908966.93242  26125256.3404   26125260.9804
     -3219.3124      -2508.5554
  -1978358.76945  -1459936.74944  25049336.1524   25049338.6604
      1006.1724        784.0304
   1212264.67647    985806.87046  21619480.3094   21619481.3524
     -1878.7974      -1463.9984
 98  6 17 16 38  0.0040000  0  9G10G 4G 5G 7G 8G 9G16G30G24
   -725778.46244   -502688.01843  25672549.8164   25672554.6094
       978.5634        762.5164
  10215744.20447   7940925.39246  22642874.4494   22642875.1874
     -4208.8914      -3279.6554
  -2606826.76547  -2000466.21746  22592615.7384   22592616.3834
      -200.1564       -155.9664
  15359824.95245  11879652.54843  25459012.5824   25459017.3874
     -4496.2194      -3503.5474
     71884.65246     80134.13746  23072102.8094   23072103.6524
     -1697.9844      -1323.1054
   9368220.35647   7299910.57546  23225356.8714   23225358.1724
     -3983.8594      -3104.3064
   6382934.83344   4946657.12742  26134460.7384   26134465.7774
     -3230.0004      -2516.8834
  -1993426.66345  -1471677.92244  25046468.8954   25046471.4964
      1002.7814        781.3884
   1240529.82447   1007831.67146  21624858.9654   21624859.9024
     -1890.0164      -1472.7394
 98  6 17 16 38 15.0040000  0  8G10G 4G 5G 7G 8G 9G30G24
   -740440.93043   -514113.27342  25669759.7704   25669763.6254
       976.5004        760.9094
  10278948.02347   7990175.10646  22654901.6294   22654902.4264
     -4218.1564      -3286.8754
  -2603767.97947  -1998082.73646  22593197.3484   22593198.3674
      -207.5164       -161.7004
  15427286.63445  11932219.99345  25471850.9654   25471855.3124
     -4498.5944      -3505.3984
     97451.63746    100056.45746  23076968.0904   23076969.0984
     -1710.7974      -1333.0884
   9428050.05847   7346531.10846  23236742.6914   23236743.9694
     -3993.3594      -3111.7094
  -2008440.81245  -1483377.26744  25043612.2304   25043613.8364
       999.2814        778.6614
   1268966.43047   1029990.07246  21630270.0904   21630271.1454
     -1901.4534      -1481.6524
 98  6 17 16 38 30.0040000  0  8G10G 4G 5G 7G 8G 9G30G24
   -755076.39344   -525517.41342  25666975.3164   25666981.7624
       974.8444        759.6194
  10342285.85147   8039529.24746  22666954.4344   22666955.1844
     -4226.9374      -3293.7184
  -2600604.96447  -1995618.04146  22593799.5984   22593800.5704
      -214.2034       -166.9124
  15494780.81545  11984812.81544  25484693.7234   25484698.3284
     -4500.7034      -3507.0414
    123205.67946    120124.53846  23081869.0824   23081870.1024
     -1723.1094      -1342.6834
   9488018.33247   7393259.61746  23248154.0984   23248155.3164
     -4002.4224      -3118.7704
  -2023409.01745  -1495040.80043  25040764.2384   25040765.6454
       996.4694        776.4694
   1297571.90847   1052280.06346  21635713.6054   21635714.7194
     -1912.6414      -1490.3694
 98  6 17 16 38 45.0050000  0  8G10G 4G 5G 7G 8G 9G30G24
   -769685.58044   -536901.15042  25664194.5484   25664198.4974
       973.0474        758.2184
  10405760.82247   8088990.25446  22679033.4154   22679033.9784
     -4235.7034      -3300.5484
  -2597340.19147  -1993074.05746  22594420.6424   22594421.6734
      -220.9694       -172.1834
  15562314.32145  12037436.29842  25497545.8064   25497547.4704
     -4503.0474      -3508.8684
    149147.09646    140338.62246  23086805.6964   23086806.5634
     -1735.3754      -1352.2404
   9548126.89247   7440097.44546  23259592.4384   23259593.9854
     -4011.4374      -3125.7954
  -2038336.15545  -1506672.33044  25037923.4854   25037924.0834
       993.8284        774.4124
   1326348.07147   1074703.05946  21641189.4314   21641190.5564
     -1923.8284      -1499.0874
 98  6 17 16 39  0.0050000  0  8G10G 4G 5G 7G 8G 9G30G24
   -784262.95843   -548260.11642  25661420.3064   25661426.2474
       970.8754        756.5264
  10469366.78247   8138553.33446  22691137.0174   22691137.6384
     -4244.8444      -3307.6704
  -2593970.85447  -1990448.58646  22595061.8924   22595062.7704
      -228.0624       -177.7114
  15629882.05745  12090086.53243  25510403.0404   25510403.7674
     -4505.7344      -3510.9624
    175274.24846    160697.43946  23091777.3604   23091778.1344
     -1747.9694      -1362.0544
   9608371.77647   7487041.49246  23271056.5714   23271058.3294
     -4020.9694      -3133.2224
  -2053218.29745  -1518268.74444  25035091.1034   25035093.8804
       990.7034        771.9764
   1355295.21747   1097259.28046  21646697.8764   21646698.9894
     -1935.5164      -1508.1944
 98  6 17 16 39 15.0050000  0  8G10G 4G 5G 7G 8G 9G30G24
   -798812.30444   -559597.17943  25658651.8684   25658657.1304
       969.1414        755.1754
  10533107.00947   8188221.03646  22703266.4624   22703267.1064
     -4253.7194      -3314.5864
  -2590496.84447  -1987741.55346  22595723.0094   22595723.9934
      -235.0004       -183.1174
  15697485.87044  12142764.81443  25523266.8454   25523270.6654
     -4507.9694      -3512.7034
    201587.03446    181200.90246  23096784.3534   23096785.3134
     -1760.2974      -1371.6604
   9668757.56047   7534095.32546  23282547.3534   23282548.8064
     -4030.3594      -3140.5404
  -2068055.79045  -1529830.39045  25032267.8604   25032269.8294
       987.7344        769.6634
   1384414.11347   1119949.33946  21652239.0954   21652240.1734
     -1946.9064      -1517.0704
 98  6 17 16 39 30.0050000  0  8G10G 4G 5G 7G 8G 9G30G24
   -813331.03844   -570910.41342  25655889.2284   25655893.5284
       966.9064        753.4334
  10596985.50647   8237996.47846  22715421.9314   22715422.6344
     -4263.1564      -3321.9404
  -2586914.44047  -1984950.06146  22596404.8994   22596405.8254
      -242.4224       -188.9004
  15765128.96645  12195473.53942  25536139.8924   25536145.4704
     -4510.8754      -3514.9684
    228089.91646    201852.49646  23101827.6344   23101828.9814
     -1773.2034      -1381.7174
   9729288.73647   7581262.45346  23294066.2674   23294067.7674
     -4040.2194      -3148.2224
  -2082842.73045  -1541352.63445  25029454.1264   25029456.1774
       984.0474        766.7904
   1413709.30547   1142776.77047  21657813.8214   21657814.8644
     -1958.8754      -1526.3964
 98  6 17 16 39 45.0050000  0  8G10G 4G 5G 7G 8G 9G30G24
   -827822.23144   -582202.17243  25653130.7984   25653135.4154
       965.2974        752.1794
  10660997.98747   8287876.32046  22727603.4234   22727604.1034
     -4271.8124      -3328.6854
  -2583226.71347  -1982076.49546  22597106.2434   22597107.0284
      -249.2974       -194.2574
  15832810.38045  12248212.37643  25549019.6034   25549022.5674
     -4513.2974      -3516.8554
    254780.60646    222650.43146  23106906.7284   23106907.5484
     -1785.5784      -1391.3604
   9789960.66447   7628539.26346  23305611.7674   23305613.1494
     -4049.3914      -3155.3694
  -2097580.25945  -1552836.39345  25026649.3294   25026650.5714
       980.9694        764.3914
   1443177.34447   1165738.88047  21663421.3214   21663422.1774
     -1970.1254      -1535.1624
 98  6 17 16 40  0.0050000  0  8G10G 4G 5G 7G 8G 9G30G24
   -842286.68943   -593473.13842  25650378.5564   25650384.6034
       963.5164        750.7914
  10725143.64647   8337859.94346  22739809.7514   22739810.5014
     -4280.7664      -3335.6624
  -2579431.18847  -1979118.93346  22597828.8534   22597829.8954
      -256.5624       -199.9194
  15900531.64845  12300982.17344  25561906.2354   25561910.6534
     -4516.0474      -3518.9984
    281661.09846    243596.26546  23112022.0404   23112023.1184
     -1798.2814      -1401.2584
   9850776.08447   7675927.87846  23317184.6964   23317186.0564
     -4059.1724      -3162.9914
  -2112268.82945  -1564282.00743  25023853.9154   25023855.8254
       977.6724        761.8224
   1472816.75247   1188834.53346  21669061.6574   21669062.8884
     -1981.6094      -1544.1114
 98  6 17 16 40 15.0050000  0  8G10G 4G 5G 7G 8G 9G30G24
   -856727.27644   -604725.45942  25647630.0174   25647635.3024
       962.0004        749.6104
  10789420.79147   8387946.02046  22752041.4234   22752042.0794
     -4289.3594      -3342.3584
  -2575530.95947  -1976079.77946  22598570.7284   22598571.6184
      -263.2974       -205.1664
  15968291.99544  12353782.32342  25574800.5404   25574807.5174
     -4518.5164      -3520.9214
    308727.98946    264687.34146  23117172.8294   23117173.8724
     -1810.5164      -1410.7914
   9911736.62047   7723429.57446  23328784.9624   23328786.2044
     -4068.7504      -3170.4554
  -2126909.59145  -1575690.39843  25021067.6264   25021068.5404
       974.5944        759.4244
   1502624.74447   1212061.54547  21674733.9314   21674735.0674
     -1992.6564      -1552.7194
 98  6 17 16 40 30.0050000  0  8G10G 4G 5G 7G 8G 9G30G24
   -871143.28144   -615958.65242  25644886.9074   25644894.3174
       959.9844        748.0404
  10853826.17547   8438132.02846  22764297.5244   22764298.2984
     -4298.0944      -3349.1644
  -2571530.73847  -1972962.71246  22599332.0244   22599333.0094
      -270.1414       -210.4994
  16036089.87645  12406611.89742  25587702.5484   25587705.9114
     -4521.2664      -3523.0644
    335977.73946    285920.91146  23122357.9704   23122359.0714
     -1822.8754      -1420.4224
   9972841.92647   7771044.07746  23340413.1884   23340414.5014
     -4078.6874      -3178.1984
  -2141504.25845  -1587062.82745  25018290.8844   25018292.4544
       971.3594        756.9034
   1532597.40847   1235416.87846  21680437.3684   21680438.5524
     -2003.7664      -1561.3764
 98  6 17 16 40 45.0050000  0  8G10G 4G 5G 7G 8G 9G30G24
   -885504.18544   -627148.92242  25642154.7434   25642160.6264
       956.0004        744.9354
  10918385.86547   8488438.27046  22776582.5954   22776583.4854
     -4308.6874      -3357.4194
  -2567403.14047  -1969746.39346  22600117.3924   22600118.2594
      -279.0474       -217.4394
  16103951.90444  12459491.41043  25600615.0404   25600618.9544
     -4525.7974      -3526.5954
    363436.64246    307317.45246  23127583.4074   23127584.5794
     -1837.1874      -1431.5754
  10034118.99647   7818792.42946  23352073.8844   23352075.2554
     -4090.3444      -3187.2814
  -2156027.18545  -1598379.38045  25015527.1654   25015529.1224
       966.1564        752.8494
   1562758.86047   1258919.31246  21686176.9234   21686177.8954
     -2016.5624      -1571.3474
 98  6 17 16 41  0.0050000  0  8G10G 4G 5G 7G 8G 9G30G24
   -899825.56943   -638308.41042  25639428.1034   25639434.6534
       953.9224        743.3164
  10983083.00247   8538851.61346  22788894.4384   22788895.1884
     -4317.2504      -3364.0914
  -2563161.92647  -1966441.54046  22600924.4234   22600925.3844
      -286.0474       -222.8944
  16171859.75945  12512406.48043  25613537.4704   25613542.1454
     -4528.1874      -3528.4584
    391090.17746    328865.65846  23132845.9384   23132847.0754
     -1849.5944      -1441.2424
  10095549.57547   7866660.38546  23363763.5244   23363764.7434
     -4100.0164      -3194.8174
  -2170491.67345  -1609650.35245  25012774.5794   25012776.4664
       962.7664        750.2074
   1593089.78547   1282553.80746  21691948.6104   21691949.6534
     -2027.2034      -1579.6394
 98  6 17 16 41 15.0050000  0  8G10G 4G 5G 7G 8G 9G30G24
   -914117.96445   -649445.16243  25636709.8064   25636715.1614
       951.8284        741.6844
  11047907.53647   8589364.23546  22801229.9314   22801230.8454
     -4326.0314      -3370.9334
  -2558818.51747  -1963057.05546  22601751.0874   22601752.0834
      -293.0784       -228.3734
  16239801.58245  12565348.09143  25626468.1034   25626472.7554
     -4530.6564      -3530.3814
    418928.36046    350557.73946  23138143.2044   23138144.0484
     -1862.1874      -1451.0554
  10157121.01547   7914638.11846  23375480.0794   23375481.4974
     -4109.4534      -3202.1714
  -2184906.10745  -1620882.32045  25010031.3214   25010033.2554
       959.1884        747.4194
   1623576.74747   1306309.88647  21697750.1734   21697751.3214
     -2037.6874      -1587.8084
 98  6 17 16 41 30.0050000  0  8G10G 4G 5G 7G 8G 9G30G24
   -928382.90844   -660560.81143  25633994.2284   25633999.7474
       950.1094        740.3454
  11112861.30947   8639977.55246  22813590.2824   22813591.1384
     -4334.4374      -3377.4844
  -2554371.41347  -1959591.77046  22602597.3374   22602598.4154
      -299.8124       -233.6204
  16307776.65645  12618315.75442  25639402.4854   25639404.1034
     -4532.6414      -3531.9284
    446953.20746    372395.27346  23143476.1264   23143477.1574
     -1874.4694      -1460.6254
  10218829.71947   7962722.79646  23387222.9934   23387224.3884
     -4118.3594      -3209.1114
  -2199270.37545  -1632075.22044  25007298.1884   25007300.5094
       956.0314        744.9594
   1654218.53047   1330186.60346  21703581.0634   21703582.3174
     -2047.9374      -1595.7954
 98  6 17 16 41 45.0050000  0  8G10G 4G 5G 7G 8G 9G30G24
   -942622.75245   -671656.64143  25631285.3064   25631292.7284
       948.6414        739.2004
  11177939.02847   8690687.46446  22825973.8844   22825974.6924
     -4342.4694      -3383.7424
  -2549826.07647  -1956049.93746  22603462.1184   22603462.9034
      -306.1564       -238.5634
  16375780.86643  12671306.06742  25652342.5714   25652346.6264
     -4534.4694      -3533.3524
    475160.08446    394374.65346  23148843.7204   23148844.9744
     -1886.3594      -1469.8904
  10280670.11347   8010910.09246  23398990.7744   23398992.1224
     -4126.9374      -3215.7954
  -2213589.01845  -1643232.57744  25004573.9384   25004574.8994
       953.2194        742.7684
   1685013.02947   1354182.32646  21709441.1034   21709442.3804
     -2057.8754      -1603.5394
 98  6 17 16 42  0.0050000  0  8G10G 4G 5G 7G 8G 9G30G24
   -956842.05245   -682736.57543  25628579.4784   25628583.7904
       947.3284        738.1784
  11243134.80047   8741489.35846  22838380.3764   22838380.9744
     -4350.3594      -3389.8904
  -2545187.93547  -1952435.79446  22604344.6494   22604345.5174
      -312.3124       -243.3604
  16443810.46344  12724316.03643  25665288.6184   25665294.3724
     -4536.1874      -3534.6924
    503543.39646    416491.51246  23154244.8924   23154246.1924
     -1898.0944      -1479.0344
  10342637.50247   8059196.34046  23410783.0404   23410784.7514
     -4135.4374      -3222.4194
  -2227868.39045  -1654359.41845  25001856.5484   25001856.8534
       950.6564        740.7714
   1715954.37747   1378292.47546  21715329.0014   21715330.1144
     -2067.7194      -1611.2094
 98  6 17 16 42 15.0050000  0  8G10G 4G 5G 7G 8G 9G30G24
   -971038.14745   -693798.41043  25625878.3294   25625883.2044
       945.5164        736.7654
  11308454.09347   8792387.50246  22850810.1424   22850810.8104
     -4358.8594      -3396.5144
  -2540453.22947  -1948746.39946  22605245.8604   22605246.8564
      -318.9224       -248.5114
  16511870.11145  12777349.46243  25678240.0324   25678244.8374
     -4538.3914      -3536.4084
    532106.75046    438748.66946  23159680.1424   23159681.2434
     -1910.2814      -1488.5314
  10404736.93147   8107585.47246  23422600.1494   23422601.6494
     -4144.3914      -3229.3954
  -2242103.88145  -1665451.97445  24999147.2124   24999148.5364
       947.4384        738.2634
   1747050.06647   1402522.89146  21721246.2744   21721247.4584
     -2078.3284      -1619.4764
 98  6 17 16 42 30.0050000  0  8G10G 4G 5G 7G 8G 9G30G24
   -985210.60245   -704841.87844  25623181.2984   25623184.8254
       944.2504        735.7794
  11373898.16647   8843382.87546  22863263.8924   22863264.5834
     -4366.9694      -3402.8334
  -2535622.83947  -1944982.44446  22606165.0484   22606166.0324
      -325.0624       -253.2954
  16579959.27844  12830405.89642  25691196.3534   25691200.1614
     -4540.0784      -3537.7234
    560848.96846    461145.19646  23165149.6814   23165150.6304
     -1921.9844      -1497.6504
  10466964.20747   8156074.21946  23434441.5954   23434443.0364
     -4152.4844      -3235.7024
  -2256294.26645  -1676509.32445  24996446.6104   24996448.7674
       944.7344        736.1574
   1778300.06947   1426873.54746  21727193.1734   21727194.3684
     -2088.3124      -1627.2564
 98  6 17 16 42 45.0050000  0  8G10G 4G 5G 7G 8G 9G30G24
   -999362.09545   -715868.87143  25620487.9934   25620501.4154
       942.8284        734.6714
  11439468.46447   8894476.60646  22875741.6344   22875742.3494
     -4375.6414      -3409.5904
  -2530696.74047  -1941143.91346  22607102.1494   22607103.0634
      -331.5944       -258.3854
  16648076.25045  12883484.08242  25704160.0324   25704162.9504
     -4542.0164      -3539.2334
    589771.16946    483681.96846  23170653.4074   23170654.5794
     -1934.1874      -1507.1594
  10529313.72647   8204658.20746  23446306.2284   23446307.8214
     -4160.5624      -3241.9974
  -2270441.88645  -1687533.39145  24993754.2594   24993756.5204
       941.7974        733.8684
   1809703.75947   1451343.95646  21733169.0634   21733170.2824
     -2098.7194      -1635.3654
 98  6 17 16 43  0.0050000  0  8G10G 4G 5G 7G 8G 9G30G24
  -1013481.72145   -726871.17243  25617800.9384   25617807.1264
       939.9534        732.4314
  11505183.11447   8945682.82146  22888246.6344   22888247.3724
     -4386.1564      -3417.7844
  -2525659.38447  -1937218.69746  22608060.8994   22608061.6964
      -339.8444       -264.8134
  16716233.67145  12936593.77142  25717128.8604   25717131.6384
     -4545.4534      -3541.9124
    618889.06446    506371.23446  23176194.3374   23176195.5204
     -1948.0164      -1517.9344
  10591794.21047   8253344.25746  23458196.1654   23458197.6184
     -4169.9844      -3249.3384
  -2284532.95745  -1698513.38945  24991073.0174   24991074.4704
       937.1414        730.2394
   1841276.36547   1475945.99446  21739177.0404   21739178.1064
     -2110.8124      -1644.7894
 98  6 17 16 43 15.0050000  0  8G10G 4G 5G 7G 8G 9G30G24
  -1027573.54545   -737851.74043  25615119.2354   25615125.0714
       938.7814        731.5184
  11571040.80947   8997000.49646  22900778.9464   22900779.7554
     -4395.1414      -3424.7854
  -2520514.97347  -1933210.04946  22609039.8534   22609041.0364
      -346.2504       -269.8054
  16784427.70143  12989731.90542  25730105.2434   25730111.2084
     -4547.3284      -3543.3734
    648198.10646    529209.43846  23181771.7904   23181773.2204
     -1960.0944      -1527.3464
  10654400.66447   8302128.46946  23470109.6964   23470111.1964
     -4177.7344      -3255.3774
  -2298569.96445  -1709451.34145  24988402.3454   24988402.1694
       934.2504        727.9874
   1873015.62147   1500677.88346  21745216.7674   21745217.8564
     -2121.3284      -1652.9834
 98  6 17 16 43 30.0050000  0  8G10G 4G 5G 7G 8G 9G30G24
  -1041645.15445   -748816.61243  25612441.4704   25612447.3994
       937.5474        730.5564
  11637037.77247   9048426.69446  22913337.4854   22913338.2354
     -4404.2504      -3431.8834
  -2515271.50747  -1929124.22546  22610037.6814   22610038.6654
      -352.7504       -274.8704
  16852652.90044  13042894.30342  25743089.2744   25743094.2784
     -4549.2194      -3544.8464
    677692.18846    552191.83946  23187383.9544   23187384.8684
     -1972.3284      -1536.8794
  10717127.52347   8351006.48646  23482046.2204   23482047.8374
     -4185.7664      -3261.6364
  -2312559.76045  -1720352.48445  24985739.7984   24985740.3724
       931.1884        725.6014
   1904917.34147   1525536.37646  21751287.3374   21751288.7204
     -2132.1874      -1661.4454
 98  6 17 16 43 45.0050000  0  8G10G 4G 5G 7G 8G 9G30G24
  -1055698.42145   -759767.07543  25609767.4074   25609772.3294
       936.0474        729.3874
  11703167.19647   9099956.11146  22925921.7674   22925922.4814
     -4413.1724      -3438.8354
  -2509931.72247  -1924963.34246  22611053.8294   22611054.8724
      -359.3914       -280.0454
  16920904.43744  13096077.36643  25756076.5484   25756081.0834
     -4551.1724      -3546.3684
    707367.43546    575315.40346  23193031.0794   23193032.2744
     -1984.5164      -1546.3764
  10779974.97947   8399978.47946  23494005.6654   23494007.2354
     -4194.0784      -3268.1134
  -2326504.29745  -1731218.30845  24983085.6884   24983087.2704
       927.9064        723.0444
   1936982.03647   1550521.85446  21757389.2984   21757390.4704
     -2143.2344      -1670.0534
 98  6 17 16 44  0.0050000  0  8G10G 4G 5G 7G 8G 9G30G24
  -1069733.93845   -770703.83643  25607096.4074   25607101.2124
       935.2344        728.7544
  11769426.69647   9151586.88146  22938530.5094   22938531.3174
     -4421.5314      -3445.3494
  -2504496.09947  -1920727.79046  22612088.1264   22612089.0634
      -365.4844       -284.7934
  16989181.49444  13149280.19942  25769069.8534   25769075.2904
     -4552.4844      -3547.3904
    737220.70446    598577.68446  23198711.9384   23198712.9814
     -1996.0624      -1555.3734
  10842943.60046   8449044.89446  23505988.1734   23505989.8374
     -4201.7974      -3274.1274
  -2340404.32045  -1742049.41245  24980441.4464   24980444.2824
       925.3444        721.0474
   1969205.72947   1575631.23246  21763521.1574   21763522.3994
     -2153.3594      -1677.9424
 98  6 17 16 44 15.0050000  0  8G10G 4G 5G 7G 8G 9G30G24
  -1083746.99245   -781623.02343  25604429.4934   25604436.1494
       933.3444        727.2814
  11835821.56747   9203323.13846  22951165.1034   22951165.9234
     -4430.8284      -3452.5934
  -2498958.89047  -1916413.07146  22613141.8534   22613142.6034
      -372.6094       -290.3454
  17057486.75445  13202504.97943  25782067.4704   25782072.3564
     -4554.5944      -3549.0344
    767256.48946    621982.18146  23204427.4624   23204428.4234
     -2008.5004      -1565.0654
  10906037.15946   8498208.66146  23517994.6104   23517996.1814
     -4210.4534      -3280.8734
  -2354257.60445  -1752844.14745  24977805.3534   24977806.7704
       921.9694        718.4174
   2001592.52747   1600867.70646  21769684.2514   21769685.4114
     -2164.6094      -1686.7094
 98  6 17 16 44 30.0050000  0  8G10G 4G 5G 7G 8G 9G30G24
  -1097739.55445   -792526.23143  25601767.1104   25601771.4114
       932.1564        726.3564
  11902344.92947   9255159.51746  22963824.0484   22963824.4704
     -4439.1094      -3459.0464
  -2493323.48147  -1912021.83746  22614214.2354   22614215.1734
      -378.9534       -295.2884
  17125810.98044  13255744.61242  25795068.3454   25795074.2744
     -4555.4534      -3549.7044
    797469.49746    645524.78146  23210177.1574   23210178.4234
     -2020.0944      -1574.0994
  10969250.47047   8547465.75246  23530023.8684   23530025.5564
     -4218.2034      -3286.9124
  -2368069.66745  -1763606.76745  24975176.6264   24975178.4544
       919.4844        716.4814
   2034137.08247   1626227.09946  21775877.2674   21775878.4274
     -2174.7814      -1694.6354
 98  6 17 16 44 45.0050000  0  8G10G 4G 5G 7G 8G 9G30G24
  -1111712.88644   -803414.50843  25599107.0324   25599110.8994
       930.8284        725.3214
  11968993.71847   9307093.63046  22976506.9704   22976507.7554
     -4447.4534      -3465.5484
  -2487590.69947  -1907554.72746  22615305.0014   22615306.0794
      -385.5164       -300.4024
  17194148.82043  13308994.88641  25808072.3684   25808075.0874
     -4556.3444      -3550.3984
    827857.42246    669203.67346  23215959.5564   23215960.4464
     -2031.7034      -1583.1454
  11032583.14146   8596815.86046  23542075.6424   23542077.3064
     -4226.2974      -3293.2184
  -2381843.40045  -1774339.52945  24972554.8994   24972556.0484
       916.9224        714.4854
   2066834.79647   1651705.84146  21782099.1264   21782100.2514
     -2185.0624      -1702.6464
 98  6 17 16 45  0.0050000  0  8G10G 4G 5G 7G 8G 9G30G24
  -1125665.21745   -814286.40243  25596454.0404   25596460.2984
       929.8134        724.5294
  12035766.09947   9359124.04646  22989213.1964   22989213.7594
     -4455.1254      -3471.5264
  -2481758.80847  -1903010.38646  22616414.8924   22616415.8884
      -391.7344       -305.2484
  17262500.00844  13362255.56742  25821080.3994   25821085.5324
     -4556.8124      -3550.7634
    858419.49846    693018.27246  23221775.5174   23221776.5604
     -2042.8594      -1591.8384
  11096038.41147   8646261.48746  23554150.7594   23554152.3884
     -4234.1254      -3299.3184
  -2395578.56645  -1785042.28545  24969941.5014   24969942.9894
       914.7344        712.7804
   2099687.29347   1677305.19446  21788350.9934   21788352.2474
     -2194.9064      -1710.3174
 98  6 17 16 45 15.0050000  0  8G10G 4G 5G 7G 8G 9G30G24
  -1139597.95944   -825142.97643  25593800.4544   25593805.1654
       927.7034        722.8864
  12102653.13147   9411243.80246  23001941.4464   23001942.0794
     -4463.2664      -3477.8694
  -2475831.07947  -1898391.37146  22617543.0564   22617543.8884
      -398.7504       -310.7144
  17330861.43545  13415524.10244  25834089.9464   25834093.7434
     -4558.2664      -3551.8954
    889150.50946    716964.50246  23227623.4544   23227624.5094
     -2054.7504      -1601.1044
  11159616.31546   8695802.68746  23566249.3994   23566251.1694
     -4243.1254      -3306.3314
  -2409276.91045  -1795716.25945  24967335.0954   24967337.8134
       911.5634        710.3084
   2132689.49047   1703021.19346  21794631.1494   21794632.4154
     -2205.5164      -1718.5844
 98  6 17 16 45 30.0050000  0  8G10G 4G 5G 7G 8G 9G30G24
  -1153500.03045   -835975.72142  25591156.5014   25591160.5564
       926.0634        721.6074
  12169659.99847   9463456.93846  23014692.4854   23014693.0834
     -4470.7974      -3483.7384
  -2469799.24547  -1893691.23046  22618690.7204   22618691.7984
      -405.3754       -315.8774
  17399245.04445  13468810.01143  25847102.5564   25847108.0524
     -4559.3444      -3552.7354
    920058.41746    741048.58446  23233505.3064   23233506.2674
     -2066.1564      -1609.9924
  11223330.06546   8745449.73846  23578373.6574   23578375.1454
     -4251.9224      -3313.1864
  -2422930.07045  -1806355.04845  24964736.8064   24964739.5134
       908.9844        708.3004
   2165848.92047   1728859.71846  21800941.0174   21800942.2474
     -2215.5784      -1726.4254
 98  6 17 16 45 45.0050000  0  8G10G 4G 5G 7G 8G 9G30G24
  -1167374.42444   -846786.87643  25588514.7824   25588520.2084
       924.3754        720.2924
  12236779.86047   9515758.12046  23027464.7984   23027465.4074
     -4478.0164      -3489.3634
  -2463665.03547  -1888911.32446  22619857.9074   22619859.0094
      -412.0624       -321.0884
  17467644.60043  13522108.27142  25860117.3134   25860122.2244
     -4560.1094      -3553.3324
    951139.52446    765267.61046  23239419.4384   23239420.2824
     -2077.4534      -1618.7954
  11287178.15546   8795201.47246  23590523.5714   23590525.0364
     -4260.6254      -3319.9684
  -2436543.27545  -1816962.67245  24962145.9854   24962148.8564
       906.6884        706.5104
   2199161.82347   1754817.82946  21807280.5564   21807281.8104
     -2225.5944      -1734.2294
 98  6 17 16 46  0.0050000  0  8G10G 4G 5G 7G 8G 9G30G24
  -1181224.52745   -857579.05743  25585879.9154   25585884.9544
       922.5164        718.8434
  12304006.79047   9568142.72746  23040257.9314   23040258.6574
     -4485.4534      -3495.1584
  -2457431.38047  -1884053.92146  22621044.4934   22621045.4544
      -418.8754       -326.3964
  17536054.85044  13575415.01542  25873136.7744   25873139.7634
     -4561.0624      -3554.0754
    982387.50346    789616.68946  23245365.8374   23245366.6344
     -2088.7974      -1627.6344
  11351153.95146   8845052.71246  23602697.7204   23602699.3134
     -4269.3284      -3326.7494
  -2450125.82045  -1827546.42445  24959561.6884   24959563.8684
       904.5474        704.8424
   2232620.45547   1780889.49646  21813647.3604   21813648.6384
     -2235.3444      -1741.8264
 98  6 17 16 46 15.0050000  0  8G10G 4G 5G 7G 8G 9G30G24
  -1195051.31244   -868353.17443  25583247.8134   25583254.0954
       920.8444        717.5414
  12371341.31147   9620611.17846  23053071.1814   23053071.8374
     -4492.7194      -3500.8204
  -2451102.01547  -1879121.94246  22622248.8374   22622249.6574
      -425.2974       -331.4004
  17604475.57945  13628729.88343  25886156.7824   25886160.2984
     -4561.9534      -3554.7694
   1013802.44346    814095.85946  23251343.9704   23251344.8494
     -2100.1564      -1636.4854
  11415255.32346   8895001.80146  23614895.8214   23614897.3684
     -4277.7034      -3333.2754
  -2463681.49845  -1838109.31845  24956982.3134   24956983.0404
       902.6094        703.3324
   2266220.94947   1807071.70646  21820041.2904   21820042.5094
     -2244.9844      -1749.3384
 98  6 17 16 46 30.0050000  0  8G10G 4G 5G 7G 8G 9G30G24
  -1208848.64844   -879104.22743  25580623.3374   25580627.9544
       919.0004        716.1044
  12438788.68147   9673167.56346  23065906.0174   23065906.6614
     -4500.0944      -3506.5674
  -2444670.80847  -1874110.60546  22623472.5564   22623473.3644
      -432.0784       -336.6844
  17672914.95444  13682059.17843  25899179.5954   25899183.8134
     -4563.1724      -3555.7184
   1045392.56246    838711.52546  23257355.5634   23257356.6534
     -2111.6564      -1645.4464
  11479486.17446   8945051.77746  23627118.6264   23627120.1614
     -4286.2194      -3339.9114
  -2477200.99945  -1848643.98745  24954409.4234   24954410.0914
       900.1254        701.3964
   2299970.15947   1833369.79546  21826463.4704   21826464.5954
     -2254.6564      -1756.8754
 98  6 17 16 46 45.0050000  0  8G10G 4G 5G 7G 8G 9G30G24
  -1222625.46945   -889839.38244  25578002.0244   25578006.3844
       917.6884        715.0814
  12506342.38947   9725806.80646  23078760.9854   23078761.6654
     -4507.3754      -3512.2404
  -2438144.23547  -1869024.95446  22624714.3764   22624715.2674
      -438.3754       -341.5914
  17741368.42043  13735399.42742  25912206.0874   25912213.0994
     -4564.3444      -3556.6314
   1077149.35346    863457.07546  23263398.6344   23263399.5604
     -2122.8444      -1654.1644
  11543837.59046   8995195.71446  23639364.5634   23639365.7354
     -4294.2344      -3346.1574
  -2490687.32045  -1859152.77645  24951843.1964   24951844.8724
       897.8134        699.5944
   2333857.90547   1859775.83546  21832912.0244   21832913.2314
     -2264.0004      -1764.1564
 98  6 17 16 47  0.0050000  0  8G10G 4G 5G 7G 8G 9G30G24
  -1236380.89144   -900557.79843  25575383.2354   25575387.9584
       916.2034        713.9254
  12574007.98647   9778533.23146  23091637.0794   23091637.8294
     -4514.8124      -3518.0364
  -2431520.87647  -1863863.89646  22625974.9384   22625975.6884
      -444.8754       -346.6564
  17809844.07945  13788757.01342  25925237.3134   25925238.2284
     -4565.9224      -3557.8614
   1109076.76846    888335.56946  23269474.3684   23269475.5174
     -2134.2664      -1663.0644
  11608309.89647   9045433.85646  23651632.7044   23651633.8644
     -4302.1724      -3352.3424
  -2504136.14245  -1869632.31145  24949283.9464   24949285.9744
       895.2344        697.5854
   2367888.37047   1886293.09046  21839387.9704   21839388.9664
     -2273.5314      -1771.5834
 98  6 17 16 47 15.0050000  0  8G10G 4G 5G 7G 8G 9G30G24
  -1250115.28245   -911259.86043  25572769.6884   25572774.2244
       914.8134        712.8414
  12641782.71447   9831344.69946  23104534.5634   23104535.3844
     -4522.0944      -3523.7094
  -2424801.29147  -1858627.84846  22627253.4784   22627254.2634
      -451.3124       -351.6724
  17878342.91145  13842132.84342  25938271.8924   25938273.1694
     -4567.5164      -3559.1034
   1141174.17946    913346.53246  23275582.3134   23275583.4744
     -2145.6724      -1671.9524
  11672898.43746   9095762.57246  23663923.6964   23663924.8334
     -4309.9224      -3358.3814
  -2517546.62545  -1880082.00545  24946731.7904   24946734.0994
       892.5314        695.4794
   2402060.23247   1912920.52146  21845890.5324   21845891.6224
     -2283.0004      -1778.9614
 98  6 17 16 47 30.0050000  0  8G10G 4G 5G 7G 8G 9G30G24
  -1263830.37645   -921946.86843  25570160.9074   25570168.0714
       913.8134        712.0624
  12709665.74847   9884240.55846  23117452.2044   23117453.1064
     -4529.0944      -3529.1644
  -2417987.92347  -1853318.72546  22628549.9544   22628550.7864
      -457.2344       -356.2874
  17946864.47243  13895526.27042  25951310.4074   25951316.5604
     -4568.7664      -3560.0774
   1173442.73146    938490.85846  23281722.5404   23281724.2514
     -2156.8594      -1680.6704
  11737601.32546   9146180.38446  23676236.5094   23676237.8454
     -4317.1564      -3364.0184
  -2530918.78645  -1890501.85345  24944186.9234   24944188.5874
       890.3754        693.7994
   2436372.30347   1939657.20846  21852420.2204   21852421.2044
     -2292.0474      -1786.0114
 98  6 17 16 47 45.0050000  0  8G10G 4G 5G 7G 8G 9G30G24
  -1277527.97645   -932620.26043  25567553.5174   25567558.2394
       912.3284        710.9054
  12777656.22547   9937220.13946  23130390.4314   23130391.2394
     -4536.5164      -3534.9474
  -2411082.13447  -1847937.58846  22629863.9934   22629864.8374
      -463.7504       -361.3644
  18015405.07443  13948934.37242  25964353.2204   25964360.2314
     -4570.1414      -3561.1494
   1205881.40146    963767.73446  23287895.3454   23287896.7164
     -2168.5004      -1689.7404
  11802413.09846   9196683.03146  23688569.7284   23688570.9354
     -4324.5784      -3369.8014
  -2544256.19345  -1900894.62645  24941649.0094   24941650.0754
       887.6724        691.6924
   2470822.60147   1966501.60546  21858975.6104   21858976.8414
     -2301.5624      -1793.4254
 98  6 17 16 48  0.0050000  0  8G10G 4G 5G 7G 8G 9G30G24
  -1291206.00745   -943278.38843  25564950.6884   25564955.7744
       911.2504        710.0654
  12845754.81647   9990283.96746  23143349.1184   23143349.9624
     -4543.4844      -3540.3774
  -2404082.44847  -1842483.27846  22631196.1184   22631196.8804
      -469.7664       -366.0514
  18083963.20745  14002356.21143  25977400.4234   25977404.7944
     -4571.2194      -3561.9894
   1238491.52546    989178.21646  23294101.0794   23294102.2514
     -2179.6724      -1698.4464
  11867330.65746   9247268.10646  23700922.9154   23700924.3804
     -4331.2194      -3374.9764
  -2557555.21345  -1911257.49145  24939118.3994   24939119.4424
       885.2814        689.8304
   2505412.41347   1993454.71146  21865557.8764   21865558.8254
     -2310.6094      -1800.4754
 98  6 17 16 48 15.0050000  0  8G10G 4G 5G 7G 8G 9G30G24
  -1304861.71445   -953919.15943  25562351.9544   25562354.5094
       909.8444        708.9694
  12913963.93947  10043433.91846  23156328.8684   23156329.8414
     -4550.7344      -3546.0274
  -2396985.65147  -1836953.30046  22632546.7434   22632547.2704
      -476.1724       -371.0434
  18152545.51145  14055796.96542  25990450.4784   25990452.9274
     -4572.7974      -3563.2184
   1271274.75446   1014723.58346  23300339.2984   23300340.2704
     -2191.1564      -1707.3944
  11932354.19146   9297935.77546  23713296.7904   23713298.1264
     -4338.2974      -3380.4914
  -2570808.45445  -1921584.64145  24936596.5954   24936598.7044
       882.0944        687.3464
   2540144.54847   2020518.72446  21872167.2044   21872168.3294
     -2320.0784      -1807.8534
 98  6 17 16 48 30.0050000  0  8G10G 4G 5G 7G 8G 9G30G24
  -1318496.56045   -964543.63144  25559758.6964   25559763.4544
       908.2814        707.7524
  12982280.63947  10096667.70446  23169329.0634   23169329.7674
     -4557.9694      -3551.6644
  -2389791.89847  -1831347.77846  22633915.7284   22633916.3724
      -482.8594       -376.2544
  18221151.77743  14109256.45041  26003505.1184   26003510.0994
     -4574.5164      -3564.5584
   1304230.74946   1040403.56546  23306610.8454   23306611.8064
     -2202.7504      -1716.4294
  11997483.62546   9348685.95646  23725690.4384   23725691.7514
     -4345.4374      -3386.0554
  -2584012.61845  -1931873.54445  24934083.5794   24934085.9584
       878.6564        684.6674
   2575020.14247   2047694.51846  21878803.8374   21878805.1034
     -2329.7504      -1815.3904
 98  6 17 16 48 45.0050000  0  8G10G 4G 5G 7G 8G 9G30G24
  -1332111.09545   -975152.31944  25557166.2824   25557171.5094
       906.8914        706.6684
  13050701.30247  10149982.49346  23182349.1424   23182349.8214
     -4564.9064      -3557.0704
  -2382500.96047  -1825666.52546  22635303.0634   22635303.8374
      -489.3124       -381.2824
  18289778.64943  14162731.81141  26016564.4704   26016569.2864
     -4575.8124      -3565.5684
   1337354.88446   1066214.57746  23312914.0794   23312915.1924
     -2213.9224      -1725.1344
  12062717.55746   9399517.58046  23738104.2204   23738105.5564
     -4352.5314      -3391.5834
  -2597170.15245  -1942126.09345  24931579.4784   24931581.9154
       875.5944        682.2814
   2610035.76547   2074979.42946  21885467.0954   21885468.3844
     -2339.1414      -1822.7074
 98  6 17 16 49  0.0050000  0  8G10G 4G 5G 7G 8G 9G30G24
  -1345701.12245   -985741.84444  25554581.2984   25554585.3884
       904.9694        705.1704
  13119228.72347  10203380.47246  23195389.6884   23195390.4384
     -4572.1254      -3562.6954
  -2375112.26647  -1819909.08746  22636709.0714   22636709.7514
      -496.0164       -386.5064
  18358428.07345  14216224.86043  26029629.8764   26029636.8764
     -4577.5944      -3566.9564
   1370651.74246   1092160.16746  23319250.1814   23319251.2944
     -2225.7974      -1734.3874
  12128062.55147   9450435.74146  23750538.7434   23750539.8454
     -4360.2664      -3397.6104
  -2610280.05146  -1952341.58545  24929085.2594   24929086.6064
       872.2814        679.7004
   2645197.29147   2102378.02646  21892158.0324   21892159.3454
     -2349.2034      -1830.5484
 98  6 17 16 49 15.0050000  0  8G10G 4G 5G 7G 8G 9G30G24
  -1359264.67145   -996310.81643  25551999.1104   25552004.7944
       903.2974        703.8684
  13187857.96547  10256857.79346  23208449.1034   23208449.9234
     -4578.5784      -3567.7234
  -2367624.17647  -1814074.20946  22638134.1654   22638134.8214
      -502.5474       -391.5954
  18427100.24745                  26042697.5404
     -4578.8754
   1404123.76446   1118242.26346  23325619.7044   23325620.6534
     -2237.3124      -1743.3604
  12193520.56847   9501441.97446  23762994.9854   23762995.9934
     -4367.6724      -3403.3814
  -2623342.71446  -1962520.32745  24926599.7744   24926600.0444
       869.2814        677.3624
   2680506.38647   2129891.62146  21898877.0094   21898878.0524
     -2358.8754      -1838.0844
 98  6 17 16 49 30.0050000  0  8G10G 4G 5G 7G 8G 9G30G24
  -1372802.77145  -1006859.86545  25549422.9154   25549429.4424
       901.8914        702.7724
  13256584.14347  10310410.64946  23221527.3374   23221527.9814
     -4584.7974      -3572.5694
  -2360039.16647  -1808163.79846  22639577.3844   22639577.9934
      -508.6564       -396.3564
  18495791.26943                  26055767.7124
     -4579.7344
   1437769.57346   1144459.76146  23332022.3764   23332023.1964
     -2248.6254      -1752.1754
  12259090.73246   9552535.59046  23775472.5714   23775473.6494
     -4374.8754      -3408.9944
  -2636361.63445  -1972664.94345  24924122.1424   24924123.6184
       866.7974        675.4264
   2715960.83947   2157518.47246  21905623.8844   21905625.0204
     -2368.1874      -1845.3414
 98  6 17 16 49 45.0050000  0  8G10G 4G 5G 7G 8G 9G30G24
  -1386308.69345  -1017383.91643  25546853.3294   25546859.4584
       899.0474        700.5564
  13325413.95547  10364044.25346  23234625.3994   23234626.1264
     -4592.3594      -3578.4624
  -2352352.34847  -1802174.06647  22641040.2354   22641041.0094
      -516.0944       -402.1514
  18564504.63543                  26068844.1734
     -4581.8284
   1471592.22746   1170815.06346  23338458.5484   23338459.6264
     -2260.8754      -1761.7214
  12324777.62147   9603720.15946  23787972.5484   23787973.8374
     -4383.1874      -3415.4714
  -2649335.86745  -1982774.66045  24921652.1654   24921655.5524
       863.2194        672.6384
   2751563.45547   2185260.78246  21912398.6034   21912399.7984
     -2378.6874      -1853.5234
 98  6 17 16 50  0.0050000  0  8G10G 4G 5G 7G 8G 9G30G24
  -1399777.90145  -1027879.33344  25544290.3134   25544295.0834
       896.8754        698.8644
  13394351.46047  10417761.77646  23247743.6424   23247744.4384
     -4599.3284      -3583.8924
  -2344559.32247  -1796101.57046  22642523.1344   22642523.7434
      -522.9374       -407.4844
  18633242.43345                  26081924.7434
     -4583.2504
   1505590.35246   1197307.10246  23344928.1884   23344929.3604
     -2272.2194      -1770.5604
  12390583.75346   9654997.65646  23800495.1494   23800496.5914
     -4390.9844      -3421.5464
  -2662261.14045  -1992846.19245  24919193.2284   24919196.5564
       860.1564        670.2524
   2787318.77447   2213122.07746  21919203.0174   21919204.3884
     -2388.6724      -1861.3034
 98  6 17 16 50 15.0050000  0  8G10G 4G 5G 7G 8G 9G30G24
  -1413217.25245  -1038351.48044  25541731.7204   25541736.2314
       894.8444        697.2814
  13463392.00247  10471559.59346  23260881.8214   23260882.5714
     -4606.2974      -3589.3224
  -2336666.79947  -1789951.54947  22644025.1884   22644025.6814
      -529.6094       -412.6834
  18702001.40345     21429.21554  26095010.0714   26095014.0204
     -4584.8444      -3572.6064
   1539756.95146   1223930.41546  23351429.9314   23351431.1854
     -2283.5474      -1779.3874
  12456504.46446   9706364.40946  23813039.4624   23813040.7984
     -4398.6724      -3427.5374
  -2675142.83046  -2002883.83245  24916742.3604   24916744.2824
       857.2034        667.9504
   2823221.48547   2241098.22646  21926035.0094   21926036.2284
     -2398.5164      -1868.9734
 98  6 17 16 50 30.0060000  0  8G10G 4G 5G 7G 8G 9G30G24
  -1426624.15045  -1048798.34244  25539181.0374   25539185.6544
       892.5784        695.5154
  13532544.77247  10525444.85346  23274041.1234   23274041.7214
     -4613.5004      -3594.9354
  -2328671.84947  -1783721.70647  22645546.5454   22645547.2604
      -536.3594       -417.9424
  18770791.28843     75031.66243  26108098.8264   26108102.4474
     -4586.5474      -3573.9334
   1574100.23846   1250691.40246  23357964.8654   23357966.1194
     -2295.3284      -1788.5674
  12522549.44546   9757828.00746  23825607.1784   23825608.6074
     -4406.7504      -3433.8314
  -2687979.16745  -2012886.21945  24914299.5374   24914300.2754
       854.2194        665.6254
   2859276.38147   2269192.95846  21932896.0064   21932897.2484
     -2408.5314      -1876.7784
 98  6 17 16 50 45.0060000  0  8G10G 4G 5G 7G 8G 9G30G24
  -1439997.43645  -1059219.02544  25536635.9434   25536640.0684
       890.2504        693.7014
  13601800.82247  10579410.60046  23287220.2254   23287220.8814
     -4620.8914      -3600.6944
  -2320577.90147  -1777414.72946  22647086.5374   22647087.1934
      -543.0784       -423.1784
  18839601.63743    128649.95141  26121192.3894   26121202.5764
     -4588.3594      -3575.3454
   1608617.85646   1277588.24446  23364533.6314   23364534.9204
     -2307.2504      -1797.8574
  12588708.70546   9809380.65146  23838196.8734   23838198.2794
     -4414.6724      -3440.0044
  -2700771.69545  -2022854.43945  24911863.9514   24911865.2754
       851.1884        663.2634
   2895477.67647   2297401.76946  21939784.7564   21939785.9514
     -2418.5624      -1884.5944
 98  6 17 16 51  0.0060000  0  8G10G 4G 5G 7G 8G 9G30G24
  -1453340.12545  -1069615.82544  25534097.3654   25534102.6034
       888.6094        692.4234
  13671163.91147  10633459.73946  23300419.1394   23300419.9474
     -4627.7194      -3606.0154
  -2312387.67747  -1771032.72947  22648645.3814   22648646.0724
      -549.1414       -427.9024
  18908433.21745    182285.00341  26134292.3424   26134296.1624
     -4589.4224      -3576.1734
   1643309.85246   1304620.95646  23371135.5684   23371136.8814
     -2318.5474      -1806.6604
  12654980.64146   9861021.09946  23850807.8034   23850808.9044
     -4421.7344      -3445.5074
  -2713521.62245  -2032789.33845  24909438.6154   24909440.6544
       848.5784        661.2304
   2931826.60047   2325725.61446  21946701.7324   21946702.8114
     -2428.2034      -1892.1064
 98  6 17 16 51 15.0060000  0  8G10G 4G 5G 7G 8G 9G30G24
  -1466659.62945  -1079994.56743  25531563.4434   25531570.2054
       887.2034        691.3274
  13740626.79547  10687586.65446  23313637.4754   23313638.1544
     -4634.0944      -3610.9824
  -2304107.14847  -1764580.36347  22650221.0294   22650221.6394
      -555.1094       -432.5534
  18977279.64245    235931.70342  26147393.0924   26147395.9394
     -4590.2034      -3576.7824
   1678169.33446   1331784.18746  23377768.8894   23377770.0614
     -2329.4224      -1815.1344
  12721354.51746   9912740.97946  23863438.6394   23863439.8224
     -4428.1564      -3450.5114
  -2726233.83346  -2042694.91645  24907020.3814   24907021.9514
       846.3594        659.5014
   2968318.09347   2354160.55146  21953645.7954   21953647.1784
     -2437.3754      -1899.2534
 98  6 17 16 51 30.0060000  0  8G10G 4G 5G 7G 8G 9G30G24
  -1479945.05645  -1090346.83543  25529033.1544   25529036.1664
       884.4534        689.1844
  13810199.07047  10741798.80446  23326876.9824   23326877.7684
     -4642.0004      -3617.1434
  -2295724.32947  -1758048.29047  22651816.0374   22651816.5644
      -562.3444       -438.1904
  19046147.94144    289595.22243  26160498.0534   26160503.6194
     -4592.0164      -3578.1944
   1713201.97746   1359082.34146  23384435.4824   23384436.8894
     -2341.3594      -1824.4364
  12787834.93546   9964543.88246  23876089.4514   23876090.8114
     -4435.6874      -3456.3804
  -2738902.44646  -2052566.53545  24904609.4434   24904610.7914
       843.0784        656.9444
   3004957.31647   2382710.60246  21960618.1154   21960619.2874
     -2447.5784      -1907.2044
 98  6 17 16 51 45.0060000  0  8G10G 4G 5G 7G 8G 9G30G24
  -1493195.36345  -1100671.62944  25526513.4284   25526518.5964
       882.4064        687.5894
  13879884.04847  10796098.77346  23340137.5294   23340138.5024
     -4649.2034      -3622.7564
  -2287239.19147  -1751436.49147  22653430.8814   22653431.7134
      -568.9064       -443.3044
  19115037.14642    343275.04342  26173606.9984   26173613.2794
     -4593.0474      -3578.9984
   1748405.83146   1386513.91146  23391134.4674   23391136.0494
     -2352.2974      -1832.9594
  12854421.76146  10016429.69846  23888760.5924   23888761.9514
     -4442.4374      -3461.6404
  -2751528.23045  -2062404.80045  24902205.4754   24902207.6434
       840.4534        654.8994
   3041741.11647   2411373.31146  21967617.6074   21967618.7094
     -2456.8124      -1914.3994
 98  6 17 16 52  0.0060000  0  7G10G 4G 5G 8G 9G30G24
  -1506417.40645  -1110974.46144  25523996.6004   25524001.6394
       880.6254        686.2014
  13949675.12647  10850481.41746  23353418.2714   23353419.2214
     -4656.1724      -3628.1864
  -2278656.36647  -1744748.57047  22655064.2094   22655065.0884
      -575.3594       -448.3324
   1783771.66646   1414071.68846  23397864.3264   23397865.7444
     -2363.0944      -1841.3724
  12921109.36346  10068394.03646  23901450.7564   23901451.9864
     -4449.1724      -3466.8874
  -2764113.92745  -2072211.79845  24899811.8034   24899812.8814
       837.6414        652.7074
   3078663.25447   2440143.81346  21974643.7564   21974644.6934
     -2466.0784      -1921.6194
 98  6 17 16 52 15.0060000  0  7G10G 4G 5G 8G 9G30G24
  -1519615.70245  -1121258.76344  25521485.8574   25521490.1704
       879.1564        685.0574
  14019568.32347  10904943.63646  23366718.6074   23366719.3344
     -4662.8444      -3633.3854
  -2269977.77147  -1737986.02246  22656715.4364   22656716.2564
      -581.7344       -453.3004
   1819299.52046   1441755.72346  23404625.0214   23404626.2754
     -2374.0164      -1849.8824
  12987896.03046  10120435.58546  23914159.7324   23914161.0454
     -4455.6874      -3471.9644
  -2776657.44346  -2081985.98445  24897425.3424   24897426.5024
       834.8754        650.5524
   3115721.86347   2469020.65446  21981695.7094   21981696.7874
     -2474.9844      -1928.5594
 98  6 17 16 52 30.0060000  0  7G10G 4G 5G 8G 9G30G24
  -1532785.90244  -1131521.20543  25518978.3734   25518984.5614
       877.1094        683.4624
  14089566.85147  10959487.93446  23380038.8574   23380039.5374
     -4670.0784      -3639.0224
  -2261197.74847  -1731144.44447  22658386.3034   22658387.1004
      -588.7814       -458.7914
   1854998.81446   1469573.34146  23411418.3344   23411419.9864
     -2385.6874      -1858.9774
  13054785.44546  10172557.18946  23926888.3964   23926889.7444
     -4462.7504      -3477.4684
  -2789153.97946  -2091723.49945  24895046.4364   24895047.7364
       831.5474        647.9594
   3152918.39347   2498004.97346  21988774.0924   21988775.3114
     -2484.3594      -1935.8644
 98  6 17 16 52 45.0060000  0  7G10G 4G 5G 8G 9G30G24
  -1545933.86245  -1141766.24644  25516477.1704   25516480.2754
       875.7344        682.3904
  14159664.65047  11014109.57946  23393378.0144   23393378.7874
     -4676.5164      -3644.0384
  -2252318.63847  -1724225.65247  22660075.9044   22660076.8184
      -595.3124       -463.8804
   1890864.22146   1497520.40846  23418243.4984   23418245.2214
     -2396.5004      -1867.4034
  13121773.71646  10224755.81446  23939635.5214   23939637.0454
     -4469.1724      -3482.4724
  -2801609.52245  -2101429.01645  24892674.6624   24892677.8034
       828.9844        645.9624
   3190247.66447   2527092.72146  21995877.5144   21995878.3934
     -2493.0624      -1942.6464
 98  6 17 16 53  0.0060000  0  7G10G 4G 5G 8G 9G30G24
  -1559053.31345  -1151989.10544  25513980.2404   25513985.6544
       873.5474        680.6864
  14229866.30547  11068812.15946  23406737.0064   23406737.8734
     -4683.6414      -3649.5904
  -2243333.51347  -1717224.24647  22661785.7954   22661786.7324
      -602.6874       -469.6274
   1926896.09046   1525597.18046  23425100.1544   23425101.4204
     -2407.6724      -1876.1084
  13188865.13546  10277034.81146  23952403.0614   23952404.7254
     -4476.3444      -3488.0604
  -2814018.38446  -2111098.17345  24890315.0374   24890316.7714
       825.5784        643.3084
   3227714.39247   2556287.58246  22003007.3264   22003008.2644
     -2502.4694      -1949.9764
 98  6 17 16 53 15.0060000  0  7G10G 4G 5G 8G 9G30G24
  -1572141.96245  -1162188.00743  25511489.0064   25511492.2874
       871.6094        679.1764
  14300172.53147  11123596.21546  23420115.8734   23420116.6704
     -4690.5314      -3654.9594
  -2234237.74947  -1710136.63447  22663516.5064   22663517.5254
      -610.0944       -475.3984
   1963094.99546   1553804.11246  23431988.4594   23431989.5144
     -2418.8284      -1884.8014
  13256064.87846  10329398.21846  23965190.6544   23965192.2484
     -4483.6414      -3493.7464
  -2826379.06946  -2120729.97845  24887963.3964   24887963.6074
       822.5634        640.9584
   3265320.75647   2585591.24646  22010163.6314   22010164.7794
     -2511.6874      -1957.1594
 98  6 17 16 53 30.0060000  0  7G10G 4G 5G 8G 9G30G24
  -1585205.09445  -1172366.96644  25509003.8814   25509006.7754
       869.9694        677.8984
  14370578.49447  11178457.99546  23433513.6394   23433514.4004
     -4697.1254      -3660.0974
  -2225035.07647  -1702965.70747  22665267.7094   22665268.6114
      -617.0944       -480.8524
   1999456.66546   1582137.87346  23438907.9674   23438909.1154
     -2429.6254      -1893.2144
  13323370.98246  10381844.50346  23977998.7014   23978000.4004
     -4490.7664      -3499.2984
  -2838699.91246  -2130330.63745  24885617.9754   24885619.0534
       820.0004        638.9614
   3303060.49147   2614998.83646  22017345.2254   22017346.4674
     -2520.4844      -1964.0144
 98  6 17 16 53 45.0060000  0  7G10G 4G 5G 8G 9G30G24
  -1598241.77044  -1182525.36943  25506521.5684   25506527.0534
       868.4224        676.6924
  14441086.68947  11233399.42946  23446930.9594   23446931.8264
     -4703.8124      -3665.3084
  -2215726.65047  -1695712.38247  22667039.0924   22667039.8184
      -623.8914       -486.1494
   2035983.98946   1610600.71446  23445858.8344   23445860.0414
     -2440.5784      -1901.7494
  13390788.76846  10434377.82146  23990827.9364   23990829.8344
     -4498.1414      -3505.0454
  -2850975.96045  -2139896.28045  24883281.0294   24883285.4944
       816.8914        636.5384
   3340936.95147   2644512.96846  22024552.8654   22024554.0494
     -2529.6094      -1971.1244
 98  6 17 16 54  0.0060000  0  7G10G 4G 5G 8G 9G30G24
  -1611255.68645  -1192665.94744  25504046.8344   25504051.6394
       866.6884        675.3414
  14511695.80647  11288419.51046  23460367.3814   23460368.1434
     -4710.8754      -3670.8124
  -2206315.79947  -1688379.24246  22668829.8504   22668830.6704
      -630.9224       -491.6274
   2072675.69046   1639191.63046  23452840.9044   23452842.0884
     -2451.8284      -1910.5154
  13458318.35546  10486998.24846  24003678.2174   24003679.9394
     -4505.8914      -3511.0844
  -2863202.50646  -2149423.33645  24880955.4364   24880958.6114
       813.2034        633.6654
   3378952.68447   2674135.62046  22031786.9904   22031788.3034
     -2539.3124      -1978.6854
 98  6 17 16 54 15.0060000  0  7G10G 4G 5G 8G 9G30G24
  -1624250.06545  -1202791.39743  25501572.8734   25501578.0764
       865.5164        674.4284
  14582405.76747  11343518.16946  23473822.9364   23473823.8854
     -4717.5004      -3675.9744
  -2196806.53947  -1680969.41847  22670639.4044   22670640.4474
      -637.3754       -496.6564
   2109533.28846   1667911.83246  23459854.7484   23459855.8854
     -2462.9694      -1919.1964
  13525958.02046  10539704.45446  24016549.7954   24016551.9044
     -4513.0944      -3516.6964
  -2875379.76546  -2158912.15145  24878638.6864   24878638.6744
       810.0634        631.2184
   3417110.00847   2703868.60646  22039047.9364   22039049.1314
     -2548.7034      -1986.0024
 98  6 17 16 54 30.0060000  0  7G10G 4G 5G 8G 9G30G24
  -1637222.58145  -1212899.76844  25499104.9514   25499108.2444
       864.0634        673.2954
  14653217.81647  11398696.37946  23487297.7564   23487298.6704
     -4724.2034      -3681.1974
  -2187196.10147  -1673480.75547  22672468.2564   22672469.3344
      -644.0624       -501.8674
   2146563.22946   1696766.31946  23466901.4364   23466902.6314
     -2474.4374      -1928.1334
  13593708.97346  10592497.36146  24029442.6394   24029444.5254
     -4520.5004      -3522.4684
  -2887508.63945  -2168363.30745  24876329.6314   24876329.3144
       807.0634        628.8804
   3455411.36747   2733713.82646  22046336.5534   22046337.6894
     -2558.2814      -1993.4664
 98  6 17 16 54 45.0060000  0  7G10G 4G 5G 8G 9G30G24
  -1650176.77245  -1222993.86344  25496639.2324   25496644.6704
       862.9694        672.4434
  14724127.26647  11453950.48746  23500791.7254   23500792.4284
     -4730.5474      -3686.1404
  -2177489.68047  -1665917.30046  22674315.3344   22674316.4594
      -650.3444       -506.7614
   2183760.39846   1725751.11446  23473979.9514   23473981.1464
     -2485.3284      -1936.6194
  13661567.80046  10645374.33146  24042355.6314   24042357.1314
     -4527.5474      -3527.9594
  -2899596.38545  -2177782.23745  24874028.7564   24874031.5214
       804.3914        626.7984
   3493854.68547   2763669.66646  22053651.9434   22053653.0214
     -2567.7344      -2000.8324
 98  6 17 16 55  0.0060000  0  7G10G 4G 5G 8G 9G30G24
  -1663108.97445  -1233070.84244  25494178.3184   25494180.4864
       861.1724        671.0434
  14795134.58547  11509280.85146  23514304.1624   23514305.0414
     -4737.2664      -3691.3764
  -2167685.13447  -1658277.38746  22676181.1864   22676182.2054
      -657.0624       -511.9974
   2221123.36546   1754865.11046  23481089.7954   23481090.7564
     -2496.5474      -1945.3614
  13729535.77846  10698336.36146  24055289.7644   24055291.3694
     -4534.9534      -3533.7304
  -2911638.51246  -2187165.60445  24871738.3114   24871740.5494
       801.0784        624.2174
   3532445.25647   2793740.24746  22060995.6234   22060996.6544
     -2577.8284      -2008.6974
 98  6 17 16 55 15.0060000  0  7G10G 4G 5G 8G 9G30G24
  -1676014.81145  -1243127.21544  25491723.2404   25491727.7174
       859.5784        669.8014
  14866242.35147  11564689.48746  23527835.4514   23527836.3304
     -4743.7664      -3696.4414
  -2157779.69447  -1650558.85346  22678065.8814   22678066.7134
      -663.7034       -517.1714
   2258655.78346   1784111.13946  23488231.8264   23488232.9864
     -2507.7974      -1954.1274
  13797613.81946  10751384.15746  24068244.3184   24068245.8304
     -4542.0944      -3539.2944
  -2923630.48846  -2196509.99545  24869456.8264   24869458.4434
       797.8754        621.7214
   3571187.40347   2823928.93946  22068368.0924   22068369.1464
     -2587.7974      -2016.4654
 98  6 17 16 55 30.0060000  0  7G10G 4G 5G 8G 9G30G24
  -1688890.92045  -1253160.53844  25489272.0764   25489276.0494
       857.0314        667.8174
  14937453.15047  11620178.41146  23541386.1464   23541387.1314
     -4751.1724      -3702.2124
  -2147768.74947  -1642758.10446  22679971.0144   22679972.3034
      -671.2034       -523.0154
   2296363.96546   1813494.13146  23495407.5614   23495408.6154
     -2520.1094      -1963.7224
  13865802.78146  10804518.39646  24081219.9514   24081221.6034
     -4549.9224      -3545.3944
  -2935568.90345  -2205812.68345  24867183.9824   24867184.5104
       793.7504        618.5064
   3610084.11647   2854238.07346  22075769.9594   22075770.9084
     -2598.5944      -2024.8784
 98  6 17 16 55 45.0060000  0  7G10G 4G 5G 8G 9G30G24
  -1701734.07245  -1263168.07245  25486828.5844   25486833.2364
       855.3754        666.5264
  15008767.39247  11675747.94146  23554956.9284   23554957.7954
     -4757.3914      -3707.0584
  -2137654.21847  -1634876.64346  22681895.7094   22681896.8224
      -677.4844       -527.9104
   2334248.97946   1843014.90746  23502616.8894   23502618.0844
     -2531.2504      -1972.4034
  13934101.37546  10857738.06046  24094217.0214   24094218.8384
     -4556.5944      -3550.5934
  -2947450.79545  -2215071.27845  24864922.3574   24864924.5844
       790.4384        615.9254
   3649135.02147   2884667.35446  22083201.0064   22083202.0724
     -2608.1724      -2032.3424
 98  6 17 16 56  0.0060000  0  7G10G 4G 5G 8G 9G30G24
  -1714546.08045  -1273151.39044  25484390.9514   25484394.9244
       852.6884        664.4324
  15080180.46347  11731394.47646  23568546.5454   23568547.5184
     -4764.5164      -3712.6104
  -2127436.25047  -1626914.57946  22683839.8964   22683841.1864
      -685.1254       -533.8644
   2372307.93746   1872671.23746  23509859.1784   23509860.6074
     -2543.4064      -1981.8754
  14002505.49046  10911039.94946  24107233.9204   24107235.9124
     -4564.0944      -3556.4374
  -2959276.33846  -2224285.92645  24862672.9284   24862674.6974
       786.2344        612.6504
   3688334.21047   2915212.18746  22090660.5064   22090661.7134
     -2618.5314      -2040.4144
 98  6 17 16 56 15.0060000  0  7G10G 4G 5G 8G 9G30G24
  -1727323.77245  -1283107.99645  25481958.5534   25481961.7644
       850.6724        662.8614
  15151691.93547  11787117.69246  23582154.7954   23582155.6504
     -4770.6564      -3717.3944
  -2117109.49247  -1618867.74246  22685805.1704   22685806.1194
      -692.1094       -539.3064
   2410543.28346   1902465.00546  23517135.0454   23517136.3224
     -2554.9534      -1990.8734
  14071014.03546  10964423.20446  24120270.9674   24120273.0534
     -4570.7034      -3561.5874
  -2971050.06246  -2233460.23945  24860432.5064   24860433.9474
       783.2814        610.3494
   3727680.17547   2945871.38546  22098147.5374   22098148.6274
     -2627.8914      -2047.7074
 98  6 17 16 56 30.0060000  0  7G10G 4G 5G 8G 9G30G24
  -1740068.95645  -1293039.20745  25479533.5064   25479538.3814
       848.6094        661.2544
  15223294.45947  11842911.85446  23595780.1624   23595780.9824
     -4776.3594      -3721.8384
  -2106674.92547  -1610736.90646  22687790.9434   22687791.9394
      -699.1874       -544.8214
   2448952.72446   1932394.42546  23524444.3814   23524445.4364
     -2566.2194      -1999.6514
  14139622.41446  11017884.24946  24133326.5214   24133328.3854
     -4577.0624      -3566.5424
  -2982778.72745  -2242599.42745  24858199.8504   24858201.4904
       780.5314        608.2064
   3767166.50847   2976639.96346  22105661.3034   22105662.1464
     -2636.9224      -2054.7444
 98  6 17 16 56 45.0060000  0  7G10G 4G 5G 8G 9G30G24
  -1752773.95445  -1302939.17144  25477114.8654   25477118.0884
       845.1564        658.5634
  15294989.39247  11898778.02446  23609423.4514   23609424.2484
     -4783.2504      -3727.2084
  -2096128.12847  -1602518.61446  22689797.8184   22689798.7444
      -707.2664       -551.1164
   2487534.67146   1962458.27746  23531785.9594   23531787.1894
     -2578.1874      -2008.9774
  14208331.92446  11071424.08846  24146401.4284   24146403.0334
     -4584.4374      -3572.2894
  -2994458.63745  -2251700.62945  24855977.6864   24855978.9984
       776.4844        605.0534
   3806793.64847   3007518.25546  22113202.3574   22113203.2254
     -2646.9374      -2062.5494
 98  6 17 16 57  0.0060000  0  7G10G 4G 5G 8G 9G30G24
  -1765431.12645  -1312801.80545  25474707.4364   25474710.5184
       842.4384        656.4454
  15366784.16147  11954721.99046  23623085.4754   23623086.2834
     -4789.3914      -3731.9934
  -2085464.96047  -1594209.63746  22691826.9824   22691828.1074
      -714.4844       -556.7414
   2526290.13446   1992657.32746  23539161.4124   23539162.5844
     -2589.1874      -2017.5494
  14277146.35546  11125045.69246  24159496.2954   24159498.2644
     -4590.8124      -3577.2564
  -3006081.05146  -2260757.05145  24853766.5294   24853767.3964
       773.1564        602.4594
   3846565.99147   3038509.69846  22120770.9364   22120771.8144
     -2655.9844      -2069.5984
 98  6 17 16 57 15.0060000  0  7G10G 4G 5G 8G 9G30G24
  -1778050.08845  -1322634.71944  25472305.8504   25472310.2094
       840.1094        654.6314
  15438668.33947  12010735.62646  23636764.5534   23636765.4204
     -4795.1724      -3736.4984
  -2074697.77247  -1585819.60746  22693875.8814   22693876.8534
      -721.0944       -561.8914
   2565207.87946   2022982.83646  23546566.8264   23546567.7524
     -2599.8754      -2025.8774
  14346052.48446  11178738.75446  24172608.9594   24172610.9164
     -4596.6724      -3581.8224
  -3017658.89146  -2269778.72745  24851563.2794   24851564.4514
       770.6254        600.4874
   3886468.47147   3069602.54246  22128363.9904   22128365.1034
     -2664.2664      -2076.0514
 98  6 17 16 57 30.0060000  0  7G10G 4G 5G 8G 9G30G24
  -1790629.99245  -1332437.18044  25469911.2324   25469915.0644
       837.0474        652.2444
  15510643.16547  12066819.90046  23650460.7794   23650461.5534
     -4801.5944      -3741.5024
  -2063828.01147  -1577349.65346  22695944.3574   22695945.2834
      -728.2814       -567.4924
   2604291.43146   2053437.54646  23554004.4204   23554005.5334
     -2611.4064      -2034.8624
  14415051.86046  11232504.47646  24185738.8344   24185740.5804
     -4603.3914      -3587.0584
  -3029195.59846  -2278768.31845  24849367.0064   24849369.0574
       767.5004        598.0524
   3926497.89947   3100794.31046  22135981.4514   22135982.5764
     -2673.1094      -2082.9424
 98  6 17 16 57 45.0060000  0  7G10G 4G 5G 8G 9G30G24
  -1803163.41445  -1342203.42544  25467526.0214   25467530.8964
       834.1884        650.0164
  15582714.71047  12122979.53646  23664175.6624   23664176.4714
     -4807.8914      -3746.4084
  -2052851.95047  -1568796.86646  22698032.9754   22698033.7014
      -735.0784       -572.7884
   2643546.98346   2084026.28046  23561474.5454   23561475.5294
     -2622.5474      -2043.5434
  14484152.76746  11286349.31546  24198888.5294   24198890.1824
     -4610.0004      -3592.2084
  -3040685.10946  -2287721.14245  24847180.8734   24847182.6784
       764.5164        595.7264
   3966661.60347   3132090.70846  22143624.2954   22143625.5144
     -2681.9534      -2089.8344
 98  6 17 16 58  0.0060000  0  7G10G 4G 5G 8G 9G30G24
  -1815647.10945  -1351930.89244  25465150.7324   25465155.9714
       830.5944        647.2164
  15654887.42647  12179218.00646  23677909.7794   23677910.9754
     -4814.8914      -3751.8634
  -2041766.28047  -1560158.66746  22700142.4434   22700143.2754
      -742.7664       -578.7784
   2682975.83446   2114750.04946  23568977.5764   23568978.3964
     -2634.3124      -2052.7114
  14553359.83146  11340276.88246  24212058.1934   24212059.6704
     -4617.3594      -3597.9424
  -3052122.18346  -2296633.12745  24845004.8264   24845005.6824
       760.7194        592.7684
   4006964.41447   3163495.49846  22151293.6234   22151294.8534
     -2691.5784      -2097.3344
 98  6 17 16 58 15.0060000  0  7G10G 4G 5G 8G 9G30G24
  -1828086.56145  -1361623.95044  25462782.8034   25462787.0214
       827.7034        644.9634
  15727155.96847  12235531.14546  23691661.9904   23691662.9164
     -4821.2034      -3756.7824
  -2030575.24447  -1551438.37346  22702272.0144   22702272.8114
      -749.5944       -584.0994
   2722570.99246   2145603.41646  23576512.4204   23576513.3224
     -2645.2814      -2061.2584
  14622666.89646  11394282.35346  24225246.8424   24225248.5064
     -4623.8594      -3603.0074
  -3063514.33446  -2305510.12545  24842836.8184   24842837.6974
       757.9694        590.6254
   4047403.03847   3195006.11846  22158988.7874   22158989.7954
     -2700.5624      -2104.3344
 98  6 17 16 58 30.0060000  0  7G10G 4G 5G 8G 9G30G24
  -1840473.68945  -1371276.15445  25460426.8964   25460431.3144
       824.2034        642.2364
  15799528.21247  12291925.09146  23705433.8894   23705434.9784
     -4828.2344      -3762.2614
  -2019275.57347  -1542633.42046  22704422.3344   22704423.1544
      -756.7814       -589.7004
   2762337.92346   2176590.62546  23584079.6314   23584080.5454
     -2656.6724      -2070.1344
  14692079.27346  11448369.89646  24238455.6154   24238457.0684
     -4630.8914      -3608.4864
  -3074855.07646  -2314347.02645  24840678.0924   24840679.5454
       754.2814        587.7524
   4087986.50547   3226629.60246  22166711.5214   22166712.5764
     -2710.3284      -2111.9444
 98  6 17 16 58 45.0060000  0  7G10G 4G 5G 8G 9G30G24
  -1852813.87944  -1380891.90844  25458077.4674   25458083.5724
       820.8914        639.6554
  15872001.65147  12348397.89446  23719225.0764   23719226.2014
     -4835.1564      -3767.6544
  -2007872.68047  -1533748.03946  22706592.1934   22706593.0144
      -763.8124       -595.1794
   2802268.86546   2207705.63846  23591678.1624   23591679.2994
     -2667.6874      -2078.7184
  14761592.08546  11502535.70946  24251683.5454   24251685.1974
     -4637.7034      -3613.7954
  -3086144.25346  -2323143.74745  24838530.2094   24838531.6974
       750.7344        584.9884
   4128710.50047   3258362.58846  22174461.0614   22174462.3504
     -2719.7504      -2119.2864
 98  6 17 16 59  0.0060000  0  7G10G 4G 5G 8G 9G30G24
  -1865105.03845  -1390469.31745  25455739.1314   25455742.4124
       817.9224        637.3424
  15944579.27047  12404951.87646  23733036.1784   23733037.3034
     -4841.9064      -3772.9144
  -1996365.21247  -1524781.16646  22708782.2014   22708783.1034
      -770.6254       -600.4874
   2842365.72946   2238949.93646  23599308.6934   23599309.7364
     -2678.6564      -2087.2654
  14831206.54846  11556780.72246  24264930.9514   24264932.4754
     -4644.2504      -3618.8964
  -3097381.58146  -2331900.07345  24836392.0764   24836393.3424
       747.5634        582.5164
   4169575.38747   3290205.35946  22182237.3734   22182238.7914
     -2729.0004      -2126.4944
 98  6 17 16 59 15.0060000  0  7G10G 4G 5G 8G 9G30G24
  -1877348.37145  -1400009.52044  25453408.7254   25453413.0724
       814.1414        634.3954
  16017261.36247  12461587.26146  23746867.2094   23746868.2874
     -4849.3914      -3778.7464
  -1984749.29847  -1515729.79647  22710992.4364   22710993.0454
      -778.5164       -606.6364
   2882633.21546   2270327.18746  23606970.9514   23606971.9944
     -2690.7034      -2096.6524
  14900922.66646  11611104.94446  24278197.3034   24278198.9554
     -4651.6094      -3624.6314
  -3108568.47246  -2340617.12745  24834263.3814   24834264.0614
       743.6564        579.4724
   4210583.13547   3322159.44846  22190040.9124   22190042.3424
     -2739.0784      -2134.3474
 98  6 17 16 59 30.0060000  0  7G10G 4G 5G 8G 9G30G24
  -1889538.63545  -1409508.37945  25451089.8264   25451094.4784
       810.8594        631.8384
  16090050.95747  12518306.41146  23760718.5374   23760719.5454
     -4856.2344      -3784.0794
  -1973018.52247  -1506588.91747  22713224.8114   22713225.4904
      -786.0164       -612.4804
   2923078.72146   2301843.15746  23614667.3814   23614668.0374
     -2702.3914      -2105.7594
  14970746.40946  11665513.04246  24291484.3114   24291485.4714
     -4658.5624      -3630.0494
  -3119699.53846  -2349290.69145  24832144.7174   24832145.2564
       740.0164        576.6364
   4251738.93047   3354228.90146  22197872.7714   22197874.1664
     -2748.7814      -2141.9074
 98  6 17 16 59 45.0060000  0  7G10G 4G 5G 8G 9G30G24
  -1901680.69745  -1418969.67144  25448778.8894   25448784.6194
       807.9534        629.5744
  16162940.57447  12575103.50146  23774588.8734   23774589.9044
     -4862.5164      -3788.9734
  -1961174.93747  -1497360.13847  22715478.5294   22715479.5144
      -793.2814       -618.1414
   2963696.78046   2333493.58046  23622396.6154   23622397.6934
     -2713.4064      -2114.3434
  15040671.50046  11720000.09746  24304790.9674   24304792.1744
     -4664.8914      -3634.9804
  -3130774.69846  -2357920.64545  24830037.2014   24830039.2284
       736.5164        573.9084
   4293039.93647   3386411.50446  22205731.9824   22205733.2834
     -2758.1094      -2149.1764
 98  6 17 17  0  0.0060000  0  7G10G 4G 5G 8G 9G30G24
  -1913779.39145  -1428397.16745  25446476.6234   25446480.8774
       805.0164        627.2854
  16235925.09247  12631974.54346  23788477.4594   23788478.5494
     -4868.8914      -3793.9414
  -1949221.22047  -1488045.54147  22717753.0844   22717753.9044
      -800.6874       -623.9124
   3004477.96046   2365271.11746  23630157.2174   23630158.2834
     -2724.2504      -2122.7924
  15110690.19146  11774560.04946  24318115.1704   24318116.3534
     -4671.0784      -3639.8014
  -3141796.40246  -2366508.93445  24827940.1154   24827942.5764
       732.9224        571.1084
   4334479.33747   3418701.94546  22213617.6004   22213618.9714
     -2767.2814      -2156.3234
 98  6 17 17  0 15.0060000  0  7G10G 4G 5G 8G 9G30G24
  -1925832.81845  -1437789.39245  25444182.2404   25444187.8774
       802.0314        624.9594
  16309003.55847  12688918.79046  23802384.0614   23802385.1624
     -4875.0314      -3798.7264
  -1937155.33547  -1478643.54646  22720049.0764   22720049.7214
      -808.1874       -629.7564
   3045422.51046   2397175.95446  23637948.9434   23637949.8114
     -2735.1564      -2131.2914
  15180801.93046  11829192.52546  24331456.8184   24331457.8034
     -4677.2344      -3644.5984
  -3152765.22846  -2375056.05145  24825852.5064   24825853.9474
       729.5004        568.4424
   4376056.32247   3451099.59446  22221529.1784   22221530.4784
     -2776.4694      -2163.4824
 98  6 17 17  0 30.0060000  0  7G10G 4G 5G 8G 9G30G24
  -1937841.80845  -1447146.98445  25441897.6314   25441900.4084
       799.2814        622.8174
  16382173.63647  12745934.42146  23816307.7714   23816308.7794
     -4880.8594      -3803.2674
  -1924977.21847  -1469154.09347  22722366.6784   22722367.4044
      -815.4374       -635.4064
   3086531.47946   2429208.91046  23645771.7404   23645772.8774
     -2745.9224      -2139.6794
  15251004.54446  11883895.84846  24344816.1544   24344817.2684
     -4683.0314      -3649.1154
  -3163683.31145  -2383563.62345  24823774.2714   24823775.7014
       726.3134        565.9584
   4417769.95447   3483603.72046  22229467.2094   22229468.2994
     -2785.2814      -2170.3494
 98  6 17 17  0 45.0060000  0  7G10G 4G 5G 8G 9G30G24
  -1949810.82045  -1456473.46844  25439619.8964   25439625.4634
       796.4844        620.6374
  16455428.79247  12803016.34446  23830247.6864   23830248.5294
     -4886.5784      -3807.7234
  -1912691.79547  -1459581.02447  22724704.6154   22724705.5294
      -822.7664       -641.1164
   3127799.79846   2461366.03046  23653624.6154   23653625.8814
     -2756.5944      -2147.9954
  15321293.56146  11938666.51146  24358191.3504   24358192.8384
     -4688.9534      -3653.7304
  -3174553.78646  -2392034.07945  24821706.5294   24821708.2874
       723.0314        563.4014
   4459614.63747   3516209.96746  22237430.2324   22237431.1704
     -2794.0624      -2177.1924
 98  6 17 17  1  0.0060000  0  7G10G 4G 5G 8G 9G30G24
  -1961735.20545  -1465765.10745  25437350.5534   25437353.9754
       793.4224        618.2514
  16528769.56047  12860164.99046  23844203.9984   23844204.9364
     -4892.2344      -3812.1314
  -1900293.88247  -1449920.29847  22727063.8344   22727064.7364
      -830.2974       -646.9854
   3169230.18146   2493649.43546  23661508.9434   23661510.0684
     -2767.4694      -2156.4694
  15391672.83246  11993507.49346  24371584.1934   24371585.6234
     -4694.9844      -3658.4294
  -3185375.48346  -2400466.55845  24819647.5924   24819648.6114
       719.8594        560.9294
   4501592.55747   3548920.03546  22245418.1544   22245419.3504
     -2803.0944      -2184.2294
 98  6 17 17  1 15.0060000  0  7G10G 4G 5G 8G 9G30G24
  -1973616.69945  -1475023.39345  25435089.2794   25435094.4714
       790.7344        616.1574
  16602192.88847  12917377.95646  23858175.9904   23858177.1154
     -4897.6254      -3816.3314
  -1887785.75147  -1440173.68947  22729443.8034   22729444.7524
      -837.5164       -652.6104
   3210820.80346   2526057.70946  23669423.2324   23669424.5334
     -2777.9374      -2164.6274
  15462140.81746  12048417.59746  24384993.7484   24384995.4244
     -4700.8284      -3662.9834
  -3196151.10946  -2408863.12545  24817596.3814   24817597.7284
       716.7814        558.5314
   4543705.75047   3581735.50946  22253432.1784   22253433.3264
     -2812.0164      -2191.1814
 98  6 17 17  1 30.0060000  0  7G10G 4G 5G 8G 9G30G24
  -1985459.11645  -1484251.15045  25432836.1464   25432840.9634
       788.0314        614.0504
  16675696.32047  12974653.34246  23872163.3894   23872164.5964
     -4903.0784      -3820.5804
  -1875171.48347  -1430344.37847  22731844.7254   22731845.4754
      -844.6094       -658.1374
   3252565.54146   2558586.07246  23677366.9434   23677368.2794
     -2788.2344      -2172.6504
  15532697.28246  12103396.64546  24398420.2794   24398422.2954
     -4706.9844      -3667.7804
  -3206879.67746  -2417222.99445  24815554.8264   24815556.6894
       713.4534        555.9384
   4585951.08547   3614653.94846  22261471.1004   22261472.3184
     -2820.9224      -2198.1214
 98  6 17 17  1 45.0070000  0  7G10G 4G 5G 8G 9G30G24
  -1997262.94645  -1493448.92645  25430589.8234   25430594.6404
       785.5634        612.1274
  16749284.71947  13031994.93846  23886166.7454   23886167.8474
     -4908.2194      -3824.5864
  -1862451.51647  -1420432.70847  22734265.0814   22734265.8544
      -851.4694       -663.4824
   3294465.71946   2591235.54946  23685340.0114   23685341.0194
     -2798.1724      -2180.3944
  15603350.36246  12158450.96446  24411864.8944   24411866.9794
     -4712.9534      -3672.4314
  -3217560.31046  -2425545.55745  24813523.1674   24813523.8114
       710.4224        553.5754
   4628331.23647   3647677.44346  22269535.7694   22269537.1044
     -2829.5314      -2204.8304
 98  6 17 17  2  0.0070000  0  7G10G 4G 5G 8G 9G30G24
  -2009026.12545  -1502614.97145  25428351.5194   25428356.0424
       783.0004        610.1304
  16822950.01347  13089396.45046  23900184.6444   23900185.8394
     -4913.7664      -3828.9084
  -1849626.92647  -1410439.50747  22736705.3944   22736706.2264
      -858.4064       -668.8884
   3336512.39246   2623999.18846  23693341.4954   23693342.5154
     -2807.9844      -2188.0404
  15674091.84746  12213574.16946  24425326.5894   24425328.7694
     -4719.1564      -3677.2654
  -3228192.75546  -2433830.58545  24811498.6514   24811500.2104
       707.3754        551.2014
   4670840.61547   3680801.63346  22277624.8084   22277626.1204
     -2838.3124      -2211.6724
 98  6 17 17  2 15.0070000  0  7G10G 4G 5G 8G 9G30G24
  -2020749.07645  -1511749.71645  25426120.0814   25426124.1834
       780.2504        607.9874
  16896701.66047  13146865.24646  23914218.9174   23914219.9724
     -4919.5784      -3833.4374
  -1836695.44847  -1400363.01947  22739166.2224   22739166.9834
      -865.6094       -674.5014
   3378709.91646   2656880.36846  23701371.4334   23701372.6164
     -2818.2344      -2196.0274
  15744928.68346  12268771.66946  24438806.5894   24438808.3944
     -4725.5784      -3682.2694
  -3238778.58846  -2442079.21545  24809484.5424   24809487.0384
       704.2974        548.8034
   4713485.31447   3714031.26946  22285740.0034   22285741.2694
     -2847.4844      -2218.8194
 98  6 17 17  2 30.0070000  0  7G10G 4G 5G 8G 9G30G24
  -2032434.69245  -1520855.31945  25423896.9094   25423899.7924
       777.6724        605.9784
  16970537.24647  13204399.44846  23928269.3474   23928270.5894
     -4925.3754      -3837.9554
  -1823658.41547  -1390204.28047  22741647.1514   22741647.8194
      -872.8444       -680.1384
   3421060.35646   2689880.70346  23709430.3084   23709431.3274
     -2828.6874      -2204.1724
  15815859.51946  12324042.40646  24452304.2844   24452305.9954
     -4732.0314      -3687.2974
  -3249321.09446  -2450294.09945  24807479.0424   24807480.1444
       701.1254        546.3314
   4756263.60847   3747365.00246  22293880.5504   22293881.9214
     -2856.4534      -2225.8084
 98  6 17 17  2 45.0070000  0  7G10G 4G 5G 8G 9G30G24
  -2044081.35045  -1529930.59045  25421680.4254   25421685.3354
       775.2194        604.0674
  17044460.78547  13262002.18946  23942336.7614   23942337.8394
     -4931.1094      -3842.4234
  -1810513.30947  -1379961.32847  22744148.4794   22744149.0424
      -879.7974       -685.5564
   3463568.21046   2723003.70246  23717519.4484   23717520.4684
     -2838.9694      -2212.1834
  15886887.96546  12379389.21046  24465820.4954   24465822.4174
     -4738.4694      -3692.3134
  -3259815.14746  -2458471.31445  24805481.8234   24805482.5614
       698.0634        543.9454
   4799174.96947   3780802.42946  22302046.1754   22302047.4404
     -2865.0474      -2232.5044
 98  6 17 17  3  0.0070000  0  8G10G 4G 5G 6G 8G 9G30G24
  -2055693.41245  -1538978.88645  25419470.6444   25419473.3394
       772.9064        602.2654
  17118469.71747  13319671.46646  23956420.2844   23956421.5384
     -4936.9694      -3846.9894
  -1797265.39647  -1369638.27347  22746669.5034   22746670.2064
      -886.7974       -691.0114
        69.93143                  26965919.8544
        -6.9224
   3506227.86646   2756244.97946  23725637.3084   23725638.5264
     -2849.2504      -2220.1954
  15958011.58646  12434810.18746  24479355.1514   24479357.1674
     -4744.8914      -3697.3174
  -3270263.90946  -2466613.17045  24803492.9404   24803494.5224
       694.8754        541.4614
   4842213.38147   3814338.85346  22310236.1594   22310237.1324
     -2873.6254      -2239.1884
 98  6 17 17  3 15.0070000  0  8G10G 4G 5G 6G 8G 9G30G24
  -2067268.31745  -1547998.24745  25417268.3234   25417272.8584
       770.7814        600.6094
  17192571.01747  13377412.72146  23970521.0654   23970522.0154
     -4942.9224      -3851.6274
  -1783908.80547  -1359230.53347  22749211.1124   22749211.7574
      -893.7504       -696.4294
       184.74243                  26965940.1364
        -8.1414
   3549047.83346   2789611.18946  23733785.7374   23733787.1904
     -2859.7814      -2228.4014
  16029235.50446  12490309.31846  24492908.4564   24492910.3084
     -4751.3124      -3702.3214
  -3280658.88046  -2474713.09445  24801515.3474   24801516.9404
       691.4384        538.7824
   4885384.39847   3847978.60846  22318451.2694   22318452.2654
     -2882.1724      -2245.8484
 98  6 17 17  3 30.0070000  0  8G10G 4G 5G 6G 8G 9G30G24
  -2078813.17945  -1556994.18145  25415071.5264   25415074.8314
       768.4844        598.8194
  17266761.83447  13435223.72946  23984639.4334   23984640.4874
     -4949.2034      -3856.5224
  -1770449.40547  -1348742.68047  22751772.3004   22751773.1204
      -900.9064       -702.0054
       317.99343                  26965965.6834
        -9.6874
   3592024.47446   2823099.47046  23741963.9094   23741965.5264
     -2870.5164      -2236.7654
  16100553.75246  12545881.96346  24506479.6754   24506481.5734
     -4757.7974      -3707.3744
  -3291003.41946  -2482773.74945  24799546.7614   24799548.4484
       687.8284        535.9704
   4928681.08147   3881716.28846  22326690.3394   22326691.6864
     -2890.7194      -2252.5084
 98  6 17 17  3 45.0070000  0  8G10G 4G 5G 6G 8G 9G30G24
  -2090324.67145  -1565964.14545  25412881.2294   25412884.9334
       766.2194        597.0544
  17341044.50247  13493106.30646  23998774.8784   23998776.2374
     -4955.2814      -3861.2584
  -1756883.75747  -1338172.03747  22754353.8394   22754354.8354
      -908.0004       -707.5324
       473.77243                  26965995.2534
       -11.2194
   3635162.74046   2856713.69846  23750172.7924   23750174.1754
     -2881.4224      -2245.2644
  16171966.22146  12601528.03146  24520069.1904   24520071.0424
     -4763.9534      -3712.1714
  -3301296.55646  -2490794.36545  24797587.7614   24797588.5814
       684.4844        533.3644
   4972105.52647   3915553.51746  22334953.9174   22334955.0894
     -2899.3754      -2259.2534
 98  6 17 17  4  0.0070000  0  8G10G 4G 5G 6G 8G 9G30G24
  -2101801.04245  -1574906.71945  25410696.4094   25410699.7724
       763.9384        595.2764
  17415419.20247  13551060.59746  24012928.1044   24012929.3824
     -4961.4064      -3866.0314
  -1743210.67247  -1327517.67547  22756955.8474   22756956.6084
      -915.1414       -713.0974
       651.73543       112.10752  26966029.4094   26966035.3044
       -12.6094         -9.8254
   3678466.93046   2890457.21446  23758413.4014   23758414.7144
     -2892.5004      -2253.8964
  16243468.95546  12657244.42446  24533675.9724   24533677.8704
     -4769.7664      -3716.7004
  -3311539.71246  -2498776.02545  24795638.8544   24795639.8044
       681.1724        530.7834
   5015661.23847   3949493.03846  22343242.2764   22343243.4954
     -2908.1414      -2266.0844
 98  6 17 17  4 15.0070000  0  8G10G 4G 5G 6G 8G 9G30G24
  -2113246.16745  -1583824.93245  25408519.1514   25408523.3114
       762.1414        593.8764
  17489883.54347  13609084.72946  24027098.0264   24027099.4214
     -4967.0474      -3870.4264
  -1729432.70747  -1316781.59847  22759577.6204   22759578.1834
      -921.8594       -718.3324
       849.43143       266.18842  26966066.5424   26966071.5464
       -13.6564        -10.6414
   3721936.79246   2924329.83046  23766685.6514   23766687.0114
     -2903.5004      -2262.4684
  16315055.54946  12713026.14946  24547298.2144   24547300.1364
     -4775.0164      -3720.7914
  -3321734.58246  -2506720.05445  24793698.6904   24793699.6164
       678.2034        528.4704
   5059345.85247   3983533.00346  22351555.1204   22351556.2454
     -2916.4374      -2272.5494
 98  6 17 17  4 30.0070000  0  8G10G 4G 5G 6G 8G 9G30G24
  -2124659.66245  -1592718.54345  25406346.3474   25406349.8154
       760.1564        592.3304
  17564433.63147  13667175.69946  24041284.5814   24041285.9054
     -4972.4374      -3874.6274
  -1715550.69047  -1305964.43547  22762219.3474   22762220.2264
      -928.5474       -723.5434
      1066.84743       435.63642  26966108.5894   26966111.8354
       -14.8444        -11.5674
   3765577.48046   2958335.55146  23774990.0734   23774991.4334
     -2914.7664      -2271.2464
  16386724.74146  12768872.23446  24560936.4484   24560938.5694
     -4780.3754      -3724.9684
  -3331880.69246  -2514626.06545  24791767.9644   24791770.0854
       675.0784        526.0354
   5103158.36747   4017672.62946  22359892.3624   22359893.5464
     -2924.6724      -2278.9654
 98  6 17 17  4 45.0070000  0  8G10G 4G 5G 6G 8G 9G30G24
  -2136051.19245  -1601594.97845  25404178.6834   25404182.1634
       758.4694        591.0154
  17639056.76247  13725323.57046  24055484.7374   24055485.9794
     -4977.5474      -3878.6084
  -1701577.31547  -1295076.08147  22764878.3624   22764879.1124
      -934.7974       -728.4134
      1295.05043       613.47042  26966152.1904   26966158.8114
       -15.6874        -12.2244
   3809377.95846   2992465.77846  23783324.9954   23783326.5544
     -2925.4374      -2279.5624
  16458467.26346  12824775.47346  24574588.5974   24574590.5774
     -4785.4534      -3728.9254
  -3341985.26746  -2522499.73745  24789844.8864   24789846.1754
       672.0004        523.6364
   5147086.81247   4051902.58246  22368251.3704   22368252.5894
     -2932.7344      -2285.2484
 98  6 17 17  5  0.0070000  0  8G10G 4G 5G 6G 8G 9G30G24
  -2147403.03945  -1610440.53645  25402018.8234   25402023.0074
       754.8754        588.2144
  17713770.19047  13783541.81046  24069702.4174   24069703.7294
     -4984.4844      -3884.0144
  -1687495.54647  -1284103.26547  22767557.7924   22767558.6124
      -943.0314       -734.8304
      1547.45943       810.20942  26966200.1124   26966204.4834
       -18.1874        -14.1724
   3853348.79246   3026728.76346  23791692.3084   23791693.7724
     -2937.6094      -2289.0464
  16530297.29346  12880746.88746  24588257.5264   24588259.8474
     -4792.1094      -3734.1114
  -3352031.36546  -2530327.86745  24787933.0034   24787933.9174
       667.2034        519.8994
   5191151.85447   4086238.98246  22376637.1444   22376638.4094
     -2942.9224      -2293.1864
 98  6 17 17  5 15.0070000  0  8G10G 4G 5G 6G 8G 9G30G24
  -2158711.55446  -1619252.32345  25399867.0734   25399870.2964
       753.0164        586.7654
  17788575.93247  13841831.97546  24083937.3544   24083938.3514
     -4989.4224      -3887.8614
  -1673301.00347  -1273042.58047  22770258.9334   22770259.6834
      -949.4534       -739.8344
      1825.44043      1026.83042  26966252.3314   26966255.1794
       -18.7504        -14.6104
   3897490.82746   3061125.14546  23800092.1674   23800093.4334
     -2947.9064      -2297.0704
  16602214.04846  12936785.87946  24601942.6444   24601944.7884
     -4796.6414      -3737.6424
  -3362016.92846  -2538108.78245  24786032.8154   24786034.7844
       664.3444        517.6704
   5235359.71947   4120686.67546  22385049.4094   22385050.4404
     -2951.3444      -2299.7484
 98  6 17 17  5 30.0070000  0  8G10G 4G 5G 6G 8G 9G30G24
  -2169987.68645  -1628038.89145  25397721.2294   25397726.1284
       750.2664        584.6234
  17863456.72747  13900180.62546  24098186.9174   24098188.1364
     -4994.8594      -3892.0984
  -1659006.44647  -1261903.95947  22772979.1754   22772979.8784
      -956.6724       -745.4594
      2114.58843      1252.17242  26966307.8394   26966312.6904
       -19.9844        -15.5724
   3941790.02546   3095643.98446  23808522.3314   23808523.9954
     -2958.7664      -2305.5324
  16674201.07846  12992879.65446  24615641.4724   24615644.0034
     -4801.7974      -3741.6604
  -3371957.58946  -2545854.70345  24784141.3544   24784142.9134
       660.9534        515.0284
   5279696.81947   4155235.06846  22393486.4794   22393487.4054
     -2960.4694      -2306.8594
 98  6 17 17  5 45.0070000  0  8G10G 4G 5G 6G 8G 9G30G24
  -2181218.60445  -1636790.19445  25395583.7144   25395587.2064
       746.6564        581.8104
  17938419.95547  13958593.51746  24112451.6834   24112452.7494
     -5000.6724      -3896.6274
  -1644601.13347  -1250679.03747  22775720.3474   22775721.4014
      -964.5004       -751.5584
      2422.24443      1491.95242  26966366.1044   26966368.9174
       -21.4694        -16.7294
   3986252.49046   3130290.07345  23816983.0344   23816983.9834
     -2970.0784      -2314.3474
  16746267.41346  13049035.21246  24629355.2694   24629357.9994
     -4807.5784      -3746.1654
  -3381845.40746  -2553559.50245  24782259.6204   24782260.2414
       656.9064        511.8754
   5324173.21847   4189891.99646  22401950.3704   22401951.6014
     -2970.1724      -2314.4204
 98  6 17 17  6  0.0070000  0  8G10G 4G 5G 6G 8G 9G30G24
  -2192382.68245  -1645489.45545  25393459.4174   25393463.7184
       742.2034        578.3404
  18013480.42247  14017082.18046  24126735.1904   24126736.2924
     -5007.0164      -3901.5714
  -1630066.79647  -1239353.57147  22778486.1204   22778487.0584
      -973.0314       -758.2064
      2762.63643      1757.26042  26966430.2294   26966433.9334
       -23.5474        -18.3484
   4030896.00546   3165077.20646  23825478.3474   23825480.1044
     -2982.0164      -2323.6494
  16818434.07846  13105268.96546  24643088.1674   24643090.4874
     -4814.3284      -3751.4254
  -3391658.91946  -2561206.34845  24780392.4014   24780393.4684
       651.8754        507.9554
   5368806.28147   4224671.02446  22410443.4794   22410444.5934
     -2980.4844      -2322.4554
